<?xml version="1.0" encoding="UTF-8" standalone="no" ?>
<gpx xmlns="http://www.topografix.com/GPX/1/1" xmlns:xsi="http://www.w3.org/2001/XMLSchema-instance" xsi:schemaLocation="http://www.topografix.com/GPX/1/1 http://www.topografix.com/GPX/1/1/gpx.xsd" version="1.1" creator="VisuGPX - https://www.visugpx.com">
  <metadata>
    <name>Plateau de la Madelaine</name>
    <desc><![CDATA[Depuis Monistrol jusqu\'au plateau de la Madelaine en passant par les bords de Loire]]></desc>
  </metadata>
  <trk>
    <name><![CDATA[VTT 10-11-2011]]></name>
    <trkseg>
      <trkpt lat="45.30987" lon="4.16565">
        <ele>577.41</ele>
        <time>2011-12-10T13:35:59Z</time>
      </trkpt>
      <trkpt lat="45.30987" lon="4.16566">
        <ele>569.72</ele>
        <time>2011-12-10T13:36:06Z</time>
      </trkpt>
      <trkpt lat="45.30998" lon="4.16543">
        <ele>568.28</ele>
        <time>2011-12-10T13:36:14Z</time>
      </trkpt>
      <trkpt lat="45.30987" lon="4.16535">
        <ele>564.91</ele>
        <time>2011-12-10T13:36:21Z</time>
      </trkpt>
      <trkpt lat="45.30946" lon="4.16544">
        <ele>563.47</ele>
        <time>2011-12-10T13:36:33Z</time>
      </trkpt>
      <trkpt lat="45.30934" lon="4.16546">
        <ele>564.43</ele>
        <time>2011-12-10T13:36:36Z</time>
      </trkpt>
      <trkpt lat="45.30921" lon="4.16549">
        <ele>564.43</ele>
        <time>2011-12-10T13:36:39Z</time>
      </trkpt>
      <trkpt lat="45.30913" lon="4.16551">
        <ele>564.43</ele>
        <time>2011-12-10T13:36:41Z</time>
      </trkpt>
      <trkpt lat="45.30904" lon="4.16552">
        <ele>564.91</ele>
        <time>2011-12-10T13:36:43Z</time>
      </trkpt>
      <trkpt lat="45.309" lon="4.16553">
        <ele>564.91</ele>
        <time>2011-12-10T13:36:44Z</time>
      </trkpt>
      <trkpt lat="45.30888" lon="4.16558">
        <ele>565.39</ele>
        <time>2011-12-10T13:36:47Z</time>
      </trkpt>
      <trkpt lat="45.30833" lon="4.16556">
        <ele>566.83</ele>
        <time>2011-12-10T13:37:00Z</time>
      </trkpt>
      <trkpt lat="45.30805" lon="4.16544">
        <ele>566.35</ele>
        <time>2011-12-10T13:37:06Z</time>
      </trkpt>
      <trkpt lat="45.308" lon="4.16543">
        <ele>566.35</ele>
        <time>2011-12-10T13:37:07Z</time>
      </trkpt>
      <trkpt lat="45.30791" lon="4.16543">
        <ele>566.35</ele>
        <time>2011-12-10T13:37:09Z</time>
      </trkpt>
      <trkpt lat="45.30748" lon="4.16548">
        <ele>566.35</ele>
        <time>2011-12-10T13:37:22Z</time>
      </trkpt>
      <trkpt lat="45.30708" lon="4.16577">
        <ele>569.24</ele>
        <time>2011-12-10T13:37:35Z</time>
      </trkpt>
      <trkpt lat="45.307" lon="4.1658">
        <ele>569.24</ele>
        <time>2011-12-10T13:37:37Z</time>
      </trkpt>
      <trkpt lat="45.30687" lon="4.16583">
        <ele>568.76</ele>
        <time>2011-12-10T13:37:40Z</time>
      </trkpt>
      <trkpt lat="45.30683" lon="4.16585">
        <ele>568.76</ele>
        <time>2011-12-10T13:37:41Z</time>
      </trkpt>
      <trkpt lat="45.30674" lon="4.16592">
        <ele>568.28</ele>
        <time>2011-12-10T13:37:43Z</time>
      </trkpt>
      <trkpt lat="45.30669" lon="4.16596">
        <ele>567.8</ele>
        <time>2011-12-10T13:37:44Z</time>
      </trkpt>
      <trkpt lat="45.30662" lon="4.16605">
        <ele>567.8</ele>
        <time>2011-12-10T13:37:46Z</time>
      </trkpt>
      <trkpt lat="45.30658" lon="4.16608">
        <ele>567.32</ele>
        <time>2011-12-10T13:37:47Z</time>
      </trkpt>
      <trkpt lat="45.30654" lon="4.1661">
        <ele>567.32</ele>
        <time>2011-12-10T13:37:48Z</time>
      </trkpt>
      <trkpt lat="45.30649" lon="4.16612">
        <ele>566.83</ele>
        <time>2011-12-10T13:37:49Z</time>
      </trkpt>
      <trkpt lat="45.30644" lon="4.16615">
        <ele>566.35</ele>
        <time>2011-12-10T13:37:50Z</time>
      </trkpt>
      <trkpt lat="45.3061" lon="4.16645">
        <ele>563.47</ele>
        <time>2011-12-10T13:37:56Z</time>
      </trkpt>
      <trkpt lat="45.30602" lon="4.16651">
        <ele>562.51</ele>
        <time>2011-12-10T13:37:57Z</time>
      </trkpt>
      <trkpt lat="45.30594" lon="4.16656">
        <ele>561.55</ele>
        <time>2011-12-10T13:37:58Z</time>
      </trkpt>
      <trkpt lat="45.30585" lon="4.16662">
        <ele>560.59</ele>
        <time>2011-12-10T13:37:59Z</time>
      </trkpt>
      <trkpt lat="45.30575" lon="4.16666">
        <ele>559.62</ele>
        <time>2011-12-10T13:38:00Z</time>
      </trkpt>
      <trkpt lat="45.30564" lon="4.1667">
        <ele>558.18</ele>
        <time>2011-12-10T13:38:01Z</time>
      </trkpt>
      <trkpt lat="45.30553" lon="4.16673">
        <ele>556.74</ele>
        <time>2011-12-10T13:38:02Z</time>
      </trkpt>
      <trkpt lat="45.30541" lon="4.16674">
        <ele>555.78</ele>
        <time>2011-12-10T13:38:03Z</time>
      </trkpt>
      <trkpt lat="45.30529" lon="4.16673">
        <ele>553.86</ele>
        <time>2011-12-10T13:38:04Z</time>
      </trkpt>
      <trkpt lat="45.30516" lon="4.16673">
        <ele>552.41</ele>
        <time>2011-12-10T13:38:05Z</time>
      </trkpt>
      <trkpt lat="45.30503" lon="4.16676">
        <ele>550.97</ele>
        <time>2011-12-10T13:38:06Z</time>
      </trkpt>
      <trkpt lat="45.3049" lon="4.16681">
        <ele>549.53</ele>
        <time>2011-12-10T13:38:07Z</time>
      </trkpt>
      <trkpt lat="45.30478" lon="4.16687">
        <ele>548.09</ele>
        <time>2011-12-10T13:38:08Z</time>
      </trkpt>
      <trkpt lat="45.30466" lon="4.16694">
        <ele>547.13</ele>
        <time>2011-12-10T13:38:09Z</time>
      </trkpt>
      <trkpt lat="45.30456" lon="4.16698">
        <ele>546.65</ele>
        <time>2011-12-10T13:38:10Z</time>
      </trkpt>
      <trkpt lat="45.30447" lon="4.16699">
        <ele>546.17</ele>
        <time>2011-12-10T13:38:11Z</time>
      </trkpt>
      <trkpt lat="45.30438" lon="4.16701">
        <ele>546.17</ele>
        <time>2011-12-10T13:38:12Z</time>
      </trkpt>
      <trkpt lat="45.30424" lon="4.16701">
        <ele>546.17</ele>
        <time>2011-12-10T13:38:14Z</time>
      </trkpt>
      <trkpt lat="45.3042" lon="4.16698">
        <ele>546.17</ele>
        <time>2011-12-10T13:38:15Z</time>
      </trkpt>
      <trkpt lat="45.30417" lon="4.16689">
        <ele>545.69</ele>
        <time>2011-12-10T13:38:17Z</time>
      </trkpt>
      <trkpt lat="45.30418" lon="4.16649">
        <ele>554.34</ele>
        <time>2011-12-10T13:38:28Z</time>
      </trkpt>
      <trkpt lat="45.30396" lon="4.16628">
        <ele>560.11</ele>
        <time>2011-12-10T13:38:39Z</time>
      </trkpt>
      <trkpt lat="45.30389" lon="4.16626">
        <ele>561.55</ele>
        <time>2011-12-10T13:38:42Z</time>
      </trkpt>
      <trkpt lat="45.30373" lon="4.16625">
        <ele>562.51</ele>
        <time>2011-12-10T13:38:50Z</time>
      </trkpt>
      <trkpt lat="45.30362" lon="4.16626">
        <ele>563.95</ele>
        <time>2011-12-10T13:38:56Z</time>
      </trkpt>
      <trkpt lat="45.30359" lon="4.16624">
        <ele>563.95</ele>
        <time>2011-12-10T13:38:59Z</time>
      </trkpt>
      <trkpt lat="45.30353" lon="4.16596">
        <ele>562.03</ele>
        <time>2011-12-10T13:39:07Z</time>
      </trkpt>
      <trkpt lat="45.30358" lon="4.16577">
        <ele>559.62</ele>
        <time>2011-12-10T13:39:11Z</time>
      </trkpt>
      <trkpt lat="45.30363" lon="4.16567">
        <ele>558.66</ele>
        <time>2011-12-10T13:39:13Z</time>
      </trkpt>
      <trkpt lat="45.30374" lon="4.16505">
        <ele>555.3</ele>
        <time>2011-12-10T13:39:21Z</time>
      </trkpt>
      <trkpt lat="45.30374" lon="4.16493">
        <ele>555.3</ele>
        <time>2011-12-10T13:39:23Z</time>
      </trkpt>
      <trkpt lat="45.30374" lon="4.16476">
        <ele>555.3</ele>
        <time>2011-12-10T13:39:26Z</time>
      </trkpt>
      <trkpt lat="45.30369" lon="4.16443">
        <ele>555.78</ele>
        <time>2011-12-10T13:39:31Z</time>
      </trkpt>
      <trkpt lat="45.30367" lon="4.16426">
        <ele>555.78</ele>
        <time>2011-12-10T13:39:33Z</time>
      </trkpt>
      <trkpt lat="45.30379" lon="4.16383">
        <ele>553.86</ele>
        <time>2011-12-10T13:39:40Z</time>
      </trkpt>
      <trkpt lat="45.30392" lon="4.16365">
        <ele>552.41</ele>
        <time>2011-12-10T13:39:44Z</time>
      </trkpt>
      <trkpt lat="45.30406" lon="4.16343">
        <ele>550.49</ele>
        <time>2011-12-10T13:39:48Z</time>
      </trkpt>
      <trkpt lat="45.30419" lon="4.16319">
        <ele>549.05</ele>
        <time>2011-12-10T13:39:52Z</time>
      </trkpt>
      <trkpt lat="45.30463" lon="4.16246">
        <ele>544.72</ele>
        <time>2011-12-10T13:40:02Z</time>
      </trkpt>
      <trkpt lat="45.30489" lon="4.16195">
        <ele>541.84</ele>
        <time>2011-12-10T13:40:08Z</time>
      </trkpt>
      <trkpt lat="45.3049" lon="4.1616">
        <ele>537.99</ele>
        <time>2011-12-10T13:40:14Z</time>
      </trkpt>
      <trkpt lat="45.30487" lon="4.16116">
        <ele>537.03</ele>
        <time>2011-12-10T13:40:21Z</time>
      </trkpt>
      <trkpt lat="45.30463" lon="4.16065">
        <ele>542.8</ele>
        <time>2011-12-10T13:40:34Z</time>
      </trkpt>
      <trkpt lat="45.30429" lon="4.1605">
        <ele>544.24</ele>
        <time>2011-12-10T13:40:46Z</time>
      </trkpt>
      <trkpt lat="45.30403" lon="4.16047">
        <ele>546.17</ele>
        <time>2011-12-10T13:40:55Z</time>
      </trkpt>
      <trkpt lat="45.304" lon="4.16031">
        <ele>547.13</ele>
        <time>2011-12-10T13:40:59Z</time>
      </trkpt>
      <trkpt lat="45.30397" lon="4.16021">
        <ele>546.65</ele>
        <time>2011-12-10T13:41:01Z</time>
      </trkpt>
      <trkpt lat="45.30384" lon="4.15999">
        <ele>546.65</ele>
        <time>2011-12-10T13:41:06Z</time>
      </trkpt>
      <trkpt lat="45.30346" lon="4.1594">
        <ele>546.17</ele>
        <time>2011-12-10T13:41:19Z</time>
      </trkpt>
      <trkpt lat="45.30336" lon="4.15925">
        <ele>546.65</ele>
        <time>2011-12-10T13:41:22Z</time>
      </trkpt>
      <trkpt lat="45.30324" lon="4.15908">
        <ele>546.17</ele>
        <time>2011-12-10T13:41:26Z</time>
      </trkpt>
      <trkpt lat="45.30307" lon="4.15891">
        <ele>547.13</ele>
        <time>2011-12-10T13:41:31Z</time>
      </trkpt>
      <trkpt lat="45.30283" lon="4.15877">
        <ele>547.13</ele>
        <time>2011-12-10T13:41:37Z</time>
      </trkpt>
      <trkpt lat="45.30268" lon="4.15866">
        <ele>547.61</ele>
        <time>2011-12-10T13:41:41Z</time>
      </trkpt>
      <trkpt lat="45.30249" lon="4.15859">
        <ele>548.09</ele>
        <time>2011-12-10T13:41:46Z</time>
      </trkpt>
      <trkpt lat="45.30228" lon="4.15866">
        <ele>548.57</ele>
        <time>2011-12-10T13:41:51Z</time>
      </trkpt>
      <trkpt lat="45.30219" lon="4.15867">
        <ele>548.57</ele>
        <time>2011-12-10T13:41:53Z</time>
      </trkpt>
      <trkpt lat="45.30211" lon="4.15867">
        <ele>549.05</ele>
        <time>2011-12-10T13:41:55Z</time>
      </trkpt>
      <trkpt lat="45.30198" lon="4.15865">
        <ele>549.05</ele>
        <time>2011-12-10T13:41:58Z</time>
      </trkpt>
      <trkpt lat="45.30131" lon="4.15849">
        <ele>552.41</ele>
        <time>2011-12-10T13:42:15Z</time>
      </trkpt>
      <trkpt lat="45.30112" lon="4.15844">
        <ele>552.9</ele>
        <time>2011-12-10T13:42:21Z</time>
      </trkpt>
      <trkpt lat="45.30109" lon="4.15846">
        <ele>553.38</ele>
        <time>2011-12-10T13:42:22Z</time>
      </trkpt>
      <trkpt lat="45.30107" lon="4.15848">
        <ele>553.86</ele>
        <time>2011-12-10T13:42:23Z</time>
      </trkpt>
      <trkpt lat="45.30095" lon="4.1585">
        <ele>554.82</ele>
        <time>2011-12-10T13:42:28Z</time>
      </trkpt>
      <trkpt lat="45.30094" lon="4.15848">
        <ele>554.82</ele>
        <time>2011-12-10T13:42:29Z</time>
      </trkpt>
      <trkpt lat="45.30092" lon="4.15845">
        <ele>554.34</ele>
        <time>2011-12-10T13:42:30Z</time>
      </trkpt>
      <trkpt lat="45.3009" lon="4.15842">
        <ele>554.34</ele>
        <time>2011-12-10T13:42:31Z</time>
      </trkpt>
      <trkpt lat="45.30088" lon="4.15839">
        <ele>553.86</ele>
        <time>2011-12-10T13:42:32Z</time>
      </trkpt>
      <trkpt lat="45.30085" lon="4.15836">
        <ele>553.86</ele>
        <time>2011-12-10T13:42:33Z</time>
      </trkpt>
      <trkpt lat="45.30068" lon="4.1581">
        <ele>552.41</ele>
        <time>2011-12-10T13:42:39Z</time>
      </trkpt>
      <trkpt lat="45.30065" lon="4.15804">
        <ele>552.41</ele>
        <time>2011-12-10T13:42:40Z</time>
      </trkpt>
      <trkpt lat="45.30062" lon="4.15799">
        <ele>551.45</ele>
        <time>2011-12-10T13:42:41Z</time>
      </trkpt>
      <trkpt lat="45.3006" lon="4.15793">
        <ele>550.97</ele>
        <time>2011-12-10T13:42:42Z</time>
      </trkpt>
      <trkpt lat="45.30059" lon="4.15787">
        <ele>550.49</ele>
        <time>2011-12-10T13:42:43Z</time>
      </trkpt>
      <trkpt lat="45.30058" lon="4.1578">
        <ele>550.01</ele>
        <time>2011-12-10T13:42:44Z</time>
      </trkpt>
      <trkpt lat="45.30057" lon="4.15774">
        <ele>549.05</ele>
        <time>2011-12-10T13:42:45Z</time>
      </trkpt>
      <trkpt lat="45.30053" lon="4.15723">
        <ele>545.69</ele>
        <time>2011-12-10T13:42:52Z</time>
      </trkpt>
      <trkpt lat="45.30053" lon="4.15714">
        <ele>545.2</ele>
        <time>2011-12-10T13:42:53Z</time>
      </trkpt>
      <trkpt lat="45.30053" lon="4.15706">
        <ele>544.72</ele>
        <time>2011-12-10T13:42:54Z</time>
      </trkpt>
      <trkpt lat="45.30047" lon="4.15599">
        <ele>538.96</ele>
        <time>2011-12-10T13:43:06Z</time>
      </trkpt>
      <trkpt lat="45.30046" lon="4.1558">
        <ele>537.99</ele>
        <time>2011-12-10T13:43:08Z</time>
      </trkpt>
      <trkpt lat="45.30045" lon="4.1557">
        <ele>537.51</ele>
        <time>2011-12-10T13:43:09Z</time>
      </trkpt>
      <trkpt lat="45.30043" lon="4.15538">
        <ele>536.07</ele>
        <time>2011-12-10T13:43:12Z</time>
      </trkpt>
      <trkpt lat="45.30043" lon="4.15527">
        <ele>535.59</ele>
        <time>2011-12-10T13:43:13Z</time>
      </trkpt>
      <trkpt lat="45.30038" lon="4.15402">
        <ele>530.79</ele>
        <time>2011-12-10T13:43:24Z</time>
      </trkpt>
      <trkpt lat="45.30048" lon="4.15316">
        <ele>526.94</ele>
        <time>2011-12-10T13:43:31Z</time>
      </trkpt>
      <trkpt lat="45.30056" lon="4.15227">
        <ele>523.09</ele>
        <time>2011-12-10T13:43:38Z</time>
      </trkpt>
      <trkpt lat="45.30057" lon="4.15214">
        <ele>522.61</ele>
        <time>2011-12-10T13:43:39Z</time>
      </trkpt>
      <trkpt lat="45.30059" lon="4.15203">
        <ele>521.65</ele>
        <time>2011-12-10T13:43:40Z</time>
      </trkpt>
      <trkpt lat="45.30063" lon="4.15192">
        <ele>521.17</ele>
        <time>2011-12-10T13:43:41Z</time>
      </trkpt>
      <trkpt lat="45.30067" lon="4.15184">
        <ele>520.69</ele>
        <time>2011-12-10T13:43:42Z</time>
      </trkpt>
      <trkpt lat="45.30073" lon="4.15176">
        <ele>520.21</ele>
        <time>2011-12-10T13:43:43Z</time>
      </trkpt>
      <trkpt lat="45.30081" lon="4.15171">
        <ele>519.73</ele>
        <time>2011-12-10T13:43:44Z</time>
      </trkpt>
      <trkpt lat="45.30088" lon="4.15167">
        <ele>518.77</ele>
        <time>2011-12-10T13:43:45Z</time>
      </trkpt>
      <trkpt lat="45.30097" lon="4.15164">
        <ele>517.81</ele>
        <time>2011-12-10T13:43:46Z</time>
      </trkpt>
      <trkpt lat="45.30105" lon="4.15162">
        <ele>517.33</ele>
        <time>2011-12-10T13:43:47Z</time>
      </trkpt>
      <trkpt lat="45.30216" lon="4.15154">
        <ele>508.67</ele>
        <time>2011-12-10T13:44:00Z</time>
      </trkpt>
      <trkpt lat="45.30223" lon="4.1515">
        <ele>508.19</ele>
        <time>2011-12-10T13:44:01Z</time>
      </trkpt>
      <trkpt lat="45.30299" lon="4.15086">
        <ele>502.91</ele>
        <time>2011-12-10T13:44:12Z</time>
      </trkpt>
      <trkpt lat="45.30305" lon="4.15078">
        <ele>502.43</ele>
        <time>2011-12-10T13:44:13Z</time>
      </trkpt>
      <trkpt lat="45.30309" lon="4.1507">
        <ele>501.95</ele>
        <time>2011-12-10T13:44:14Z</time>
      </trkpt>
      <trkpt lat="45.30311" lon="4.15062">
        <ele>501.46</ele>
        <time>2011-12-10T13:44:15Z</time>
      </trkpt>
      <trkpt lat="45.3031" lon="4.15054">
        <ele>500.5</ele>
        <time>2011-12-10T13:44:16Z</time>
      </trkpt>
      <trkpt lat="45.30308" lon="4.15047">
        <ele>499.54</ele>
        <time>2011-12-10T13:44:17Z</time>
      </trkpt>
      <trkpt lat="45.30307" lon="4.15043">
        <ele>499.06</ele>
        <time>2011-12-10T13:44:18Z</time>
      </trkpt>
      <trkpt lat="45.30307" lon="4.15039">
        <ele>498.58</ele>
        <time>2011-12-10T13:44:19Z</time>
      </trkpt>
      <trkpt lat="45.3031" lon="4.15037">
        <ele>498.58</ele>
        <time>2011-12-10T13:44:20Z</time>
      </trkpt>
      <trkpt lat="45.30313" lon="4.15035">
        <ele>497.62</ele>
        <time>2011-12-10T13:44:21Z</time>
      </trkpt>
      <trkpt lat="45.30316" lon="4.15035">
        <ele>497.14</ele>
        <time>2011-12-10T13:44:22Z</time>
      </trkpt>
      <trkpt lat="45.30318" lon="4.15036">
        <ele>496.66</ele>
        <time>2011-12-10T13:44:23Z</time>
      </trkpt>
      <trkpt lat="45.30321" lon="4.15038">
        <ele>496.66</ele>
        <time>2011-12-10T13:44:24Z</time>
      </trkpt>
      <trkpt lat="45.30371" lon="4.15053">
        <ele>494.74</ele>
        <time>2011-12-10T13:44:35Z</time>
      </trkpt>
      <trkpt lat="45.30445" lon="4.15066">
        <ele>493.77</ele>
        <time>2011-12-10T13:44:48Z</time>
      </trkpt>
      <trkpt lat="45.30522" lon="4.15079">
        <ele>493.29</ele>
        <time>2011-12-10T13:45:01Z</time>
      </trkpt>
      <trkpt lat="45.30528" lon="4.1508">
        <ele>493.29</ele>
        <time>2011-12-10T13:45:02Z</time>
      </trkpt>
      <trkpt lat="45.30534" lon="4.1508">
        <ele>493.29</ele>
        <time>2011-12-10T13:45:03Z</time>
      </trkpt>
      <trkpt lat="45.30538" lon="4.15077">
        <ele>493.29</ele>
        <time>2011-12-10T13:45:04Z</time>
      </trkpt>
      <trkpt lat="45.3054" lon="4.15073">
        <ele>492.33</ele>
        <time>2011-12-10T13:45:05Z</time>
      </trkpt>
      <trkpt lat="45.30544" lon="4.15044">
        <ele>490.41</ele>
        <time>2011-12-10T13:45:09Z</time>
      </trkpt>
      <trkpt lat="45.30556" lon="4.14993">
        <ele>487.05</ele>
        <time>2011-12-10T13:45:15Z</time>
      </trkpt>
      <trkpt lat="45.30559" lon="4.14953">
        <ele>484.64</ele>
        <time>2011-12-10T13:45:19Z</time>
      </trkpt>
      <trkpt lat="45.30588" lon="4.14821">
        <ele>475.03</ele>
        <time>2011-12-10T13:45:30Z</time>
      </trkpt>
      <trkpt lat="45.30603" lon="4.14788">
        <ele>472.63</ele>
        <time>2011-12-10T13:45:33Z</time>
      </trkpt>
      <trkpt lat="45.30603" lon="4.14706">
        <ele>464.93</ele>
        <time>2011-12-10T13:45:40Z</time>
      </trkpt>
      <trkpt lat="45.30597" lon="4.14696">
        <ele>463.97</ele>
        <time>2011-12-10T13:45:41Z</time>
      </trkpt>
      <trkpt lat="45.30569" lon="4.14656">
        <ele>458.69</ele>
        <time>2011-12-10T13:45:45Z</time>
      </trkpt>
      <trkpt lat="45.30562" lon="4.14647">
        <ele>457.24</ele>
        <time>2011-12-10T13:45:46Z</time>
      </trkpt>
      <trkpt lat="45.30557" lon="4.14637">
        <ele>455.8</ele>
        <time>2011-12-10T13:45:47Z</time>
      </trkpt>
      <trkpt lat="45.30552" lon="4.14627">
        <ele>454.36</ele>
        <time>2011-12-10T13:45:48Z</time>
      </trkpt>
      <trkpt lat="45.30549" lon="4.14616">
        <ele>452.92</ele>
        <time>2011-12-10T13:45:49Z</time>
      </trkpt>
      <trkpt lat="45.30538" lon="4.1458">
        <ele>448.59</ele>
        <time>2011-12-10T13:45:54Z</time>
      </trkpt>
      <trkpt lat="45.30539" lon="4.14578">
        <ele>448.11</ele>
        <time>2011-12-10T13:45:55Z</time>
      </trkpt>
      <trkpt lat="45.30541" lon="4.14578">
        <ele>447.63</ele>
        <time>2011-12-10T13:45:56Z</time>
      </trkpt>
      <trkpt lat="45.30542" lon="4.14578">
        <ele>447.63</ele>
        <time>2011-12-10T13:45:57Z</time>
      </trkpt>
      <trkpt lat="45.30544" lon="4.1458">
        <ele>447.63</ele>
        <time>2011-12-10T13:45:58Z</time>
      </trkpt>
      <trkpt lat="45.30544" lon="4.14582">
        <ele>447.63</ele>
        <time>2011-12-10T13:45:59Z</time>
      </trkpt>
      <trkpt lat="45.30545" lon="4.14584">
        <ele>447.63</ele>
        <time>2011-12-10T13:46:00Z</time>
      </trkpt>
      <trkpt lat="45.30546" lon="4.14586">
        <ele>447.63</ele>
        <time>2011-12-10T13:46:01Z</time>
      </trkpt>
      <trkpt lat="45.30547" lon="4.14587">
        <ele>447.63</ele>
        <time>2011-12-10T13:46:02Z</time>
      </trkpt>
      <trkpt lat="45.30548" lon="4.14589">
        <ele>448.11</ele>
        <time>2011-12-10T13:46:03Z</time>
      </trkpt>
      <trkpt lat="45.30549" lon="4.14591">
        <ele>448.11</ele>
        <time>2011-12-10T13:46:04Z</time>
      </trkpt>
      <trkpt lat="45.30566" lon="4.14627">
        <ele>451.96</ele>
        <time>2011-12-10T13:46:16Z</time>
      </trkpt>
      <trkpt lat="45.30569" lon="4.14628">
        <ele>452.44</ele>
        <time>2011-12-10T13:46:17Z</time>
      </trkpt>
      <trkpt lat="45.30571" lon="4.14628">
        <ele>452.92</ele>
        <time>2011-12-10T13:46:18Z</time>
      </trkpt>
      <trkpt lat="45.30574" lon="4.14627">
        <ele>453.4</ele>
        <time>2011-12-10T13:46:19Z</time>
      </trkpt>
      <trkpt lat="45.30575" lon="4.14625">
        <ele>453.88</ele>
        <time>2011-12-10T13:46:20Z</time>
      </trkpt>
      <trkpt lat="45.30577" lon="4.14622">
        <ele>454.36</ele>
        <time>2011-12-10T13:46:21Z</time>
      </trkpt>
      <trkpt lat="45.30578" lon="4.14619">
        <ele>454.36</ele>
        <time>2011-12-10T13:46:22Z</time>
      </trkpt>
      <trkpt lat="45.30579" lon="4.14616">
        <ele>454.36</ele>
        <time>2011-12-10T13:46:23Z</time>
      </trkpt>
      <trkpt lat="45.30581" lon="4.14612">
        <ele>454.36</ele>
        <time>2011-12-10T13:46:24Z</time>
      </trkpt>
      <trkpt lat="45.30599" lon="4.14574">
        <ele>454.84</ele>
        <time>2011-12-10T13:46:35Z</time>
      </trkpt>
      <trkpt lat="45.30623" lon="4.14546">
        <ele>458.69</ele>
        <time>2011-12-10T13:46:46Z</time>
      </trkpt>
      <trkpt lat="45.30651" lon="4.14522">
        <ele>462.53</ele>
        <time>2011-12-10T13:46:56Z</time>
      </trkpt>
      <trkpt lat="45.30685" lon="4.14502">
        <ele>464.45</ele>
        <time>2011-12-10T13:47:08Z</time>
      </trkpt>
      <trkpt lat="45.30689" lon="4.14469">
        <ele>463.01</ele>
        <time>2011-12-10T13:47:15Z</time>
      </trkpt>
      <trkpt lat="45.30691" lon="4.14463">
        <ele>463.01</ele>
        <time>2011-12-10T13:47:16Z</time>
      </trkpt>
      <trkpt lat="45.30693" lon="4.14458">
        <ele>463.01</ele>
        <time>2011-12-10T13:47:17Z</time>
      </trkpt>
      <trkpt lat="45.30695" lon="4.14452">
        <ele>463.01</ele>
        <time>2011-12-10T13:47:18Z</time>
      </trkpt>
      <trkpt lat="45.30707" lon="4.14416">
        <ele>463.49</ele>
        <time>2011-12-10T13:47:25Z</time>
      </trkpt>
      <trkpt lat="45.30714" lon="4.14399">
        <ele>462.53</ele>
        <time>2011-12-10T13:47:28Z</time>
      </trkpt>
      <trkpt lat="45.30728" lon="4.14356">
        <ele>460.13</ele>
        <time>2011-12-10T13:47:37Z</time>
      </trkpt>
      <trkpt lat="45.30731" lon="4.14352">
        <ele>458.69</ele>
        <time>2011-12-10T13:47:40Z</time>
      </trkpt>
      <trkpt lat="45.30732" lon="4.14344">
        <ele>458.21</ele>
        <time>2011-12-10T13:47:43Z</time>
      </trkpt>
      <trkpt lat="45.30736" lon="4.14335">
        <ele>457.72</ele>
        <time>2011-12-10T13:47:46Z</time>
      </trkpt>
      <trkpt lat="45.30739" lon="4.14322">
        <ele>458.21</ele>
        <time>2011-12-10T13:47:50Z</time>
      </trkpt>
      <trkpt lat="45.30752" lon="4.14279">
        <ele>455.32</ele>
        <time>2011-12-10T13:47:58Z</time>
      </trkpt>
      <trkpt lat="45.30767" lon="4.14244">
        <ele>454.84</ele>
        <time>2011-12-10T13:48:04Z</time>
      </trkpt>
      <trkpt lat="45.30777" lon="4.14226">
        <ele>455.8</ele>
        <time>2011-12-10T13:48:08Z</time>
      </trkpt>
      <trkpt lat="45.3079" lon="4.1422">
        <ele>455.32</ele>
        <time>2011-12-10T13:48:11Z</time>
      </trkpt>
      <trkpt lat="45.30812" lon="4.14203">
        <ele>453.88</ele>
        <time>2011-12-10T13:48:16Z</time>
      </trkpt>
      <trkpt lat="45.3086" lon="4.1414">
        <ele>453.88</ele>
        <time>2011-12-10T13:48:29Z</time>
      </trkpt>
      <trkpt lat="45.30863" lon="4.14136">
        <ele>453.88</ele>
        <time>2011-12-10T13:48:30Z</time>
      </trkpt>
      <trkpt lat="45.30871" lon="4.14121">
        <ele>453.88</ele>
        <time>2011-12-10T13:48:33Z</time>
      </trkpt>
      <trkpt lat="45.30877" lon="4.14112">
        <ele>454.36</ele>
        <time>2011-12-10T13:48:35Z</time>
      </trkpt>
      <trkpt lat="45.30892" lon="4.14096">
        <ele>453.88</ele>
        <time>2011-12-10T13:48:39Z</time>
      </trkpt>
      <trkpt lat="45.30908" lon="4.14062">
        <ele>452.44</ele>
        <time>2011-12-10T13:48:45Z</time>
      </trkpt>
      <trkpt lat="45.30915" lon="4.14037">
        <ele>451</ele>
        <time>2011-12-10T13:48:49Z</time>
      </trkpt>
      <trkpt lat="45.30933" lon="4.14019">
        <ele>449.55</ele>
        <time>2011-12-10T13:48:54Z</time>
      </trkpt>
      <trkpt lat="45.30969" lon="4.13935">
        <ele>445.23</ele>
        <time>2011-12-10T13:49:07Z</time>
      </trkpt>
      <trkpt lat="45.30984" lon="4.13892">
        <ele>440.9</ele>
        <time>2011-12-10T13:49:15Z</time>
      </trkpt>
      <trkpt lat="45.30991" lon="4.13869">
        <ele>438.98</ele>
        <time>2011-12-10T13:49:18Z</time>
      </trkpt>
      <trkpt lat="45.30998" lon="4.13834">
        <ele>438.02</ele>
        <time>2011-12-10T13:49:22Z</time>
      </trkpt>
      <trkpt lat="45.31013" lon="4.13778">
        <ele>437.06</ele>
        <time>2011-12-10T13:49:29Z</time>
      </trkpt>
      <trkpt lat="45.31016" lon="4.1376">
        <ele>436.58</ele>
        <time>2011-12-10T13:49:31Z</time>
      </trkpt>
      <trkpt lat="45.31039" lon="4.13715">
        <ele>437.06</ele>
        <time>2011-12-10T13:49:38Z</time>
      </trkpt>
      <trkpt lat="45.31047" lon="4.13708">
        <ele>437.54</ele>
        <time>2011-12-10T13:49:40Z</time>
      </trkpt>
      <trkpt lat="45.3107" lon="4.13672">
        <ele>438.5</ele>
        <time>2011-12-10T13:49:47Z</time>
      </trkpt>
      <trkpt lat="45.31076" lon="4.13662">
        <ele>438.98</ele>
        <time>2011-12-10T13:49:49Z</time>
      </trkpt>
      <trkpt lat="45.31089" lon="4.13639">
        <ele>439.46</ele>
        <time>2011-12-10T13:49:54Z</time>
      </trkpt>
      <trkpt lat="45.31108" lon="4.13636">
        <ele>439.46</ele>
        <time>2011-12-10T13:49:58Z</time>
      </trkpt>
      <trkpt lat="45.31126" lon="4.13627">
        <ele>440.42</ele>
        <time>2011-12-10T13:50:02Z</time>
      </trkpt>
      <trkpt lat="45.31135" lon="4.13622">
        <ele>440.42</ele>
        <time>2011-12-10T13:50:04Z</time>
      </trkpt>
      <trkpt lat="45.31153" lon="4.1361">
        <ele>439.94</ele>
        <time>2011-12-10T13:50:08Z</time>
      </trkpt>
      <trkpt lat="45.3117" lon="4.136">
        <ele>439.94</ele>
        <time>2011-12-10T13:50:14Z</time>
      </trkpt>
      <trkpt lat="45.31198" lon="4.13579">
        <ele>439.94</ele>
        <time>2011-12-10T13:50:23Z</time>
      </trkpt>
      <trkpt lat="45.31223" lon="4.13563">
        <ele>441.86</ele>
        <time>2011-12-10T13:50:29Z</time>
      </trkpt>
      <trkpt lat="45.31233" lon="4.13556">
        <ele>441.86</ele>
        <time>2011-12-10T13:50:31Z</time>
      </trkpt>
      <trkpt lat="45.31257" lon="4.13523">
        <ele>439.94</ele>
        <time>2011-12-10T13:50:39Z</time>
      </trkpt>
      <trkpt lat="45.31244" lon="4.13491">
        <ele>436.58</ele>
        <time>2011-12-10T13:50:51Z</time>
      </trkpt>
      <trkpt lat="45.3124" lon="4.13489">
        <ele>436.58</ele>
        <time>2011-12-10T13:50:54Z</time>
      </trkpt>
      <trkpt lat="45.31237" lon="4.13489">
        <ele>436.58</ele>
        <time>2011-12-10T13:50:56Z</time>
      </trkpt>
      <trkpt lat="45.31216" lon="4.13464">
        <ele>436.1</ele>
        <time>2011-12-10T13:51:08Z</time>
      </trkpt>
      <trkpt lat="45.3121" lon="4.13458">
        <ele>436.1</ele>
        <time>2011-12-10T13:51:10Z</time>
      </trkpt>
      <trkpt lat="45.31181" lon="4.13451">
        <ele>436.58</ele>
        <time>2011-12-10T13:51:19Z</time>
      </trkpt>
      <trkpt lat="45.31175" lon="4.13448">
        <ele>436.58</ele>
        <time>2011-12-10T13:51:21Z</time>
      </trkpt>
      <trkpt lat="45.31136" lon="4.13412">
        <ele>437.06</ele>
        <time>2011-12-10T13:51:34Z</time>
      </trkpt>
      <trkpt lat="45.31101" lon="4.1339">
        <ele>437.54</ele>
        <time>2011-12-10T13:51:45Z</time>
      </trkpt>
      <trkpt lat="45.31071" lon="4.13389">
        <ele>435.61</ele>
        <time>2011-12-10T13:51:54Z</time>
      </trkpt>
      <trkpt lat="45.31052" lon="4.1338">
        <ele>435.61</ele>
        <time>2011-12-10T13:51:59Z</time>
      </trkpt>
      <trkpt lat="45.31033" lon="4.13369">
        <ele>436.1</ele>
        <time>2011-12-10T13:52:04Z</time>
      </trkpt>
      <trkpt lat="45.30996" lon="4.13338">
        <ele>435.13</ele>
        <time>2011-12-10T13:52:15Z</time>
      </trkpt>
      <trkpt lat="45.3096" lon="4.13307">
        <ele>434.65</ele>
        <time>2011-12-10T13:52:26Z</time>
      </trkpt>
      <trkpt lat="45.30952" lon="4.13302">
        <ele>434.65</ele>
        <time>2011-12-10T13:52:28Z</time>
      </trkpt>
      <trkpt lat="45.30926" lon="4.13274">
        <ele>437.06</ele>
        <time>2011-12-10T13:52:37Z</time>
      </trkpt>
      <trkpt lat="45.30923" lon="4.13272">
        <ele>437.06</ele>
        <time>2011-12-10T13:52:38Z</time>
      </trkpt>
      <trkpt lat="45.30905" lon="4.13259">
        <ele>437.54</ele>
        <time>2011-12-10T13:52:43Z</time>
      </trkpt>
      <trkpt lat="45.30891" lon="4.13247">
        <ele>438.98</ele>
        <time>2011-12-10T13:52:47Z</time>
      </trkpt>
      <trkpt lat="45.30884" lon="4.13242">
        <ele>439.46</ele>
        <time>2011-12-10T13:52:49Z</time>
      </trkpt>
      <trkpt lat="45.30846" lon="4.13218">
        <ele>440.42</ele>
        <time>2011-12-10T13:52:59Z</time>
      </trkpt>
      <trkpt lat="45.30824" lon="4.13207">
        <ele>439.46</ele>
        <time>2011-12-10T13:53:04Z</time>
      </trkpt>
      <trkpt lat="45.30766" lon="4.13177">
        <ele>439.46</ele>
        <time>2011-12-10T13:53:17Z</time>
      </trkpt>
      <trkpt lat="45.30739" lon="4.13167">
        <ele>439.94</ele>
        <time>2011-12-10T13:53:23Z</time>
      </trkpt>
      <trkpt lat="45.3072" lon="4.13146">
        <ele>440.42</ele>
        <time>2011-12-10T13:53:29Z</time>
      </trkpt>
      <trkpt lat="45.30708" lon="4.13128">
        <ele>439.94</ele>
        <time>2011-12-10T13:53:33Z</time>
      </trkpt>
      <trkpt lat="45.30697" lon="4.13116">
        <ele>439.94</ele>
        <time>2011-12-10T13:53:36Z</time>
      </trkpt>
      <trkpt lat="45.30685" lon="4.13094">
        <ele>440.42</ele>
        <time>2011-12-10T13:53:40Z</time>
      </trkpt>
      <trkpt lat="45.30668" lon="4.1301">
        <ele>440.42</ele>
        <time>2011-12-10T13:53:53Z</time>
      </trkpt>
      <trkpt lat="45.30666" lon="4.12983">
        <ele>440.42</ele>
        <time>2011-12-10T13:53:57Z</time>
      </trkpt>
      <trkpt lat="45.30664" lon="4.12963">
        <ele>439.94</ele>
        <time>2011-12-10T13:54:00Z</time>
      </trkpt>
      <trkpt lat="45.30664" lon="4.12936">
        <ele>440.9</ele>
        <time>2011-12-10T13:54:04Z</time>
      </trkpt>
      <trkpt lat="45.30664" lon="4.12923">
        <ele>440.9</ele>
        <time>2011-12-10T13:54:06Z</time>
      </trkpt>
      <trkpt lat="45.30665" lon="4.12897">
        <ele>441.38</ele>
        <time>2011-12-10T13:54:10Z</time>
      </trkpt>
      <trkpt lat="45.30666" lon="4.12883">
        <ele>441.38</ele>
        <time>2011-12-10T13:54:12Z</time>
      </trkpt>
      <trkpt lat="45.30668" lon="4.12842">
        <ele>440.9</ele>
        <time>2011-12-10T13:54:18Z</time>
      </trkpt>
      <trkpt lat="45.30669" lon="4.12819">
        <ele>440.9</ele>
        <time>2011-12-10T13:54:21Z</time>
      </trkpt>
      <trkpt lat="45.30671" lon="4.12805">
        <ele>440.42</ele>
        <time>2011-12-10T13:54:23Z</time>
      </trkpt>
      <trkpt lat="45.30698" lon="4.12722">
        <ele>441.38</ele>
        <time>2011-12-10T13:54:35Z</time>
      </trkpt>
      <trkpt lat="45.30709" lon="4.12689">
        <ele>442.82</ele>
        <time>2011-12-10T13:54:40Z</time>
      </trkpt>
      <trkpt lat="45.30714" lon="4.12677">
        <ele>442.82</ele>
        <time>2011-12-10T13:54:42Z</time>
      </trkpt>
      <trkpt lat="45.30725" lon="4.12653">
        <ele>443.79</ele>
        <time>2011-12-10T13:54:46Z</time>
      </trkpt>
      <trkpt lat="45.30749" lon="4.12599">
        <ele>443.31</ele>
        <time>2011-12-10T13:54:55Z</time>
      </trkpt>
      <trkpt lat="45.30756" lon="4.12584">
        <ele>443.79</ele>
        <time>2011-12-10T13:54:58Z</time>
      </trkpt>
      <trkpt lat="45.30774" lon="4.12543">
        <ele>441.38</ele>
        <time>2011-12-10T13:55:07Z</time>
      </trkpt>
      <trkpt lat="45.30788" lon="4.12525">
        <ele>440.9</ele>
        <time>2011-12-10T13:55:10Z</time>
      </trkpt>
      <trkpt lat="45.30796" lon="4.12493">
        <ele>439.46</ele>
        <time>2011-12-10T13:55:17Z</time>
      </trkpt>
      <trkpt lat="45.30781" lon="4.12423">
        <ele>438.98</ele>
        <time>2011-12-10T13:55:30Z</time>
      </trkpt>
      <trkpt lat="45.30777" lon="4.12399">
        <ele>439.46</ele>
        <time>2011-12-10T13:55:34Z</time>
      </trkpt>
      <trkpt lat="45.30776" lon="4.1238">
        <ele>439.94</ele>
        <time>2011-12-10T13:55:37Z</time>
      </trkpt>
      <trkpt lat="45.30777" lon="4.12362">
        <ele>440.42</ele>
        <time>2011-12-10T13:55:40Z</time>
      </trkpt>
      <trkpt lat="45.30769" lon="4.12342">
        <ele>440.42</ele>
        <time>2011-12-10T13:55:44Z</time>
      </trkpt>
      <trkpt lat="45.30766" lon="4.12288">
        <ele>438.5</ele>
        <time>2011-12-10T13:55:53Z</time>
      </trkpt>
      <trkpt lat="45.30774" lon="4.12252">
        <ele>438.02</ele>
        <time>2011-12-10T13:55:59Z</time>
      </trkpt>
      <trkpt lat="45.30764" lon="4.12203">
        <ele>438.5</ele>
        <time>2011-12-10T13:56:08Z</time>
      </trkpt>
      <trkpt lat="45.30746" lon="4.12197">
        <ele>438.98</ele>
        <time>2011-12-10T13:56:13Z</time>
      </trkpt>
      <trkpt lat="45.30739" lon="4.12192">
        <ele>439.46</ele>
        <time>2011-12-10T13:56:15Z</time>
      </trkpt>
      <trkpt lat="45.307" lon="4.12171">
        <ele>439.94</ele>
        <time>2011-12-10T13:56:25Z</time>
      </trkpt>
      <trkpt lat="45.3068" lon="4.12161">
        <ele>441.38</ele>
        <time>2011-12-10T13:56:30Z</time>
      </trkpt>
      <trkpt lat="45.30662" lon="4.12154">
        <ele>441.38</ele>
        <time>2011-12-10T13:56:34Z</time>
      </trkpt>
      <trkpt lat="45.30643" lon="4.12146">
        <ele>441.38</ele>
        <time>2011-12-10T13:56:38Z</time>
      </trkpt>
      <trkpt lat="45.30627" lon="4.12137">
        <ele>440.9</ele>
        <time>2011-12-10T13:56:42Z</time>
      </trkpt>
      <trkpt lat="45.30606" lon="4.1213">
        <ele>440.9</ele>
        <time>2011-12-10T13:56:47Z</time>
      </trkpt>
      <trkpt lat="45.30592" lon="4.12125">
        <ele>440.9</ele>
        <time>2011-12-10T13:56:50Z</time>
      </trkpt>
      <trkpt lat="45.30571" lon="4.12112">
        <ele>440.9</ele>
        <time>2011-12-10T13:56:55Z</time>
      </trkpt>
      <trkpt lat="45.30563" lon="4.12107">
        <ele>440.9</ele>
        <time>2011-12-10T13:56:57Z</time>
      </trkpt>
      <trkpt lat="45.30537" lon="4.12097">
        <ele>442.34</ele>
        <time>2011-12-10T13:57:03Z</time>
      </trkpt>
      <trkpt lat="45.30511" lon="4.12085">
        <ele>441.86</ele>
        <time>2011-12-10T13:57:09Z</time>
      </trkpt>
      <trkpt lat="45.30495" lon="4.12073">
        <ele>440.9</ele>
        <time>2011-12-10T13:57:13Z</time>
      </trkpt>
      <trkpt lat="45.30476" lon="4.12068">
        <ele>440.9</ele>
        <time>2011-12-10T13:57:17Z</time>
      </trkpt>
      <trkpt lat="45.3044" lon="4.12059">
        <ele>439.94</ele>
        <time>2011-12-10T13:57:25Z</time>
      </trkpt>
      <trkpt lat="45.30421" lon="4.12052">
        <ele>440.42</ele>
        <time>2011-12-10T13:57:29Z</time>
      </trkpt>
      <trkpt lat="45.30407" lon="4.1205">
        <ele>440.42</ele>
        <time>2011-12-10T13:57:32Z</time>
      </trkpt>
      <trkpt lat="45.30381" lon="4.12038">
        <ele>439.46</ele>
        <time>2011-12-10T13:57:38Z</time>
      </trkpt>
      <trkpt lat="45.30351" lon="4.1206">
        <ele>437.54</ele>
        <time>2011-12-10T13:57:47Z</time>
      </trkpt>
      <trkpt lat="45.30349" lon="4.12071">
        <ele>437.06</ele>
        <time>2011-12-10T13:57:49Z</time>
      </trkpt>
      <trkpt lat="45.30327" lon="4.12109">
        <ele>439.94</ele>
        <time>2011-12-10T13:58:01Z</time>
      </trkpt>
      <trkpt lat="45.30325" lon="4.1212">
        <ele>440.9</ele>
        <time>2011-12-10T13:58:04Z</time>
      </trkpt>
      <trkpt lat="45.30321" lon="4.12127">
        <ele>441.86</ele>
        <time>2011-12-10T13:58:07Z</time>
      </trkpt>
      <trkpt lat="45.30312" lon="4.12127">
        <ele>442.82</ele>
        <time>2011-12-10T13:58:11Z</time>
      </trkpt>
      <trkpt lat="45.30264" lon="4.12111">
        <ele>445.71</ele>
        <time>2011-12-10T13:58:25Z</time>
      </trkpt>
      <trkpt lat="45.30225" lon="4.1208">
        <ele>445.71</ele>
        <time>2011-12-10T13:58:37Z</time>
      </trkpt>
      <trkpt lat="45.30193" lon="4.12043">
        <ele>445.23</ele>
        <time>2011-12-10T13:58:47Z</time>
      </trkpt>
      <trkpt lat="45.30184" lon="4.12029">
        <ele>445.71</ele>
        <time>2011-12-10T13:58:50Z</time>
      </trkpt>
      <trkpt lat="45.30153" lon="4.11995">
        <ele>447.63</ele>
        <time>2011-12-10T13:58:59Z</time>
      </trkpt>
      <trkpt lat="45.30125" lon="4.1197">
        <ele>448.11</ele>
        <time>2011-12-10T13:59:07Z</time>
      </trkpt>
      <trkpt lat="45.30089" lon="4.11942">
        <ele>447.63</ele>
        <time>2011-12-10T13:59:16Z</time>
      </trkpt>
      <trkpt lat="45.30054" lon="4.1192">
        <ele>447.15</ele>
        <time>2011-12-10T13:59:24Z</time>
      </trkpt>
      <trkpt lat="45.30023" lon="4.11894">
        <ele>447.63</ele>
        <time>2011-12-10T13:59:31Z</time>
      </trkpt>
      <trkpt lat="45.30009" lon="4.11886">
        <ele>447.15</ele>
        <time>2011-12-10T13:59:34Z</time>
      </trkpt>
      <trkpt lat="45.29968" lon="4.11883">
        <ele>449.07</ele>
        <time>2011-12-10T13:59:42Z</time>
      </trkpt>
      <trkpt lat="45.29925" lon="4.11889">
        <ele>449.55</ele>
        <time>2011-12-10T13:59:51Z</time>
      </trkpt>
      <trkpt lat="45.29906" lon="4.11892">
        <ele>450.03</ele>
        <time>2011-12-10T13:59:55Z</time>
      </trkpt>
      <trkpt lat="45.29857" lon="4.11891">
        <ele>450.03</ele>
        <time>2011-12-10T14:00:05Z</time>
      </trkpt>
      <trkpt lat="45.29839" lon="4.1189">
        <ele>450.52</ele>
        <time>2011-12-10T14:00:09Z</time>
      </trkpt>
      <trkpt lat="45.29817" lon="4.11897">
        <ele>451.48</ele>
        <time>2011-12-10T14:00:14Z</time>
      </trkpt>
      <trkpt lat="45.29783" lon="4.11901">
        <ele>451.48</ele>
        <time>2011-12-10T14:00:22Z</time>
      </trkpt>
      <trkpt lat="45.29766" lon="4.11905">
        <ele>450.52</ele>
        <time>2011-12-10T14:00:26Z</time>
      </trkpt>
      <trkpt lat="45.29745" lon="4.11917">
        <ele>450.03</ele>
        <time>2011-12-10T14:00:31Z</time>
      </trkpt>
      <trkpt lat="45.29698" lon="4.11926">
        <ele>452.44</ele>
        <time>2011-12-10T14:00:44Z</time>
      </trkpt>
      <trkpt lat="45.29654" lon="4.11901">
        <ele>451</ele>
        <time>2011-12-10T14:00:57Z</time>
      </trkpt>
      <trkpt lat="45.29638" lon="4.11902">
        <ele>451</ele>
        <time>2011-12-10T14:01:01Z</time>
      </trkpt>
      <trkpt lat="45.2963" lon="4.11906">
        <ele>450.52</ele>
        <time>2011-12-10T14:01:03Z</time>
      </trkpt>
      <trkpt lat="45.29617" lon="4.11909">
        <ele>450.03</ele>
        <time>2011-12-10T14:01:06Z</time>
      </trkpt>
      <trkpt lat="45.29604" lon="4.11913">
        <ele>449.07</ele>
        <time>2011-12-10T14:01:09Z</time>
      </trkpt>
      <trkpt lat="45.29601" lon="4.11915">
        <ele>449.07</ele>
        <time>2011-12-10T14:01:10Z</time>
      </trkpt>
      <trkpt lat="45.29599" lon="4.11919">
        <ele>448.59</ele>
        <time>2011-12-10T14:01:11Z</time>
      </trkpt>
      <trkpt lat="45.29599" lon="4.11922">
        <ele>448.59</ele>
        <time>2011-12-10T14:01:12Z</time>
      </trkpt>
      <trkpt lat="45.296" lon="4.11926">
        <ele>449.07</ele>
        <time>2011-12-10T14:01:14Z</time>
      </trkpt>
      <trkpt lat="45.29597" lon="4.11904">
        <ele>451</ele>
        <time>2011-12-10T14:01:24Z</time>
      </trkpt>
      <trkpt lat="45.29597" lon="4.1189">
        <ele>451.48</ele>
        <time>2011-12-10T14:01:27Z</time>
      </trkpt>
      <trkpt lat="45.29596" lon="4.11884">
        <ele>451.48</ele>
        <time>2011-12-10T14:01:28Z</time>
      </trkpt>
      <trkpt lat="45.29597" lon="4.118">
        <ele>451.96</ele>
        <time>2011-12-10T14:01:43Z</time>
      </trkpt>
      <trkpt lat="45.29596" lon="4.1172">
        <ele>452.44</ele>
        <time>2011-12-10T14:01:55Z</time>
      </trkpt>
      <trkpt lat="45.29593" lon="4.11714">
        <ele>452.44</ele>
        <time>2011-12-10T14:01:56Z</time>
      </trkpt>
      <trkpt lat="45.2959" lon="4.11709">
        <ele>452.44</ele>
        <time>2011-12-10T14:01:57Z</time>
      </trkpt>
      <trkpt lat="45.29587" lon="4.11706">
        <ele>451.96</ele>
        <time>2011-12-10T14:01:58Z</time>
      </trkpt>
      <trkpt lat="45.29582" lon="4.11703">
        <ele>451.96</ele>
        <time>2011-12-10T14:01:59Z</time>
      </trkpt>
      <trkpt lat="45.29578" lon="4.11703">
        <ele>451.48</ele>
        <time>2011-12-10T14:02:00Z</time>
      </trkpt>
      <trkpt lat="45.29573" lon="4.11704">
        <ele>451</ele>
        <time>2011-12-10T14:02:01Z</time>
      </trkpt>
      <trkpt lat="45.29568" lon="4.11705">
        <ele>451</ele>
        <time>2011-12-10T14:02:02Z</time>
      </trkpt>
      <trkpt lat="45.29562" lon="4.11707">
        <ele>450.52</ele>
        <time>2011-12-10T14:02:03Z</time>
      </trkpt>
      <trkpt lat="45.29557" lon="4.11709">
        <ele>450.03</ele>
        <time>2011-12-10T14:02:04Z</time>
      </trkpt>
      <trkpt lat="45.29491" lon="4.11732">
        <ele>450.03</ele>
        <time>2011-12-10T14:02:17Z</time>
      </trkpt>
      <trkpt lat="45.29487" lon="4.11732">
        <ele>450.52</ele>
        <time>2011-12-10T14:02:18Z</time>
      </trkpt>
      <trkpt lat="45.29482" lon="4.11732">
        <ele>450.52</ele>
        <time>2011-12-10T14:02:19Z</time>
      </trkpt>
      <trkpt lat="45.2947" lon="4.11731">
        <ele>451</ele>
        <time>2011-12-10T14:02:22Z</time>
      </trkpt>
      <trkpt lat="45.29465" lon="4.11731">
        <ele>451</ele>
        <time>2011-12-10T14:02:23Z</time>
      </trkpt>
      <trkpt lat="45.29404" lon="4.1172">
        <ele>456.28</ele>
        <time>2011-12-10T14:02:39Z</time>
      </trkpt>
      <trkpt lat="45.29348" lon="4.11738">
        <ele>459.65</ele>
        <time>2011-12-10T14:02:54Z</time>
      </trkpt>
      <trkpt lat="45.2931" lon="4.11747">
        <ele>461.09</ele>
        <time>2011-12-10T14:03:04Z</time>
      </trkpt>
      <trkpt lat="45.29261" lon="4.11754">
        <ele>462.53</ele>
        <time>2011-12-10T14:03:17Z</time>
      </trkpt>
      <trkpt lat="45.29201" lon="4.11764">
        <ele>467.82</ele>
        <time>2011-12-10T14:03:33Z</time>
      </trkpt>
      <trkpt lat="45.29147" lon="4.11741">
        <ele>474.07</ele>
        <time>2011-12-10T14:03:48Z</time>
      </trkpt>
      <trkpt lat="45.29143" lon="4.11737">
        <ele>474.55</ele>
        <time>2011-12-10T14:03:49Z</time>
      </trkpt>
      <trkpt lat="45.29114" lon="4.11677">
        <ele>475.51</ele>
        <time>2011-12-10T14:04:02Z</time>
      </trkpt>
      <trkpt lat="45.29095" lon="4.11612">
        <ele>475.99</ele>
        <time>2011-12-10T14:04:15Z</time>
      </trkpt>
      <trkpt lat="45.29094" lon="4.11552">
        <ele>476.95</ele>
        <time>2011-12-10T14:04:26Z</time>
      </trkpt>
      <trkpt lat="45.29092" lon="4.11547">
        <ele>476.95</ele>
        <time>2011-12-10T14:04:27Z</time>
      </trkpt>
      <trkpt lat="45.2909" lon="4.11542">
        <ele>476.95</ele>
        <time>2011-12-10T14:04:28Z</time>
      </trkpt>
      <trkpt lat="45.29086" lon="4.11538">
        <ele>476.95</ele>
        <time>2011-12-10T14:04:29Z</time>
      </trkpt>
      <trkpt lat="45.29082" lon="4.11536">
        <ele>476.95</ele>
        <time>2011-12-10T14:04:30Z</time>
      </trkpt>
      <trkpt lat="45.29078" lon="4.11534">
        <ele>477.43</ele>
        <time>2011-12-10T14:04:31Z</time>
      </trkpt>
      <trkpt lat="45.29074" lon="4.11533">
        <ele>477.43</ele>
        <time>2011-12-10T14:04:32Z</time>
      </trkpt>
      <trkpt lat="45.2907" lon="4.11533">
        <ele>477.43</ele>
        <time>2011-12-10T14:04:33Z</time>
      </trkpt>
      <trkpt lat="45.29066" lon="4.11532">
        <ele>477.43</ele>
        <time>2011-12-10T14:04:34Z</time>
      </trkpt>
      <trkpt lat="45.29061" lon="4.11531">
        <ele>477.43</ele>
        <time>2011-12-10T14:04:35Z</time>
      </trkpt>
      <trkpt lat="45.29057" lon="4.11528">
        <ele>477.43</ele>
        <time>2011-12-10T14:04:36Z</time>
      </trkpt>
      <trkpt lat="45.29053" lon="4.11526">
        <ele>477.43</ele>
        <time>2011-12-10T14:04:37Z</time>
      </trkpt>
      <trkpt lat="45.29028" lon="4.11505">
        <ele>476.95</ele>
        <time>2011-12-10T14:04:44Z</time>
      </trkpt>
      <trkpt lat="45.29024" lon="4.11503">
        <ele>476.47</ele>
        <time>2011-12-10T14:04:45Z</time>
      </trkpt>
      <trkpt lat="45.29016" lon="4.115">
        <ele>476.47</ele>
        <time>2011-12-10T14:04:47Z</time>
      </trkpt>
      <trkpt lat="45.29012" lon="4.115">
        <ele>475.99</ele>
        <time>2011-12-10T14:04:48Z</time>
      </trkpt>
      <trkpt lat="45.28999" lon="4.11495">
        <ele>475.03</ele>
        <time>2011-12-10T14:04:51Z</time>
      </trkpt>
      <trkpt lat="45.28995" lon="4.11493">
        <ele>475.03</ele>
        <time>2011-12-10T14:04:52Z</time>
      </trkpt>
      <trkpt lat="45.28904" lon="4.11458">
        <ele>470.22</ele>
        <time>2011-12-10T14:05:10Z</time>
      </trkpt>
      <trkpt lat="45.28899" lon="4.11456">
        <ele>469.74</ele>
        <time>2011-12-10T14:05:11Z</time>
      </trkpt>
      <trkpt lat="45.28897" lon="4.11452">
        <ele>469.74</ele>
        <time>2011-12-10T14:05:12Z</time>
      </trkpt>
      <trkpt lat="45.28897" lon="4.11448">
        <ele>469.26</ele>
        <time>2011-12-10T14:05:13Z</time>
      </trkpt>
      <trkpt lat="45.28899" lon="4.11444">
        <ele>469.26</ele>
        <time>2011-12-10T14:05:14Z</time>
      </trkpt>
      <trkpt lat="45.28901" lon="4.11441">
        <ele>469.26</ele>
        <time>2011-12-10T14:05:15Z</time>
      </trkpt>
      <trkpt lat="45.28902" lon="4.11438">
        <ele>469.74</ele>
        <time>2011-12-10T14:05:16Z</time>
      </trkpt>
      <trkpt lat="45.28904" lon="4.11434">
        <ele>469.74</ele>
        <time>2011-12-10T14:05:17Z</time>
      </trkpt>
      <trkpt lat="45.28936" lon="4.11373">
        <ele>473.59</ele>
        <time>2011-12-10T14:05:32Z</time>
      </trkpt>
      <trkpt lat="45.28966" lon="4.11317">
        <ele>477.43</ele>
        <time>2011-12-10T14:05:47Z</time>
      </trkpt>
      <trkpt lat="45.28991" lon="4.1127">
        <ele>481.28</ele>
        <time>2011-12-10T14:06:00Z</time>
      </trkpt>
      <trkpt lat="45.29016" lon="4.11219">
        <ele>484.16</ele>
        <time>2011-12-10T14:06:13Z</time>
      </trkpt>
      <trkpt lat="45.29029" lon="4.11154">
        <ele>486.56</ele>
        <time>2011-12-10T14:06:26Z</time>
      </trkpt>
      <trkpt lat="45.29052" lon="4.11078">
        <ele>488.97</ele>
        <time>2011-12-10T14:06:42Z</time>
      </trkpt>
      <trkpt lat="45.29068" lon="4.1105">
        <ele>487.53</ele>
        <time>2011-12-10T14:06:48Z</time>
      </trkpt>
      <trkpt lat="45.29072" lon="4.11046">
        <ele>487.53</ele>
        <time>2011-12-10T14:06:49Z</time>
      </trkpt>
      <trkpt lat="45.29139" lon="4.10993">
        <ele>488.97</ele>
        <time>2011-12-10T14:07:06Z</time>
      </trkpt>
      <trkpt lat="45.29143" lon="4.1099">
        <ele>488.49</ele>
        <time>2011-12-10T14:07:07Z</time>
      </trkpt>
      <trkpt lat="45.29199" lon="4.10961">
        <ele>490.89</ele>
        <time>2011-12-10T14:07:22Z</time>
      </trkpt>
      <trkpt lat="45.29239" lon="4.10922">
        <ele>495.7</ele>
        <time>2011-12-10T14:07:37Z</time>
      </trkpt>
      <trkpt lat="45.29279" lon="4.10887">
        <ele>499.06</ele>
        <time>2011-12-10T14:07:51Z</time>
      </trkpt>
      <trkpt lat="45.29308" lon="4.10848">
        <ele>500.98</ele>
        <time>2011-12-10T14:08:04Z</time>
      </trkpt>
      <trkpt lat="45.29349" lon="4.10803">
        <ele>501.95</ele>
        <time>2011-12-10T14:08:18Z</time>
      </trkpt>
      <trkpt lat="45.29386" lon="4.10798">
        <ele>505.31</ele>
        <time>2011-12-10T14:08:29Z</time>
      </trkpt>
      <trkpt lat="45.29421" lon="4.10761">
        <ele>507.23</ele>
        <time>2011-12-10T14:08:41Z</time>
      </trkpt>
      <trkpt lat="45.29455" lon="4.10698">
        <ele>508.19</ele>
        <time>2011-12-10T14:08:56Z</time>
      </trkpt>
      <trkpt lat="45.29456" lon="4.1068">
        <ele>507.23</ele>
        <time>2011-12-10T14:08:59Z</time>
      </trkpt>
      <trkpt lat="45.29455" lon="4.10619">
        <ele>506.27</ele>
        <time>2011-12-10T14:09:09Z</time>
      </trkpt>
      <trkpt lat="45.29455" lon="4.10613">
        <ele>506.27</ele>
        <time>2011-12-10T14:09:10Z</time>
      </trkpt>
      <trkpt lat="45.29456" lon="4.10607">
        <ele>506.27</ele>
        <time>2011-12-10T14:09:11Z</time>
      </trkpt>
      <trkpt lat="45.29458" lon="4.10602">
        <ele>505.79</ele>
        <time>2011-12-10T14:09:12Z</time>
      </trkpt>
      <trkpt lat="45.2946" lon="4.10597">
        <ele>506.27</ele>
        <time>2011-12-10T14:09:13Z</time>
      </trkpt>
      <trkpt lat="45.29462" lon="4.10592">
        <ele>506.75</ele>
        <time>2011-12-10T14:09:14Z</time>
      </trkpt>
      <trkpt lat="45.29464" lon="4.10588">
        <ele>507.23</ele>
        <time>2011-12-10T14:09:15Z</time>
      </trkpt>
      <trkpt lat="45.29466" lon="4.10583">
        <ele>507.23</ele>
        <time>2011-12-10T14:09:16Z</time>
      </trkpt>
      <trkpt lat="45.29468" lon="4.10579">
        <ele>507.23</ele>
        <time>2011-12-10T14:09:17Z</time>
      </trkpt>
      <trkpt lat="45.2947" lon="4.10575">
        <ele>507.23</ele>
        <time>2011-12-10T14:09:18Z</time>
      </trkpt>
      <trkpt lat="45.29473" lon="4.10572">
        <ele>507.23</ele>
        <time>2011-12-10T14:09:19Z</time>
      </trkpt>
      <trkpt lat="45.29475" lon="4.10569">
        <ele>507.23</ele>
        <time>2011-12-10T14:09:20Z</time>
      </trkpt>
      <trkpt lat="45.29502" lon="4.10525">
        <ele>510.6</ele>
        <time>2011-12-10T14:09:33Z</time>
      </trkpt>
      <trkpt lat="45.29508" lon="4.10478">
        <ele>513.96</ele>
        <time>2011-12-10T14:09:44Z</time>
      </trkpt>
      <trkpt lat="45.29516" lon="4.1043">
        <ele>517.33</ele>
        <time>2011-12-10T14:09:55Z</time>
      </trkpt>
      <trkpt lat="45.29528" lon="4.10384">
        <ele>521.17</ele>
        <time>2011-12-10T14:10:07Z</time>
      </trkpt>
      <trkpt lat="45.29543" lon="4.10338">
        <ele>522.13</ele>
        <time>2011-12-10T14:10:20Z</time>
      </trkpt>
      <trkpt lat="45.29549" lon="4.10278">
        <ele>523.58</ele>
        <time>2011-12-10T14:10:35Z</time>
      </trkpt>
      <trkpt lat="45.29543" lon="4.10213">
        <ele>525.5</ele>
        <time>2011-12-10T14:10:50Z</time>
      </trkpt>
      <trkpt lat="45.2953" lon="4.10146">
        <ele>524.54</ele>
        <time>2011-12-10T14:11:03Z</time>
      </trkpt>
      <trkpt lat="45.29524" lon="4.10118">
        <ele>524.54</ele>
        <time>2011-12-10T14:11:08Z</time>
      </trkpt>
      <trkpt lat="45.29526" lon="4.10042">
        <ele>524.54</ele>
        <time>2011-12-10T14:11:22Z</time>
      </trkpt>
      <trkpt lat="45.29523" lon="4.09984">
        <ele>525.98</ele>
        <time>2011-12-10T14:11:34Z</time>
      </trkpt>
      <trkpt lat="45.29506" lon="4.09912">
        <ele>526.94</ele>
        <time>2011-12-10T14:11:48Z</time>
      </trkpt>
      <trkpt lat="45.29499" lon="4.0989">
        <ele>526.94</ele>
        <time>2011-12-10T14:11:52Z</time>
      </trkpt>
      <trkpt lat="45.29486" lon="4.09865">
        <ele>525.98</ele>
        <time>2011-12-10T14:11:57Z</time>
      </trkpt>
      <trkpt lat="45.2945" lon="4.09809">
        <ele>526.94</ele>
        <time>2011-12-10T14:12:10Z</time>
      </trkpt>
      <trkpt lat="45.29427" lon="4.09791">
        <ele>526.46</ele>
        <time>2011-12-10T14:12:15Z</time>
      </trkpt>
      <trkpt lat="45.294" lon="4.09761">
        <ele>525.5</ele>
        <time>2011-12-10T14:12:21Z</time>
      </trkpt>
      <trkpt lat="45.29353" lon="4.09711">
        <ele>524.54</ele>
        <time>2011-12-10T14:12:31Z</time>
      </trkpt>
      <trkpt lat="45.29328" lon="4.09693">
        <ele>523.58</ele>
        <time>2011-12-10T14:12:36Z</time>
      </trkpt>
      <trkpt lat="45.29311" lon="4.09686">
        <ele>523.58</ele>
        <time>2011-12-10T14:12:39Z</time>
      </trkpt>
      <trkpt lat="45.29256" lon="4.09695">
        <ele>519.25</ele>
        <time>2011-12-10T14:12:46Z</time>
      </trkpt>
      <trkpt lat="45.2924" lon="4.097">
        <ele>517.81</ele>
        <time>2011-12-10T14:12:48Z</time>
      </trkpt>
      <trkpt lat="45.29214" lon="4.0972">
        <ele>515.88</ele>
        <time>2011-12-10T14:12:52Z</time>
      </trkpt>
      <trkpt lat="45.2919" lon="4.09744">
        <ele>514.92</ele>
        <time>2011-12-10T14:12:57Z</time>
      </trkpt>
      <trkpt lat="45.29169" lon="4.09753">
        <ele>514.44</ele>
        <time>2011-12-10T14:13:01Z</time>
      </trkpt>
      <trkpt lat="45.29129" lon="4.09757">
        <ele>513</ele>
        <time>2011-12-10T14:13:08Z</time>
      </trkpt>
      <trkpt lat="45.29103" lon="4.09772">
        <ele>511.56</ele>
        <time>2011-12-10T14:13:12Z</time>
      </trkpt>
      <trkpt lat="45.29069" lon="4.09787">
        <ele>508.67</ele>
        <time>2011-12-10T14:13:17Z</time>
      </trkpt>
      <trkpt lat="45.2904" lon="4.09792">
        <ele>507.23</ele>
        <time>2011-12-10T14:13:21Z</time>
      </trkpt>
      <trkpt lat="45.29004" lon="4.09792">
        <ele>504.35</ele>
        <time>2011-12-10T14:13:25Z</time>
      </trkpt>
      <trkpt lat="45.28968" lon="4.09761">
        <ele>499.06</ele>
        <time>2011-12-10T14:13:31Z</time>
      </trkpt>
      <trkpt lat="45.28938" lon="4.09635">
        <ele>490.89</ele>
        <time>2011-12-10T14:13:43Z</time>
      </trkpt>
      <trkpt lat="45.28928" lon="4.09612">
        <ele>488.49</ele>
        <time>2011-12-10T14:13:47Z</time>
      </trkpt>
      <trkpt lat="45.28896" lon="4.09587">
        <ele>481.76</ele>
        <time>2011-12-10T14:13:57Z</time>
      </trkpt>
      <trkpt lat="45.28899" lon="4.09566">
        <ele>481.28</ele>
        <time>2011-12-10T14:14:04Z</time>
      </trkpt>
      <trkpt lat="45.28919" lon="4.0951">
        <ele>482.72</ele>
        <time>2011-12-10T14:14:16Z</time>
      </trkpt>
      <trkpt lat="45.28937" lon="4.09465">
        <ele>485.6</ele>
        <time>2011-12-10T14:14:27Z</time>
      </trkpt>
      <trkpt lat="45.28944" lon="4.0945">
        <ele>487.05</ele>
        <time>2011-12-10T14:14:31Z</time>
      </trkpt>
      <trkpt lat="45.28948" lon="4.09437">
        <ele>487.53</ele>
        <time>2011-12-10T14:14:35Z</time>
      </trkpt>
      <trkpt lat="45.28964" lon="4.09402">
        <ele>486.56</ele>
        <time>2011-12-10T14:14:45Z</time>
      </trkpt>
      <trkpt lat="45.28986" lon="4.09362">
        <ele>486.56</ele>
        <time>2011-12-10T14:14:56Z</time>
      </trkpt>
      <trkpt lat="45.29022" lon="4.09319">
        <ele>488.01</ele>
        <time>2011-12-10T14:15:09Z</time>
      </trkpt>
      <trkpt lat="45.29046" lon="4.0929">
        <ele>489.93</ele>
        <time>2011-12-10T14:15:19Z</time>
      </trkpt>
      <trkpt lat="45.2907" lon="4.09257">
        <ele>496.18</ele>
        <time>2011-12-10T14:15:30Z</time>
      </trkpt>
      <trkpt lat="45.2909" lon="4.09239">
        <ele>499.06</ele>
        <time>2011-12-10T14:15:38Z</time>
      </trkpt>
      <trkpt lat="45.29118" lon="4.09204">
        <ele>498.58</ele>
        <time>2011-12-10T14:15:49Z</time>
      </trkpt>
      <trkpt lat="45.2914" lon="4.09177">
        <ele>497.62</ele>
        <time>2011-12-10T14:15:59Z</time>
      </trkpt>
      <trkpt lat="45.2917" lon="4.09153">
        <ele>499.06</ele>
        <time>2011-12-10T14:16:08Z</time>
      </trkpt>
      <trkpt lat="45.29183" lon="4.09138">
        <ele>500.02</ele>
        <time>2011-12-10T14:16:13Z</time>
      </trkpt>
      <trkpt lat="45.29196" lon="4.09114">
        <ele>499.54</ele>
        <time>2011-12-10T14:16:20Z</time>
      </trkpt>
      <trkpt lat="45.29204" lon="4.09102">
        <ele>500.02</ele>
        <time>2011-12-10T14:16:24Z</time>
      </trkpt>
      <trkpt lat="45.2921" lon="4.09098">
        <ele>500.98</ele>
        <time>2011-12-10T14:16:26Z</time>
      </trkpt>
      <trkpt lat="45.29221" lon="4.09084">
        <ele>503.39</ele>
        <time>2011-12-10T14:16:31Z</time>
      </trkpt>
      <trkpt lat="45.29227" lon="4.09073">
        <ele>505.79</ele>
        <time>2011-12-10T14:16:35Z</time>
      </trkpt>
      <trkpt lat="45.29232" lon="4.09061">
        <ele>506.75</ele>
        <time>2011-12-10T14:16:39Z</time>
      </trkpt>
      <trkpt lat="45.29243" lon="4.09038">
        <ele>507.23</ele>
        <time>2011-12-10T14:16:48Z</time>
      </trkpt>
      <trkpt lat="45.29251" lon="4.09007">
        <ele>508.67</ele>
        <time>2011-12-10T14:16:58Z</time>
      </trkpt>
      <trkpt lat="45.29271" lon="4.08975">
        <ele>511.56</ele>
        <time>2011-12-10T14:17:09Z</time>
      </trkpt>
      <trkpt lat="45.29298" lon="4.08936">
        <ele>514.44</ele>
        <time>2011-12-10T14:17:22Z</time>
      </trkpt>
      <trkpt lat="45.29324" lon="4.08904">
        <ele>515.4</ele>
        <time>2011-12-10T14:17:35Z</time>
      </trkpt>
      <trkpt lat="45.29337" lon="4.08886">
        <ele>517.33</ele>
        <time>2011-12-10T14:17:42Z</time>
      </trkpt>
      <trkpt lat="45.29343" lon="4.08875">
        <ele>518.77</ele>
        <time>2011-12-10T14:17:47Z</time>
      </trkpt>
      <trkpt lat="45.29352" lon="4.08857">
        <ele>521.65</ele>
        <time>2011-12-10T14:17:54Z</time>
      </trkpt>
      <trkpt lat="45.29355" lon="4.08849">
        <ele>522.61</ele>
        <time>2011-12-10T14:17:57Z</time>
      </trkpt>
      <trkpt lat="45.29362" lon="4.08838">
        <ele>524.54</ele>
        <time>2011-12-10T14:18:02Z</time>
      </trkpt>
      <trkpt lat="45.29367" lon="4.08832">
        <ele>525.02</ele>
        <time>2011-12-10T14:18:06Z</time>
      </trkpt>
      <trkpt lat="45.29364" lon="4.0883">
        <ele>525.98</ele>
        <time>2011-12-10T14:18:10Z</time>
      </trkpt>
      <trkpt lat="45.29359" lon="4.08833">
        <ele>528.38</ele>
        <time>2011-12-10T14:18:13Z</time>
      </trkpt>
      <trkpt lat="45.29351" lon="4.08837">
        <ele>531.27</ele>
        <time>2011-12-10T14:18:18Z</time>
      </trkpt>
      <trkpt lat="45.2934" lon="4.08834">
        <ele>533.19</ele>
        <time>2011-12-10T14:18:26Z</time>
      </trkpt>
      <trkpt lat="45.29333" lon="4.08832">
        <ele>533.67</ele>
        <time>2011-12-10T14:18:34Z</time>
      </trkpt>
      <trkpt lat="45.29318" lon="4.0882">
        <ele>536.07</ele>
        <time>2011-12-10T14:18:47Z</time>
      </trkpt>
      <trkpt lat="45.29314" lon="4.08821">
        <ele>536.07</ele>
        <time>2011-12-10T14:18:52Z</time>
      </trkpt>
      <trkpt lat="45.29307" lon="4.08819">
        <ele>535.11</ele>
        <time>2011-12-10T14:18:57Z</time>
      </trkpt>
      <trkpt lat="45.29299" lon="4.0882">
        <ele>535.59</ele>
        <time>2011-12-10T14:19:04Z</time>
      </trkpt>
      <trkpt lat="45.29285" lon="4.08817">
        <ele>537.99</ele>
        <time>2011-12-10T14:19:14Z</time>
      </trkpt>
      <trkpt lat="45.29274" lon="4.08821">
        <ele>539.44</ele>
        <time>2011-12-10T14:19:23Z</time>
      </trkpt>
      <trkpt lat="45.29272" lon="4.08822">
        <ele>538.96</ele>
        <time>2011-12-10T14:19:25Z</time>
      </trkpt>
      <trkpt lat="45.29263" lon="4.08831">
        <ele>538.96</ele>
        <time>2011-12-10T14:19:32Z</time>
      </trkpt>
      <trkpt lat="45.29246" lon="4.08838">
        <ele>541.84</ele>
        <time>2011-12-10T14:19:41Z</time>
      </trkpt>
      <trkpt lat="45.29236" lon="4.08848">
        <ele>543.76</ele>
        <time>2011-12-10T14:19:48Z</time>
      </trkpt>
      <trkpt lat="45.29223" lon="4.08857">
        <ele>546.65</ele>
        <time>2011-12-10T14:19:58Z</time>
      </trkpt>
      <trkpt lat="45.2921" lon="4.08867">
        <ele>549.53</ele>
        <time>2011-12-10T14:20:07Z</time>
      </trkpt>
      <trkpt lat="45.29205" lon="4.08873">
        <ele>550.49</ele>
        <time>2011-12-10T14:20:12Z</time>
      </trkpt>
      <trkpt lat="45.29195" lon="4.08882">
        <ele>552.41</ele>
        <time>2011-12-10T14:20:21Z</time>
      </trkpt>
      <trkpt lat="45.29191" lon="4.08884">
        <ele>553.38</ele>
        <time>2011-12-10T14:20:24Z</time>
      </trkpt>
      <trkpt lat="45.29189" lon="4.08887">
        <ele>553.38</ele>
        <time>2011-12-10T14:20:27Z</time>
      </trkpt>
      <trkpt lat="45.29177" lon="4.08897">
        <ele>556.26</ele>
        <time>2011-12-10T14:20:37Z</time>
      </trkpt>
      <trkpt lat="45.29169" lon="4.08908">
        <ele>562.51</ele>
        <time>2011-12-10T14:20:48Z</time>
      </trkpt>
      <trkpt lat="45.29162" lon="4.08916">
        <ele>567.32</ele>
        <time>2011-12-10T14:20:58Z</time>
      </trkpt>
      <trkpt lat="45.29151" lon="4.08928">
        <ele>573.08</ele>
        <time>2011-12-10T14:21:07Z</time>
      </trkpt>
      <trkpt lat="45.29148" lon="4.08933">
        <ele>574.53</ele>
        <time>2011-12-10T14:21:11Z</time>
      </trkpt>
      <trkpt lat="45.29141" lon="4.08934">
        <ele>575.01</ele>
        <time>2011-12-10T14:21:15Z</time>
      </trkpt>
      <trkpt lat="45.29139" lon="4.08935">
        <ele>575.01</ele>
        <time>2011-12-10T14:21:17Z</time>
      </trkpt>
      <trkpt lat="45.29129" lon="4.08938">
        <ele>575.49</ele>
        <time>2011-12-10T14:21:22Z</time>
      </trkpt>
      <trkpt lat="45.29115" lon="4.08938">
        <ele>577.41</ele>
        <time>2011-12-10T14:21:30Z</time>
      </trkpt>
      <trkpt lat="45.29104" lon="4.08939">
        <ele>578.37</ele>
        <time>2011-12-10T14:21:39Z</time>
      </trkpt>
      <trkpt lat="45.29102" lon="4.08939">
        <ele>579.33</ele>
        <time>2011-12-10T14:21:42Z</time>
      </trkpt>
      <trkpt lat="45.29093" lon="4.08936">
        <ele>580.29</ele>
        <time>2011-12-10T14:21:48Z</time>
      </trkpt>
      <trkpt lat="45.29087" lon="4.08935">
        <ele>580.77</ele>
        <time>2011-12-10T14:21:52Z</time>
      </trkpt>
      <trkpt lat="45.29083" lon="4.08935">
        <ele>580.29</ele>
        <time>2011-12-10T14:21:54Z</time>
      </trkpt>
      <trkpt lat="45.2907" lon="4.08933">
        <ele>581.25</ele>
        <time>2011-12-10T14:22:01Z</time>
      </trkpt>
      <trkpt lat="45.29061" lon="4.08933">
        <ele>580.29</ele>
        <time>2011-12-10T14:22:06Z</time>
      </trkpt>
      <trkpt lat="45.29035" lon="4.08928">
        <ele>582.22</ele>
        <time>2011-12-10T14:22:21Z</time>
      </trkpt>
      <trkpt lat="45.29034" lon="4.08926">
        <ele>582.22</ele>
        <time>2011-12-10T14:22:23Z</time>
      </trkpt>
      <trkpt lat="45.29031" lon="4.08925">
        <ele>582.7</ele>
        <time>2011-12-10T14:22:25Z</time>
      </trkpt>
      <trkpt lat="45.29007" lon="4.08922">
        <ele>584.62</ele>
        <time>2011-12-10T14:22:38Z</time>
      </trkpt>
      <trkpt lat="45.28989" lon="4.0891">
        <ele>585.1</ele>
        <time>2011-12-10T14:22:49Z</time>
      </trkpt>
      <trkpt lat="45.28966" lon="4.08894">
        <ele>587.02</ele>
        <time>2011-12-10T14:23:01Z</time>
      </trkpt>
      <trkpt lat="45.28948" lon="4.08879">
        <ele>587.5</ele>
        <time>2011-12-10T14:23:11Z</time>
      </trkpt>
      <trkpt lat="45.28927" lon="4.08867">
        <ele>586.06</ele>
        <time>2011-12-10T14:23:23Z</time>
      </trkpt>
      <trkpt lat="45.2891" lon="4.08848">
        <ele>584.62</ele>
        <time>2011-12-10T14:23:30Z</time>
      </trkpt>
      <trkpt lat="45.28892" lon="4.08815">
        <ele>583.18</ele>
        <time>2011-12-10T14:23:36Z</time>
      </trkpt>
      <trkpt lat="45.28877" lon="4.08746">
        <ele>578.37</ele>
        <time>2011-12-10T14:23:43Z</time>
      </trkpt>
      <trkpt lat="45.28879" lon="4.0871">
        <ele>575.01</ele>
        <time>2011-12-10T14:23:47Z</time>
      </trkpt>
      <trkpt lat="45.28863" lon="4.08702">
        <ele>572.6</ele>
        <time>2011-12-10T14:23:54Z</time>
      </trkpt>
      <trkpt lat="45.28849" lon="4.08703">
        <ele>573.56</ele>
        <time>2011-12-10T14:24:02Z</time>
      </trkpt>
      <trkpt lat="45.28846" lon="4.08704">
        <ele>574.04</ele>
        <time>2011-12-10T14:24:04Z</time>
      </trkpt>
      <trkpt lat="45.28831" lon="4.08705">
        <ele>576.93</ele>
        <time>2011-12-10T14:24:15Z</time>
      </trkpt>
      <trkpt lat="45.28811" lon="4.08704">
        <ele>580.29</ele>
        <time>2011-12-10T14:24:26Z</time>
      </trkpt>
      <trkpt lat="45.288" lon="4.08702">
        <ele>583.18</ele>
        <time>2011-12-10T14:24:34Z</time>
      </trkpt>
      <trkpt lat="45.28783" lon="4.08701">
        <ele>587.02</ele>
        <time>2011-12-10T14:24:44Z</time>
      </trkpt>
      <trkpt lat="45.28775" lon="4.08701">
        <ele>588.95</ele>
        <time>2011-12-10T14:24:49Z</time>
      </trkpt>
      <trkpt lat="45.28758" lon="4.08702">
        <ele>591.35</ele>
        <time>2011-12-10T14:25:01Z</time>
      </trkpt>
      <trkpt lat="45.28743" lon="4.08705">
        <ele>591.35</ele>
        <time>2011-12-10T14:25:11Z</time>
      </trkpt>
      <trkpt lat="45.28722" lon="4.08721">
        <ele>592.79</ele>
        <time>2011-12-10T14:25:22Z</time>
      </trkpt>
      <trkpt lat="45.28716" lon="4.08727">
        <ele>593.75</ele>
        <time>2011-12-10T14:25:26Z</time>
      </trkpt>
      <trkpt lat="45.28708" lon="4.08731">
        <ele>595.67</ele>
        <time>2011-12-10T14:25:31Z</time>
      </trkpt>
      <trkpt lat="45.2869" lon="4.08719">
        <ele>596.15</ele>
        <time>2011-12-10T14:25:39Z</time>
      </trkpt>
      <trkpt lat="45.28686" lon="4.08703">
        <ele>595.67</ele>
        <time>2011-12-10T14:25:42Z</time>
      </trkpt>
      <trkpt lat="45.28682" lon="4.08685">
        <ele>594.71</ele>
        <time>2011-12-10T14:25:45Z</time>
      </trkpt>
      <trkpt lat="45.28656" lon="4.08627">
        <ele>594.23</ele>
        <time>2011-12-10T14:25:57Z</time>
      </trkpt>
      <trkpt lat="45.28623" lon="4.08613">
        <ele>595.67</ele>
        <time>2011-12-10T14:26:08Z</time>
      </trkpt>
      <trkpt lat="45.28593" lon="4.08599">
        <ele>598.08</ele>
        <time>2011-12-10T14:26:20Z</time>
      </trkpt>
      <trkpt lat="45.28568" lon="4.08584">
        <ele>599.04</ele>
        <time>2011-12-10T14:26:31Z</time>
      </trkpt>
      <trkpt lat="45.2854" lon="4.08548">
        <ele>602.4</ele>
        <time>2011-12-10T14:26:44Z</time>
      </trkpt>
      <trkpt lat="45.28518" lon="4.08497">
        <ele>602.88</ele>
        <time>2011-12-10T14:26:56Z</time>
      </trkpt>
      <trkpt lat="45.28493" lon="4.08439">
        <ele>603.36</ele>
        <time>2011-12-10T14:27:09Z</time>
      </trkpt>
      <trkpt lat="45.28491" lon="4.08434">
        <ele>603.36</ele>
        <time>2011-12-10T14:27:10Z</time>
      </trkpt>
      <trkpt lat="45.28474" lon="4.08401">
        <ele>602.88</ele>
        <time>2011-12-10T14:27:17Z</time>
      </trkpt>
      <trkpt lat="45.2845" lon="4.08342">
        <ele>603.36</ele>
        <time>2011-12-10T14:27:30Z</time>
      </trkpt>
      <trkpt lat="45.28449" lon="4.08337">
        <ele>603.36</ele>
        <time>2011-12-10T14:27:31Z</time>
      </trkpt>
      <trkpt lat="45.28444" lon="4.08315">
        <ele>603.36</ele>
        <time>2011-12-10T14:27:35Z</time>
      </trkpt>
      <trkpt lat="45.28433" lon="4.08254">
        <ele>605.29</ele>
        <time>2011-12-10T14:27:48Z</time>
      </trkpt>
      <trkpt lat="45.28431" lon="4.08197">
        <ele>604.81</ele>
        <time>2011-12-10T14:27:59Z</time>
      </trkpt>
      <trkpt lat="45.28413" lon="4.08132">
        <ele>607.21</ele>
        <time>2011-12-10T14:28:14Z</time>
      </trkpt>
      <trkpt lat="45.2841" lon="4.08086">
        <ele>608.17</ele>
        <time>2011-12-10T14:28:25Z</time>
      </trkpt>
      <trkpt lat="45.28413" lon="4.08071">
        <ele>609.13</ele>
        <time>2011-12-10T14:28:29Z</time>
      </trkpt>
      <trkpt lat="45.28413" lon="4.08038">
        <ele>612.98</ele>
        <time>2011-12-10T14:28:38Z</time>
      </trkpt>
      <trkpt lat="45.28418" lon="4.08008">
        <ele>616.34</ele>
        <time>2011-12-10T14:28:47Z</time>
      </trkpt>
      <trkpt lat="45.28411" lon="4.07985">
        <ele>619.71</ele>
        <time>2011-12-10T14:28:56Z</time>
      </trkpt>
      <trkpt lat="45.28408" lon="4.07986">
        <ele>619.71</ele>
        <time>2011-12-10T14:28:57Z</time>
      </trkpt>
      <trkpt lat="45.28383" lon="4.07997">
        <ele>623.07</ele>
        <time>2011-12-10T14:29:09Z</time>
      </trkpt>
      <trkpt lat="45.28356" lon="4.08022">
        <ele>624.99</ele>
        <time>2011-12-10T14:29:22Z</time>
      </trkpt>
      <trkpt lat="45.28332" lon="4.08044">
        <ele>625.47</ele>
        <time>2011-12-10T14:29:33Z</time>
      </trkpt>
      <trkpt lat="45.28297" lon="4.08053">
        <ele>624.99</ele>
        <time>2011-12-10T14:29:43Z</time>
      </trkpt>
      <trkpt lat="45.28259" lon="4.0806">
        <ele>624.03</ele>
        <time>2011-12-10T14:29:55Z</time>
      </trkpt>
      <trkpt lat="45.28232" lon="4.08091">
        <ele>624.03</ele>
        <time>2011-12-10T14:30:05Z</time>
      </trkpt>
      <trkpt lat="45.28207" lon="4.08117">
        <ele>623.07</ele>
        <time>2011-12-10T14:30:11Z</time>
      </trkpt>
      <trkpt lat="45.28202" lon="4.08122">
        <ele>622.59</ele>
        <time>2011-12-10T14:30:12Z</time>
      </trkpt>
      <trkpt lat="45.28186" lon="4.08135">
        <ele>622.11</ele>
        <time>2011-12-10T14:30:15Z</time>
      </trkpt>
      <trkpt lat="45.2817" lon="4.08143">
        <ele>621.15</ele>
        <time>2011-12-10T14:30:18Z</time>
      </trkpt>
      <trkpt lat="45.28129" lon="4.08155">
        <ele>618.26</ele>
        <time>2011-12-10T14:30:24Z</time>
      </trkpt>
      <trkpt lat="45.28066" lon="4.0816">
        <ele>612.98</ele>
        <time>2011-12-10T14:30:31Z</time>
      </trkpt>
      <trkpt lat="45.28056" lon="4.08164">
        <ele>612.5</ele>
        <time>2011-12-10T14:30:32Z</time>
      </trkpt>
      <trkpt lat="45.28048" lon="4.08171">
        <ele>612.02</ele>
        <time>2011-12-10T14:30:33Z</time>
      </trkpt>
      <trkpt lat="45.28041" lon="4.08181">
        <ele>611.54</ele>
        <time>2011-12-10T14:30:34Z</time>
      </trkpt>
      <trkpt lat="45.28036" lon="4.08193">
        <ele>610.57</ele>
        <time>2011-12-10T14:30:35Z</time>
      </trkpt>
      <trkpt lat="45.28033" lon="4.08207">
        <ele>610.09</ele>
        <time>2011-12-10T14:30:36Z</time>
      </trkpt>
      <trkpt lat="45.28033" lon="4.08221">
        <ele>609.13</ele>
        <time>2011-12-10T14:30:37Z</time>
      </trkpt>
      <trkpt lat="45.28036" lon="4.08234">
        <ele>608.17</ele>
        <time>2011-12-10T14:30:38Z</time>
      </trkpt>
      <trkpt lat="45.28038" lon="4.08243">
        <ele>607.69</ele>
        <time>2011-12-10T14:30:39Z</time>
      </trkpt>
      <trkpt lat="45.28039" lon="4.0825">
        <ele>606.73</ele>
        <time>2011-12-10T14:30:40Z</time>
      </trkpt>
      <trkpt lat="45.28028" lon="4.08268">
        <ele>604.33</ele>
        <time>2011-12-10T14:30:43Z</time>
      </trkpt>
      <trkpt lat="45.28015" lon="4.08278">
        <ele>602.88</ele>
        <time>2011-12-10T14:30:46Z</time>
      </trkpt>
      <trkpt lat="45.28001" lon="4.08288">
        <ele>602.88</ele>
        <time>2011-12-10T14:30:49Z</time>
      </trkpt>
      <trkpt lat="45.27989" lon="4.08301">
        <ele>602.88</ele>
        <time>2011-12-10T14:30:52Z</time>
      </trkpt>
      <trkpt lat="45.27971" lon="4.08333">
        <ele>603.36</ele>
        <time>2011-12-10T14:30:58Z</time>
      </trkpt>
      <trkpt lat="45.27961" lon="4.08355">
        <ele>603.85</ele>
        <time>2011-12-10T14:31:02Z</time>
      </trkpt>
      <trkpt lat="45.27948" lon="4.08383">
        <ele>603.85</ele>
        <time>2011-12-10T14:31:07Z</time>
      </trkpt>
      <trkpt lat="45.27942" lon="4.0841">
        <ele>602.88</ele>
        <time>2011-12-10T14:31:11Z</time>
      </trkpt>
      <trkpt lat="45.27935" lon="4.08482">
        <ele>601.44</ele>
        <time>2011-12-10T14:31:20Z</time>
      </trkpt>
      <trkpt lat="45.27958" lon="4.08578">
        <ele>600</ele>
        <time>2011-12-10T14:31:32Z</time>
      </trkpt>
      <trkpt lat="45.27963" lon="4.08612">
        <ele>599.04</ele>
        <time>2011-12-10T14:31:36Z</time>
      </trkpt>
      <trkpt lat="45.27979" lon="4.08648">
        <ele>597.6</ele>
        <time>2011-12-10T14:31:41Z</time>
      </trkpt>
      <trkpt lat="45.27998" lon="4.08674">
        <ele>595.67</ele>
        <time>2011-12-10T14:31:45Z</time>
      </trkpt>
      <trkpt lat="45.28013" lon="4.08741">
        <ele>593.75</ele>
        <time>2011-12-10T14:31:52Z</time>
      </trkpt>
      <trkpt lat="45.28024" lon="4.08775">
        <ele>592.79</ele>
        <time>2011-12-10T14:31:56Z</time>
      </trkpt>
      <trkpt lat="45.2804" lon="4.08802">
        <ele>592.31</ele>
        <time>2011-12-10T14:32:00Z</time>
      </trkpt>
      <trkpt lat="45.28063" lon="4.08859">
        <ele>592.31</ele>
        <time>2011-12-10T14:32:07Z</time>
      </trkpt>
      <trkpt lat="45.28074" lon="4.08931">
        <ele>594.23</ele>
        <time>2011-12-10T14:32:19Z</time>
      </trkpt>
      <trkpt lat="45.28075" lon="4.08937">
        <ele>594.23</ele>
        <time>2011-12-10T14:32:20Z</time>
      </trkpt>
      <trkpt lat="45.28073" lon="4.08966">
        <ele>592.31</ele>
        <time>2011-12-10T14:32:24Z</time>
      </trkpt>
      <trkpt lat="45.28078" lon="4.09027">
        <ele>595.67</ele>
        <time>2011-12-10T14:32:35Z</time>
      </trkpt>
      <trkpt lat="45.28085" lon="4.09068">
        <ele>598.08</ele>
        <time>2011-12-10T14:32:45Z</time>
      </trkpt>
      <trkpt lat="45.28082" lon="4.09097">
        <ele>597.6</ele>
        <time>2011-12-10T14:32:55Z</time>
      </trkpt>
      <trkpt lat="45.28083" lon="4.09114">
        <ele>597.6</ele>
        <time>2011-12-10T14:32:59Z</time>
      </trkpt>
      <trkpt lat="45.28081" lon="4.09144">
        <ele>594.71</ele>
        <time>2011-12-10T14:33:05Z</time>
      </trkpt>
      <trkpt lat="45.28072" lon="4.09174">
        <ele>590.87</ele>
        <time>2011-12-10T14:33:15Z</time>
      </trkpt>
      <trkpt lat="45.28065" lon="4.09196">
        <ele>589.91</ele>
        <time>2011-12-10T14:33:21Z</time>
      </trkpt>
      <trkpt lat="45.28058" lon="4.09212">
        <ele>587.5</ele>
        <time>2011-12-10T14:33:27Z</time>
      </trkpt>
      <trkpt lat="45.28047" lon="4.09232">
        <ele>584.14</ele>
        <time>2011-12-10T14:33:34Z</time>
      </trkpt>
      <trkpt lat="45.28041" lon="4.09246">
        <ele>579.81</ele>
        <time>2011-12-10T14:33:39Z</time>
      </trkpt>
      <trkpt lat="45.28037" lon="4.09278">
        <ele>573.08</ele>
        <time>2011-12-10T14:33:48Z</time>
      </trkpt>
      <trkpt lat="45.28044" lon="4.09307">
        <ele>569.72</ele>
        <time>2011-12-10T14:33:54Z</time>
      </trkpt>
      <trkpt lat="45.28055" lon="4.09321">
        <ele>569.24</ele>
        <time>2011-12-10T14:33:58Z</time>
      </trkpt>
      <trkpt lat="45.28073" lon="4.0934">
        <ele>568.76</ele>
        <time>2011-12-10T14:34:02Z</time>
      </trkpt>
      <trkpt lat="45.2809" lon="4.09369">
        <ele>564.43</ele>
        <time>2011-12-10T14:34:09Z</time>
      </trkpt>
      <trkpt lat="45.28108" lon="4.09381">
        <ele>560.11</ele>
        <time>2011-12-10T14:34:14Z</time>
      </trkpt>
      <trkpt lat="45.28118" lon="4.0939">
        <ele>558.66</ele>
        <time>2011-12-10T14:34:16Z</time>
      </trkpt>
      <trkpt lat="45.28129" lon="4.09398">
        <ele>557.22</ele>
        <time>2011-12-10T14:34:18Z</time>
      </trkpt>
      <trkpt lat="45.28141" lon="4.09405">
        <ele>555.78</ele>
        <time>2011-12-10T14:34:20Z</time>
      </trkpt>
      <trkpt lat="45.28171" lon="4.09423">
        <ele>551.45</ele>
        <time>2011-12-10T14:34:25Z</time>
      </trkpt>
      <trkpt lat="45.28229" lon="4.09461">
        <ele>540.4</ele>
        <time>2011-12-10T14:34:34Z</time>
      </trkpt>
      <trkpt lat="45.28253" lon="4.09474">
        <ele>536.07</ele>
        <time>2011-12-10T14:34:37Z</time>
      </trkpt>
      <trkpt lat="45.28272" lon="4.09503">
        <ele>530.79</ele>
        <time>2011-12-10T14:34:41Z</time>
      </trkpt>
      <trkpt lat="45.28308" lon="4.0965">
        <ele>519.73</ele>
        <time>2011-12-10T14:34:53Z</time>
      </trkpt>
      <trkpt lat="45.2833" lon="4.09745">
        <ele>515.88</ele>
        <time>2011-12-10T14:35:01Z</time>
      </trkpt>
      <trkpt lat="45.28355" lon="4.09768">
        <ele>513</ele>
        <time>2011-12-10T14:35:07Z</time>
      </trkpt>
      <trkpt lat="45.28386" lon="4.09755">
        <ele>509.64</ele>
        <time>2011-12-10T14:35:12Z</time>
      </trkpt>
      <trkpt lat="45.28408" lon="4.09732">
        <ele>506.75</ele>
        <time>2011-12-10T14:35:16Z</time>
      </trkpt>
      <trkpt lat="45.28446" lon="4.09734">
        <ele>501.46</ele>
        <time>2011-12-10T14:35:22Z</time>
      </trkpt>
      <trkpt lat="45.2845" lon="4.09799">
        <ele>497.14</ele>
        <time>2011-12-10T14:35:27Z</time>
      </trkpt>
      <trkpt lat="45.28424" lon="4.09836">
        <ele>489.93</ele>
        <time>2011-12-10T14:35:32Z</time>
      </trkpt>
      <trkpt lat="45.28437" lon="4.09846">
        <ele>484.64</ele>
        <time>2011-12-10T14:35:37Z</time>
      </trkpt>
      <trkpt lat="45.28461" lon="4.09844">
        <ele>481.28</ele>
        <time>2011-12-10T14:35:42Z</time>
      </trkpt>
      <trkpt lat="45.28455" lon="4.09872">
        <ele>476.47</ele>
        <time>2011-12-10T14:35:49Z</time>
      </trkpt>
      <trkpt lat="45.2845" lon="4.09874">
        <ele>475.51</ele>
        <time>2011-12-10T14:35:52Z</time>
      </trkpt>
      <trkpt lat="45.28425" lon="4.09888">
        <ele>474.55</ele>
        <time>2011-12-10T14:36:02Z</time>
      </trkpt>
      <trkpt lat="45.28418" lon="4.0989">
        <ele>474.55</ele>
        <time>2011-12-10T14:36:04Z</time>
      </trkpt>
      <trkpt lat="45.28409" lon="4.09894">
        <ele>474.07</ele>
        <time>2011-12-10T14:36:06Z</time>
      </trkpt>
      <trkpt lat="45.28371" lon="4.09928">
        <ele>472.14</ele>
        <time>2011-12-10T14:36:14Z</time>
      </trkpt>
      <trkpt lat="45.2836" lon="4.09938">
        <ele>471.66</ele>
        <time>2011-12-10T14:36:16Z</time>
      </trkpt>
      <trkpt lat="45.28354" lon="4.09944">
        <ele>471.66</ele>
        <time>2011-12-10T14:36:17Z</time>
      </trkpt>
      <trkpt lat="45.28346" lon="4.09954">
        <ele>471.18</ele>
        <time>2011-12-10T14:36:19Z</time>
      </trkpt>
      <trkpt lat="45.28342" lon="4.09959">
        <ele>470.7</ele>
        <time>2011-12-10T14:36:20Z</time>
      </trkpt>
      <trkpt lat="45.28336" lon="4.09968">
        <ele>469.74</ele>
        <time>2011-12-10T14:36:22Z</time>
      </trkpt>
      <trkpt lat="45.28328" lon="4.09984">
        <ele>468.3</ele>
        <time>2011-12-10T14:36:26Z</time>
      </trkpt>
      <trkpt lat="45.28317" lon="4.10013">
        <ele>466.38</ele>
        <time>2011-12-10T14:36:32Z</time>
      </trkpt>
      <trkpt lat="45.28314" lon="4.10025">
        <ele>465.42</ele>
        <time>2011-12-10T14:36:34Z</time>
      </trkpt>
      <trkpt lat="45.28313" lon="4.10031">
        <ele>464.93</ele>
        <time>2011-12-10T14:36:35Z</time>
      </trkpt>
      <trkpt lat="45.2831" lon="4.10038">
        <ele>464.45</ele>
        <time>2011-12-10T14:36:36Z</time>
      </trkpt>
      <trkpt lat="45.28307" lon="4.10045">
        <ele>463.97</ele>
        <time>2011-12-10T14:36:37Z</time>
      </trkpt>
      <trkpt lat="45.28302" lon="4.10052">
        <ele>463.49</ele>
        <time>2011-12-10T14:36:38Z</time>
      </trkpt>
      <trkpt lat="45.28297" lon="4.10058">
        <ele>463.01</ele>
        <time>2011-12-10T14:36:39Z</time>
      </trkpt>
      <trkpt lat="45.28292" lon="4.10064">
        <ele>462.53</ele>
        <time>2011-12-10T14:36:40Z</time>
      </trkpt>
      <trkpt lat="45.28228" lon="4.10145">
        <ele>457.24</ele>
        <time>2011-12-10T14:36:53Z</time>
      </trkpt>
      <trkpt lat="45.28218" lon="4.10157">
        <ele>456.76</ele>
        <time>2011-12-10T14:36:55Z</time>
      </trkpt>
      <trkpt lat="45.28202" lon="4.10172">
        <ele>456.28</ele>
        <time>2011-12-10T14:36:58Z</time>
      </trkpt>
      <trkpt lat="45.28178" lon="4.102">
        <ele>454.36</ele>
        <time>2011-12-10T14:37:03Z</time>
      </trkpt>
      <trkpt lat="45.28152" lon="4.10217">
        <ele>452.92</ele>
        <time>2011-12-10T14:37:08Z</time>
      </trkpt>
      <trkpt lat="45.28143" lon="4.10221">
        <ele>452.92</ele>
        <time>2011-12-10T14:37:10Z</time>
      </trkpt>
      <trkpt lat="45.28125" lon="4.10233">
        <ele>453.88</ele>
        <time>2011-12-10T14:37:15Z</time>
      </trkpt>
      <trkpt lat="45.28088" lon="4.10258">
        <ele>452.92</ele>
        <time>2011-12-10T14:37:29Z</time>
      </trkpt>
      <trkpt lat="45.28087" lon="4.10267">
        <ele>453.4</ele>
        <time>2011-12-10T14:37:32Z</time>
      </trkpt>
      <trkpt lat="45.28085" lon="4.10286">
        <ele>453.4</ele>
        <time>2011-12-10T14:37:38Z</time>
      </trkpt>
      <trkpt lat="45.28079" lon="4.10337">
        <ele>451.48</ele>
        <time>2011-12-10T14:37:48Z</time>
      </trkpt>
      <trkpt lat="45.28083" lon="4.10395">
        <ele>451</ele>
        <time>2011-12-10T14:38:01Z</time>
      </trkpt>
      <trkpt lat="45.28084" lon="4.10433">
        <ele>448.59</ele>
        <time>2011-12-10T14:38:10Z</time>
      </trkpt>
      <trkpt lat="45.28085" lon="4.10458">
        <ele>447.15</ele>
        <time>2011-12-10T14:38:19Z</time>
      </trkpt>
      <trkpt lat="45.2809" lon="4.1047">
        <ele>446.67</ele>
        <time>2011-12-10T14:38:24Z</time>
      </trkpt>
      <trkpt lat="45.28099" lon="4.10484">
        <ele>448.11</ele>
        <time>2011-12-10T14:38:33Z</time>
      </trkpt>
      <trkpt lat="45.28094" lon="4.1049">
        <ele>451.96</ele>
        <time>2011-12-10T14:38:40Z</time>
      </trkpt>
      <trkpt lat="45.28075" lon="4.10482">
        <ele>453.4</ele>
        <time>2011-12-10T14:38:50Z</time>
      </trkpt>
      <trkpt lat="45.28048" lon="4.1047">
        <ele>452.44</ele>
        <time>2011-12-10T14:39:05Z</time>
      </trkpt>
      <trkpt lat="45.28022" lon="4.10449">
        <ele>454.84</ele>
        <time>2011-12-10T14:39:19Z</time>
      </trkpt>
      <trkpt lat="45.28" lon="4.10427">
        <ele>457.24</ele>
        <time>2011-12-10T14:39:31Z</time>
      </trkpt>
      <trkpt lat="45.27989" lon="4.10412">
        <ele>458.69</ele>
        <time>2011-12-10T14:39:37Z</time>
      </trkpt>
      <trkpt lat="45.27969" lon="4.10391">
        <ele>460.13</ele>
        <time>2011-12-10T14:39:48Z</time>
      </trkpt>
      <trkpt lat="45.27945" lon="4.10369">
        <ele>459.65</ele>
        <time>2011-12-10T14:40:00Z</time>
      </trkpt>
      <trkpt lat="45.27917" lon="4.10346">
        <ele>461.09</ele>
        <time>2011-12-10T14:40:13Z</time>
      </trkpt>
      <trkpt lat="45.2789" lon="4.10324">
        <ele>466.38</ele>
        <time>2011-12-10T14:40:27Z</time>
      </trkpt>
      <trkpt lat="45.27876" lon="4.10299">
        <ele>466.38</ele>
        <time>2011-12-10T14:40:35Z</time>
      </trkpt>
      <trkpt lat="45.27861" lon="4.10288">
        <ele>465.9</ele>
        <time>2011-12-10T14:40:41Z</time>
      </trkpt>
      <trkpt lat="45.27834" lon="4.10288">
        <ele>470.22</ele>
        <time>2011-12-10T14:40:54Z</time>
      </trkpt>
      <trkpt lat="45.27808" lon="4.10278">
        <ele>478.39</ele>
        <time>2011-12-10T14:41:06Z</time>
      </trkpt>
      <trkpt lat="45.27779" lon="4.10269">
        <ele>483.2</ele>
        <time>2011-12-10T14:41:21Z</time>
      </trkpt>
      <trkpt lat="45.27751" lon="4.10274">
        <ele>485.12</ele>
        <time>2011-12-10T14:41:36Z</time>
      </trkpt>
      <trkpt lat="45.27729" lon="4.10297">
        <ele>488.49</ele>
        <time>2011-12-10T14:41:51Z</time>
      </trkpt>
      <trkpt lat="45.27709" lon="4.10308">
        <ele>491.85</ele>
        <time>2011-12-10T14:42:03Z</time>
      </trkpt>
      <trkpt lat="45.27693" lon="4.1032">
        <ele>493.77</ele>
        <time>2011-12-10T14:42:14Z</time>
      </trkpt>
      <trkpt lat="45.27678" lon="4.10326">
        <ele>494.74</ele>
        <time>2011-12-10T14:42:24Z</time>
      </trkpt>
      <trkpt lat="45.27673" lon="4.1033">
        <ele>495.22</ele>
        <time>2011-12-10T14:42:28Z</time>
      </trkpt>
      <trkpt lat="45.27656" lon="4.10345">
        <ele>500.5</ele>
        <time>2011-12-10T14:42:39Z</time>
      </trkpt>
      <trkpt lat="45.27645" lon="4.10357">
        <ele>503.39</ele>
        <time>2011-12-10T14:42:49Z</time>
      </trkpt>
      <trkpt lat="45.2764" lon="4.10361">
        <ele>504.35</ele>
        <time>2011-12-10T14:42:53Z</time>
      </trkpt>
      <trkpt lat="45.27635" lon="4.10367">
        <ele>505.79</ele>
        <time>2011-12-10T14:42:57Z</time>
      </trkpt>
      <trkpt lat="45.27629" lon="4.10374">
        <ele>507.23</ele>
        <time>2011-12-10T14:43:02Z</time>
      </trkpt>
      <trkpt lat="45.27616" lon="4.1039">
        <ele>511.08</ele>
        <time>2011-12-10T14:43:14Z</time>
      </trkpt>
      <trkpt lat="45.27611" lon="4.10395">
        <ele>512.04</ele>
        <time>2011-12-10T14:43:18Z</time>
      </trkpt>
      <trkpt lat="45.27605" lon="4.10402">
        <ele>513.48</ele>
        <time>2011-12-10T14:43:23Z</time>
      </trkpt>
      <trkpt lat="45.27601" lon="4.10409">
        <ele>513.96</ele>
        <time>2011-12-10T14:43:27Z</time>
      </trkpt>
      <trkpt lat="45.27584" lon="4.10433">
        <ele>515.88</ele>
        <time>2011-12-10T14:43:42Z</time>
      </trkpt>
      <trkpt lat="45.27566" lon="4.1045">
        <ele>517.33</ele>
        <time>2011-12-10T14:43:55Z</time>
      </trkpt>
      <trkpt lat="45.27543" lon="4.1047">
        <ele>518.29</ele>
        <time>2011-12-10T14:44:10Z</time>
      </trkpt>
      <trkpt lat="45.27514" lon="4.10492">
        <ele>520.69</ele>
        <time>2011-12-10T14:44:26Z</time>
      </trkpt>
      <trkpt lat="45.27483" lon="4.10511">
        <ele>522.13</ele>
        <time>2011-12-10T14:44:40Z</time>
      </trkpt>
      <trkpt lat="45.27447" lon="4.10528">
        <ele>525.02</ele>
        <time>2011-12-10T14:44:55Z</time>
      </trkpt>
      <trkpt lat="45.27415" lon="4.10544">
        <ele>526.46</ele>
        <time>2011-12-10T14:45:10Z</time>
      </trkpt>
      <trkpt lat="45.27378" lon="4.1056">
        <ele>529.82</ele>
        <time>2011-12-10T14:45:25Z</time>
      </trkpt>
      <trkpt lat="45.27352" lon="4.10574">
        <ele>530.79</ele>
        <time>2011-12-10T14:45:36Z</time>
      </trkpt>
      <trkpt lat="45.27318" lon="4.10585">
        <ele>534.63</ele>
        <time>2011-12-10T14:45:50Z</time>
      </trkpt>
      <trkpt lat="45.27278" lon="4.10601">
        <ele>537.51</ele>
        <time>2011-12-10T14:46:08Z</time>
      </trkpt>
      <trkpt lat="45.27241" lon="4.10608">
        <ele>539.44</ele>
        <time>2011-12-10T14:46:25Z</time>
      </trkpt>
      <trkpt lat="45.2721" lon="4.10617">
        <ele>542.8</ele>
        <time>2011-12-10T14:46:39Z</time>
      </trkpt>
      <trkpt lat="45.27178" lon="4.10619">
        <ele>546.65</ele>
        <time>2011-12-10T14:46:54Z</time>
      </trkpt>
      <trkpt lat="45.27176" lon="4.10619">
        <ele>547.13</ele>
        <time>2011-12-10T14:46:55Z</time>
      </trkpt>
      <trkpt lat="45.27169" lon="4.10622">
        <ele>547.13</ele>
        <time>2011-12-10T14:46:59Z</time>
      </trkpt>
      <trkpt lat="45.27143" lon="4.10625">
        <ele>550.49</ele>
        <time>2011-12-10T14:47:13Z</time>
      </trkpt>
      <trkpt lat="45.27132" lon="4.10625">
        <ele>552.41</ele>
        <time>2011-12-10T14:47:19Z</time>
      </trkpt>
      <trkpt lat="45.27119" lon="4.10629">
        <ele>554.34</ele>
        <time>2011-12-10T14:47:26Z</time>
      </trkpt>
      <trkpt lat="45.27089" lon="4.10637">
        <ele>556.26</ele>
        <time>2011-12-10T14:47:41Z</time>
      </trkpt>
      <trkpt lat="45.27057" lon="4.10642">
        <ele>558.18</ele>
        <time>2011-12-10T14:47:55Z</time>
      </trkpt>
      <trkpt lat="45.27019" lon="4.10642">
        <ele>558.18</ele>
        <time>2011-12-10T14:48:08Z</time>
      </trkpt>
      <trkpt lat="45.26974" lon="4.10636">
        <ele>557.7</ele>
        <time>2011-12-10T14:48:21Z</time>
      </trkpt>
      <trkpt lat="45.26926" lon="4.10618">
        <ele>559.14</ele>
        <time>2011-12-10T14:48:35Z</time>
      </trkpt>
      <trkpt lat="45.26887" lon="4.10594">
        <ele>561.07</ele>
        <time>2011-12-10T14:48:48Z</time>
      </trkpt>
      <trkpt lat="45.26845" lon="4.10566">
        <ele>562.99</ele>
        <time>2011-12-10T14:49:02Z</time>
      </trkpt>
      <trkpt lat="45.26787" lon="4.1055">
        <ele>564.91</ele>
        <time>2011-12-10T14:49:18Z</time>
      </trkpt>
      <trkpt lat="45.26732" lon="4.10528">
        <ele>568.76</ele>
        <time>2011-12-10T14:49:34Z</time>
      </trkpt>
      <trkpt lat="45.26691" lon="4.10515">
        <ele>569.72</ele>
        <time>2011-12-10T14:49:47Z</time>
      </trkpt>
      <trkpt lat="45.26661" lon="4.10525">
        <ele>570.2</ele>
        <time>2011-12-10T14:49:57Z</time>
      </trkpt>
      <trkpt lat="45.26628" lon="4.10554">
        <ele>570.68</ele>
        <time>2011-12-10T14:50:10Z</time>
      </trkpt>
      <trkpt lat="45.26621" lon="4.10561">
        <ele>571.16</ele>
        <time>2011-12-10T14:50:12Z</time>
      </trkpt>
      <trkpt lat="45.26618" lon="4.10565">
        <ele>571.16</ele>
        <time>2011-12-10T14:50:13Z</time>
      </trkpt>
      <trkpt lat="45.26615" lon="4.10569">
        <ele>571.16</ele>
        <time>2011-12-10T14:50:14Z</time>
      </trkpt>
      <trkpt lat="45.26611" lon="4.10573">
        <ele>571.16</ele>
        <time>2011-12-10T14:50:15Z</time>
      </trkpt>
      <trkpt lat="45.26608" lon="4.10577">
        <ele>571.16</ele>
        <time>2011-12-10T14:50:16Z</time>
      </trkpt>
      <trkpt lat="45.26604" lon="4.1058">
        <ele>570.68</ele>
        <time>2011-12-10T14:50:17Z</time>
      </trkpt>
      <trkpt lat="45.26599" lon="4.10584">
        <ele>570.2</ele>
        <time>2011-12-10T14:50:18Z</time>
      </trkpt>
      <trkpt lat="45.26595" lon="4.10588">
        <ele>569.72</ele>
        <time>2011-12-10T14:50:19Z</time>
      </trkpt>
      <trkpt lat="45.26591" lon="4.10592">
        <ele>569.72</ele>
        <time>2011-12-10T14:50:20Z</time>
      </trkpt>
      <trkpt lat="45.26586" lon="4.10597">
        <ele>569.72</ele>
        <time>2011-12-10T14:50:21Z</time>
      </trkpt>
      <trkpt lat="45.26576" lon="4.10606">
        <ele>569.24</ele>
        <time>2011-12-10T14:50:23Z</time>
      </trkpt>
      <trkpt lat="45.26571" lon="4.10612">
        <ele>569.24</ele>
        <time>2011-12-10T14:50:24Z</time>
      </trkpt>
      <trkpt lat="45.26566" lon="4.10616">
        <ele>569.24</ele>
        <time>2011-12-10T14:50:25Z</time>
      </trkpt>
      <trkpt lat="45.26495" lon="4.10684">
        <ele>566.83</ele>
        <time>2011-12-10T14:50:37Z</time>
      </trkpt>
      <trkpt lat="45.26488" lon="4.10687">
        <ele>566.35</ele>
        <time>2011-12-10T14:50:38Z</time>
      </trkpt>
      <trkpt lat="45.26481" lon="4.10687">
        <ele>566.35</ele>
        <time>2011-12-10T14:50:39Z</time>
      </trkpt>
      <trkpt lat="45.26467" lon="4.10683">
        <ele>565.87</ele>
        <time>2011-12-10T14:50:41Z</time>
      </trkpt>
      <trkpt lat="45.26454" lon="4.10682">
        <ele>565.39</ele>
        <time>2011-12-10T14:50:43Z</time>
      </trkpt>
      <trkpt lat="45.26448" lon="4.10682">
        <ele>564.91</ele>
        <time>2011-12-10T14:50:44Z</time>
      </trkpt>
      <trkpt lat="45.26411" lon="4.1068">
        <ele>562.99</ele>
        <time>2011-12-10T14:50:50Z</time>
      </trkpt>
      <trkpt lat="45.26406" lon="4.10678">
        <ele>562.99</ele>
        <time>2011-12-10T14:50:51Z</time>
      </trkpt>
      <trkpt lat="45.264" lon="4.10677">
        <ele>562.51</ele>
        <time>2011-12-10T14:50:52Z</time>
      </trkpt>
      <trkpt lat="45.26394" lon="4.10675">
        <ele>562.51</ele>
        <time>2011-12-10T14:50:53Z</time>
      </trkpt>
      <trkpt lat="45.26389" lon="4.10674">
        <ele>562.51</ele>
        <time>2011-12-10T14:50:54Z</time>
      </trkpt>
      <trkpt lat="45.26366" lon="4.10665">
        <ele>560.59</ele>
        <time>2011-12-10T14:51:02Z</time>
      </trkpt>
      <trkpt lat="45.26345" lon="4.10664">
        <ele>559.62</ele>
        <time>2011-12-10T14:51:11Z</time>
      </trkpt>
      <trkpt lat="45.26342" lon="4.10664">
        <ele>559.14</ele>
        <time>2011-12-10T14:51:15Z</time>
      </trkpt>
      <trkpt lat="45.26324" lon="4.10659">
        <ele>557.22</ele>
        <time>2011-12-10T14:51:23Z</time>
      </trkpt>
      <trkpt lat="45.26291" lon="4.10654">
        <ele>556.74</ele>
        <time>2011-12-10T14:51:32Z</time>
      </trkpt>
      <trkpt lat="45.26249" lon="4.10649">
        <ele>556.26</ele>
        <time>2011-12-10T14:51:42Z</time>
      </trkpt>
      <trkpt lat="45.26219" lon="4.10647">
        <ele>554.82</ele>
        <time>2011-12-10T14:51:50Z</time>
      </trkpt>
      <trkpt lat="45.26209" lon="4.1065">
        <ele>555.3</ele>
        <time>2011-12-10T14:51:54Z</time>
      </trkpt>
      <trkpt lat="45.2616" lon="4.10616">
        <ele>554.34</ele>
        <time>2011-12-10T14:52:08Z</time>
      </trkpt>
      <trkpt lat="45.26102" lon="4.10571">
        <ele>553.86</ele>
        <time>2011-12-10T14:52:21Z</time>
      </trkpt>
      <trkpt lat="45.26069" lon="4.10547">
        <ele>552.9</ele>
        <time>2011-12-10T14:52:28Z</time>
      </trkpt>
      <trkpt lat="45.26051" lon="4.10534">
        <ele>552.41</ele>
        <time>2011-12-10T14:52:32Z</time>
      </trkpt>
      <trkpt lat="45.26009" lon="4.10515">
        <ele>551.93</ele>
        <time>2011-12-10T14:52:41Z</time>
      </trkpt>
      <trkpt lat="45.26" lon="4.10513">
        <ele>551.93</ele>
        <time>2011-12-10T14:52:43Z</time>
      </trkpt>
      <trkpt lat="45.25995" lon="4.10512">
        <ele>551.93</ele>
        <time>2011-12-10T14:52:44Z</time>
      </trkpt>
      <trkpt lat="45.25959" lon="4.10482">
        <ele>552.41</ele>
        <time>2011-12-10T14:52:55Z</time>
      </trkpt>
      <trkpt lat="45.25933" lon="4.1045">
        <ele>553.38</ele>
        <time>2011-12-10T14:53:03Z</time>
      </trkpt>
      <trkpt lat="45.25931" lon="4.10446">
        <ele>553.38</ele>
        <time>2011-12-10T14:53:04Z</time>
      </trkpt>
      <trkpt lat="45.25929" lon="4.1044">
        <ele>553.86</ele>
        <time>2011-12-10T14:53:05Z</time>
      </trkpt>
      <trkpt lat="45.25928" lon="4.10435">
        <ele>553.86</ele>
        <time>2011-12-10T14:53:06Z</time>
      </trkpt>
      <trkpt lat="45.25928" lon="4.10429">
        <ele>553.38</ele>
        <time>2011-12-10T14:53:07Z</time>
      </trkpt>
      <trkpt lat="45.25928" lon="4.10424">
        <ele>553.38</ele>
        <time>2011-12-10T14:53:08Z</time>
      </trkpt>
      <trkpt lat="45.25929" lon="4.10419">
        <ele>553.38</ele>
        <time>2011-12-10T14:53:09Z</time>
      </trkpt>
      <trkpt lat="45.25931" lon="4.10414">
        <ele>553.38</ele>
        <time>2011-12-10T14:53:10Z</time>
      </trkpt>
      <trkpt lat="45.25938" lon="4.10389">
        <ele>552.9</ele>
        <time>2011-12-10T14:53:15Z</time>
      </trkpt>
      <trkpt lat="45.25938" lon="4.10383">
        <ele>552.9</ele>
        <time>2011-12-10T14:53:16Z</time>
      </trkpt>
      <trkpt lat="45.25938" lon="4.10377">
        <ele>552.9</ele>
        <time>2011-12-10T14:53:17Z</time>
      </trkpt>
      <trkpt lat="45.25938" lon="4.10371">
        <ele>552.9</ele>
        <time>2011-12-10T14:53:18Z</time>
      </trkpt>
      <trkpt lat="45.25938" lon="4.10366">
        <ele>552.41</ele>
        <time>2011-12-10T14:53:19Z</time>
      </trkpt>
      <trkpt lat="45.25938" lon="4.1036">
        <ele>552.41</ele>
        <time>2011-12-10T14:53:20Z</time>
      </trkpt>
      <trkpt lat="45.25938" lon="4.10354">
        <ele>552.41</ele>
        <time>2011-12-10T14:53:21Z</time>
      </trkpt>
      <trkpt lat="45.25938" lon="4.10348">
        <ele>552.41</ele>
        <time>2011-12-10T14:53:22Z</time>
      </trkpt>
      <trkpt lat="45.2594" lon="4.10272">
        <ele>550.01</ele>
        <time>2011-12-10T14:53:32Z</time>
      </trkpt>
      <trkpt lat="45.25942" lon="4.10265">
        <ele>550.01</ele>
        <time>2011-12-10T14:53:33Z</time>
      </trkpt>
      <trkpt lat="45.25946" lon="4.1026">
        <ele>549.53</ele>
        <time>2011-12-10T14:53:34Z</time>
      </trkpt>
      <trkpt lat="45.25978" lon="4.10213">
        <ele>550.01</ele>
        <time>2011-12-10T14:53:44Z</time>
      </trkpt>
      <trkpt lat="45.25981" lon="4.10208">
        <ele>550.01</ele>
        <time>2011-12-10T14:53:45Z</time>
      </trkpt>
      <trkpt lat="45.2599" lon="4.10194">
        <ele>550.97</ele>
        <time>2011-12-10T14:53:48Z</time>
      </trkpt>
      <trkpt lat="45.26005" lon="4.10174">
        <ele>551.45</ele>
        <time>2011-12-10T14:53:53Z</time>
      </trkpt>
      <trkpt lat="45.2601" lon="4.10172">
        <ele>551.45</ele>
        <time>2011-12-10T14:53:54Z</time>
      </trkpt>
      <trkpt lat="45.26014" lon="4.10171">
        <ele>551.45</ele>
        <time>2011-12-10T14:53:55Z</time>
      </trkpt>
      <trkpt lat="45.26019" lon="4.1017">
        <ele>550.97</ele>
        <time>2011-12-10T14:53:56Z</time>
      </trkpt>
      <trkpt lat="45.26023" lon="4.10169">
        <ele>550.97</ele>
        <time>2011-12-10T14:53:57Z</time>
      </trkpt>
      <trkpt lat="45.26028" lon="4.10169">
        <ele>550.49</ele>
        <time>2011-12-10T14:53:58Z</time>
      </trkpt>
      <trkpt lat="45.26033" lon="4.1017">
        <ele>550.49</ele>
        <time>2011-12-10T14:53:59Z</time>
      </trkpt>
      <trkpt lat="45.26037" lon="4.10171">
        <ele>550.49</ele>
        <time>2011-12-10T14:54:00Z</time>
      </trkpt>
      <trkpt lat="45.26052" lon="4.10173">
        <ele>550.49</ele>
        <time>2011-12-10T14:54:03Z</time>
      </trkpt>
      <trkpt lat="45.26056" lon="4.10172">
        <ele>550.49</ele>
        <time>2011-12-10T14:54:04Z</time>
      </trkpt>
      <trkpt lat="45.2606" lon="4.10171">
        <ele>550.49</ele>
        <time>2011-12-10T14:54:05Z</time>
      </trkpt>
      <trkpt lat="45.26064" lon="4.10169">
        <ele>550.49</ele>
        <time>2011-12-10T14:54:06Z</time>
      </trkpt>
      <trkpt lat="45.26068" lon="4.10167">
        <ele>550.49</ele>
        <time>2011-12-10T14:54:07Z</time>
      </trkpt>
      <trkpt lat="45.2607" lon="4.10166">
        <ele>550.49</ele>
        <time>2011-12-10T14:54:08Z</time>
      </trkpt>
      <trkpt lat="45.26072" lon="4.10164">
        <ele>550.01</ele>
        <time>2011-12-10T14:54:09Z</time>
      </trkpt>
      <trkpt lat="45.26074" lon="4.10161">
        <ele>550.01</ele>
        <time>2011-12-10T14:54:10Z</time>
      </trkpt>
      <trkpt lat="45.26075" lon="4.10156">
        <ele>549.53</ele>
        <time>2011-12-10T14:54:11Z</time>
      </trkpt>
      <trkpt lat="45.26076" lon="4.10152">
        <ele>550.01</ele>
        <time>2011-12-10T14:54:12Z</time>
      </trkpt>
      <trkpt lat="45.26075" lon="4.10146">
        <ele>550.01</ele>
        <time>2011-12-10T14:54:13Z</time>
      </trkpt>
      <trkpt lat="45.26074" lon="4.10142">
        <ele>550.01</ele>
        <time>2011-12-10T14:54:14Z</time>
      </trkpt>
      <trkpt lat="45.26067" lon="4.10121">
        <ele>550.01</ele>
        <time>2011-12-10T14:54:18Z</time>
      </trkpt>
      <trkpt lat="45.26053" lon="4.10089">
        <ele>549.05</ele>
        <time>2011-12-10T14:54:23Z</time>
      </trkpt>
      <trkpt lat="45.26051" lon="4.10082">
        <ele>549.05</ele>
        <time>2011-12-10T14:54:24Z</time>
      </trkpt>
      <trkpt lat="45.2605" lon="4.10073">
        <ele>548.57</ele>
        <time>2011-12-10T14:54:25Z</time>
      </trkpt>
      <trkpt lat="45.26051" lon="4.10064">
        <ele>548.09</ele>
        <time>2011-12-10T14:54:26Z</time>
      </trkpt>
      <trkpt lat="45.26053" lon="4.10054">
        <ele>547.61</ele>
        <time>2011-12-10T14:54:27Z</time>
      </trkpt>
      <trkpt lat="45.26055" lon="4.10044">
        <ele>547.13</ele>
        <time>2011-12-10T14:54:28Z</time>
      </trkpt>
      <trkpt lat="45.26057" lon="4.10033">
        <ele>546.65</ele>
        <time>2011-12-10T14:54:29Z</time>
      </trkpt>
      <trkpt lat="45.26082" lon="4.09942">
        <ele>544.72</ele>
        <time>2011-12-10T14:54:38Z</time>
      </trkpt>
      <trkpt lat="45.26084" lon="4.09933">
        <ele>544.24</ele>
        <time>2011-12-10T14:54:39Z</time>
      </trkpt>
      <trkpt lat="45.26084" lon="4.09925">
        <ele>544.72</ele>
        <time>2011-12-10T14:54:40Z</time>
      </trkpt>
      <trkpt lat="45.26084" lon="4.09917">
        <ele>544.72</ele>
        <time>2011-12-10T14:54:41Z</time>
      </trkpt>
      <trkpt lat="45.26084" lon="4.09909">
        <ele>545.2</ele>
        <time>2011-12-10T14:54:42Z</time>
      </trkpt>
      <trkpt lat="45.26083" lon="4.09901">
        <ele>545.2</ele>
        <time>2011-12-10T14:54:43Z</time>
      </trkpt>
      <trkpt lat="45.26077" lon="4.0988">
        <ele>545.69</ele>
        <time>2011-12-10T14:54:46Z</time>
      </trkpt>
      <trkpt lat="45.26075" lon="4.09874">
        <ele>545.69</ele>
        <time>2011-12-10T14:54:47Z</time>
      </trkpt>
      <trkpt lat="45.26069" lon="4.09862">
        <ele>546.17</ele>
        <time>2011-12-10T14:54:49Z</time>
      </trkpt>
      <trkpt lat="45.26066" lon="4.09857">
        <ele>546.65</ele>
        <time>2011-12-10T14:54:50Z</time>
      </trkpt>
      <trkpt lat="45.26062" lon="4.09852">
        <ele>546.65</ele>
        <time>2011-12-10T14:54:51Z</time>
      </trkpt>
      <trkpt lat="45.26045" lon="4.0983">
        <ele>547.13</ele>
        <time>2011-12-10T14:54:56Z</time>
      </trkpt>
      <trkpt lat="45.2602" lon="4.09789">
        <ele>549.53</ele>
        <time>2011-12-10T14:55:09Z</time>
      </trkpt>
      <trkpt lat="45.25995" lon="4.09722">
        <ele>550.01</ele>
        <time>2011-12-10T14:55:25Z</time>
      </trkpt>
      <trkpt lat="45.25979" lon="4.09648">
        <ele>553.86</ele>
        <time>2011-12-10T14:55:42Z</time>
      </trkpt>
      <trkpt lat="45.25995" lon="4.09591">
        <ele>556.26</ele>
        <time>2011-12-10T14:55:57Z</time>
      </trkpt>
      <trkpt lat="45.26014" lon="4.09555">
        <ele>559.14</ele>
        <time>2011-12-10T14:56:11Z</time>
      </trkpt>
      <trkpt lat="45.26033" lon="4.09519">
        <ele>563.95</ele>
        <time>2011-12-10T14:56:26Z</time>
      </trkpt>
      <trkpt lat="45.26051" lon="4.09488">
        <ele>565.87</ele>
        <time>2011-12-10T14:56:40Z</time>
      </trkpt>
      <trkpt lat="45.26072" lon="4.09447">
        <ele>570.2</ele>
        <time>2011-12-10T14:56:56Z</time>
      </trkpt>
      <trkpt lat="45.26084" lon="4.09391">
        <ele>572.12</ele>
        <time>2011-12-10T14:57:14Z</time>
      </trkpt>
      <trkpt lat="45.26085" lon="4.0935">
        <ele>573.56</ele>
        <time>2011-12-10T14:57:27Z</time>
      </trkpt>
      <trkpt lat="45.26083" lon="4.09349">
        <ele>574.04</ele>
        <time>2011-12-10T14:57:28Z</time>
      </trkpt>
      <trkpt lat="45.26081" lon="4.09348">
        <ele>574.53</ele>
        <time>2011-12-10T14:57:29Z</time>
      </trkpt>
      <trkpt lat="45.26079" lon="4.09349">
        <ele>574.53</ele>
        <time>2011-12-10T14:57:30Z</time>
      </trkpt>
      <trkpt lat="45.26077" lon="4.0935">
        <ele>574.53</ele>
        <time>2011-12-10T14:57:31Z</time>
      </trkpt>
      <trkpt lat="45.26044" lon="4.09367">
        <ele>575.97</ele>
        <time>2011-12-10T14:57:43Z</time>
      </trkpt>
      <trkpt lat="45.26004" lon="4.09361">
        <ele>579.33</ele>
        <time>2011-12-10T14:57:57Z</time>
      </trkpt>
      <trkpt lat="45.25982" lon="4.09329">
        <ele>580.77</ele>
        <time>2011-12-10T14:58:09Z</time>
      </trkpt>
      <trkpt lat="45.25952" lon="4.09297">
        <ele>583.66</ele>
        <time>2011-12-10T14:58:24Z</time>
      </trkpt>
      <trkpt lat="45.25909" lon="4.09283">
        <ele>585.1</ele>
        <time>2011-12-10T14:58:40Z</time>
      </trkpt>
      <trkpt lat="45.25871" lon="4.09307">
        <ele>584.62</ele>
        <time>2011-12-10T14:58:54Z</time>
      </trkpt>
      <trkpt lat="45.25853" lon="4.0929">
        <ele>586.06</ele>
        <time>2011-12-10T14:59:03Z</time>
      </trkpt>
      <trkpt lat="45.25836" lon="4.09261">
        <ele>587.98</ele>
        <time>2011-12-10T14:59:15Z</time>
      </trkpt>
      <trkpt lat="45.25818" lon="4.09231">
        <ele>587.5</ele>
        <time>2011-12-10T14:59:27Z</time>
      </trkpt>
      <trkpt lat="45.25796" lon="4.09198">
        <ele>592.79</ele>
        <time>2011-12-10T14:59:42Z</time>
      </trkpt>
      <trkpt lat="45.25785" lon="4.09179">
        <ele>595.19</ele>
        <time>2011-12-10T14:59:51Z</time>
      </trkpt>
      <trkpt lat="45.25784" lon="4.09177">
        <ele>595.67</ele>
        <time>2011-12-10T14:59:52Z</time>
      </trkpt>
      <trkpt lat="45.25784" lon="4.09175">
        <ele>595.67</ele>
        <time>2011-12-10T14:59:53Z</time>
      </trkpt>
      <trkpt lat="45.25784" lon="4.09172">
        <ele>595.67</ele>
        <time>2011-12-10T14:59:54Z</time>
      </trkpt>
      <trkpt lat="45.25783" lon="4.0917">
        <ele>595.67</ele>
        <time>2011-12-10T14:59:55Z</time>
      </trkpt>
      <trkpt lat="45.25783" lon="4.09167">
        <ele>595.67</ele>
        <time>2011-12-10T14:59:56Z</time>
      </trkpt>
      <trkpt lat="45.25781" lon="4.09139">
        <ele>599.52</ele>
        <time>2011-12-10T15:00:08Z</time>
      </trkpt>
      <trkpt lat="45.25774" lon="4.09111">
        <ele>601.92</ele>
        <time>2011-12-10T15:00:22Z</time>
      </trkpt>
      <trkpt lat="45.25768" lon="4.09091">
        <ele>602.4</ele>
        <time>2011-12-10T15:00:32Z</time>
      </trkpt>
      <trkpt lat="45.25768" lon="4.0909">
        <ele>602.4</ele>
        <time>2011-12-10T15:00:33Z</time>
      </trkpt>
      <trkpt lat="45.25768" lon="4.09088">
        <ele>602.4</ele>
        <time>2011-12-10T15:00:34Z</time>
      </trkpt>
      <trkpt lat="45.25767" lon="4.09087">
        <ele>602.4</ele>
        <time>2011-12-10T15:00:35Z</time>
      </trkpt>
      <trkpt lat="45.25766" lon="4.09085">
        <ele>602.88</ele>
        <time>2011-12-10T15:00:36Z</time>
      </trkpt>
      <trkpt lat="45.25766" lon="4.09083">
        <ele>602.88</ele>
        <time>2011-12-10T15:00:37Z</time>
      </trkpt>
      <trkpt lat="45.25765" lon="4.09081">
        <ele>602.88</ele>
        <time>2011-12-10T15:00:38Z</time>
      </trkpt>
      <trkpt lat="45.25764" lon="4.09079">
        <ele>602.88</ele>
        <time>2011-12-10T15:00:39Z</time>
      </trkpt>
      <trkpt lat="45.25759" lon="4.09061">
        <ele>603.85</ele>
        <time>2011-12-10T15:00:49Z</time>
      </trkpt>
      <trkpt lat="45.25758" lon="4.0906">
        <ele>604.33</ele>
        <time>2011-12-10T15:00:50Z</time>
      </trkpt>
      <trkpt lat="45.25758" lon="4.09058">
        <ele>604.33</ele>
        <time>2011-12-10T15:00:51Z</time>
      </trkpt>
      <trkpt lat="45.25757" lon="4.09053">
        <ele>604.81</ele>
        <time>2011-12-10T15:00:54Z</time>
      </trkpt>
      <trkpt lat="45.25757" lon="4.0905">
        <ele>605.29</ele>
        <time>2011-12-10T15:00:57Z</time>
      </trkpt>
      <trkpt lat="45.25756" lon="4.09048">
        <ele>605.77</ele>
        <time>2011-12-10T15:01:00Z</time>
      </trkpt>
      <trkpt lat="45.25757" lon="4.09046">
        <ele>605.77</ele>
        <time>2011-12-10T15:01:02Z</time>
      </trkpt>
      <trkpt lat="45.25757" lon="4.09037">
        <ele>606.25</ele>
        <time>2011-12-10T15:01:06Z</time>
      </trkpt>
      <trkpt lat="45.25758" lon="4.0903">
        <ele>607.21</ele>
        <time>2011-12-10T15:01:10Z</time>
      </trkpt>
      <trkpt lat="45.25757" lon="4.09023">
        <ele>608.17</ele>
        <time>2011-12-10T15:01:13Z</time>
      </trkpt>
      <trkpt lat="45.25761" lon="4.09004">
        <ele>610.57</ele>
        <time>2011-12-10T15:01:24Z</time>
      </trkpt>
      <trkpt lat="45.25763" lon="4.08999">
        <ele>610.09</ele>
        <time>2011-12-10T15:01:27Z</time>
      </trkpt>
      <trkpt lat="45.25764" lon="4.08991">
        <ele>609.13</ele>
        <time>2011-12-10T15:01:32Z</time>
      </trkpt>
      <trkpt lat="45.25768" lon="4.08985">
        <ele>609.13</ele>
        <time>2011-12-10T15:01:36Z</time>
      </trkpt>
      <trkpt lat="45.25768" lon="4.08981">
        <ele>609.61</ele>
        <time>2011-12-10T15:01:38Z</time>
      </trkpt>
      <trkpt lat="45.2577" lon="4.08976">
        <ele>610.57</ele>
        <time>2011-12-10T15:01:42Z</time>
      </trkpt>
      <trkpt lat="45.25773" lon="4.08967">
        <ele>612.5</ele>
        <time>2011-12-10T15:01:47Z</time>
      </trkpt>
      <trkpt lat="45.25777" lon="4.08961">
        <ele>613.46</ele>
        <time>2011-12-10T15:01:51Z</time>
      </trkpt>
      <trkpt lat="45.25781" lon="4.08954">
        <ele>614.42</ele>
        <time>2011-12-10T15:01:55Z</time>
      </trkpt>
      <trkpt lat="45.25785" lon="4.08951">
        <ele>614.9</ele>
        <time>2011-12-10T15:01:58Z</time>
      </trkpt>
      <trkpt lat="45.25794" lon="4.08937">
        <ele>619.71</ele>
        <time>2011-12-10T15:02:08Z</time>
      </trkpt>
      <trkpt lat="45.25804" lon="4.08916">
        <ele>621.15</ele>
        <time>2011-12-10T15:02:19Z</time>
      </trkpt>
      <trkpt lat="45.25807" lon="4.0891">
        <ele>622.11</ele>
        <time>2011-12-10T15:02:31Z</time>
      </trkpt>
      <trkpt lat="45.25813" lon="4.08896">
        <ele>622.11</ele>
        <time>2011-12-10T15:02:43Z</time>
      </trkpt>
      <trkpt lat="45.25813" lon="4.08891">
        <ele>623.07</ele>
        <time>2011-12-10T15:02:47Z</time>
      </trkpt>
      <trkpt lat="45.25815" lon="4.0888">
        <ele>627.88</ele>
        <time>2011-12-10T15:02:56Z</time>
      </trkpt>
      <trkpt lat="45.25816" lon="4.08869">
        <ele>632.2</ele>
        <time>2011-12-10T15:03:06Z</time>
      </trkpt>
      <trkpt lat="45.25814" lon="4.0885">
        <ele>638.45</ele>
        <time>2011-12-10T15:03:19Z</time>
      </trkpt>
      <trkpt lat="45.25813" lon="4.08842">
        <ele>639.89</ele>
        <time>2011-12-10T15:03:31Z</time>
      </trkpt>
      <trkpt lat="45.25811" lon="4.08828">
        <ele>639.89</ele>
        <time>2011-12-10T15:03:43Z</time>
      </trkpt>
      <trkpt lat="45.25811" lon="4.08819">
        <ele>638.93</ele>
        <time>2011-12-10T15:03:56Z</time>
      </trkpt>
      <trkpt lat="45.25809" lon="4.08809">
        <ele>638.45</ele>
        <time>2011-12-10T15:04:04Z</time>
      </trkpt>
      <trkpt lat="45.2581" lon="4.08803">
        <ele>637.49</ele>
        <time>2011-12-10T15:04:07Z</time>
      </trkpt>
      <trkpt lat="45.2581" lon="4.0879">
        <ele>637.01</ele>
        <time>2011-12-10T15:04:13Z</time>
      </trkpt>
      <trkpt lat="45.25811" lon="4.08786">
        <ele>638.45</ele>
        <time>2011-12-10T15:04:15Z</time>
      </trkpt>
      <trkpt lat="45.25813" lon="4.08775">
        <ele>641.82</ele>
        <time>2011-12-10T15:04:25Z</time>
      </trkpt>
      <trkpt lat="45.2582" lon="4.08766">
        <ele>646.14</ele>
        <time>2011-12-10T15:04:38Z</time>
      </trkpt>
      <trkpt lat="45.25825" lon="4.08754">
        <ele>647.1</ele>
        <time>2011-12-10T15:04:51Z</time>
      </trkpt>
      <trkpt lat="45.25828" lon="4.08745">
        <ele>648.07</ele>
        <time>2011-12-10T15:04:55Z</time>
      </trkpt>
      <trkpt lat="45.25834" lon="4.08724">
        <ele>647.59</ele>
        <time>2011-12-10T15:05:06Z</time>
      </trkpt>
      <trkpt lat="45.25842" lon="4.08703">
        <ele>647.59</ele>
        <time>2011-12-10T15:05:17Z</time>
      </trkpt>
      <trkpt lat="45.25842" lon="4.08699">
        <ele>649.03</ele>
        <time>2011-12-10T15:05:21Z</time>
      </trkpt>
      <trkpt lat="45.25841" lon="4.08696">
        <ele>648.07</ele>
        <time>2011-12-10T15:05:23Z</time>
      </trkpt>
      <trkpt lat="45.25842" lon="4.08692">
        <ele>647.1</ele>
        <time>2011-12-10T15:05:30Z</time>
      </trkpt>
      <trkpt lat="45.25841" lon="4.08681">
        <ele>646.14</ele>
        <time>2011-12-10T15:05:40Z</time>
      </trkpt>
      <trkpt lat="45.25841" lon="4.08676">
        <ele>647.59</ele>
        <time>2011-12-10T15:05:44Z</time>
      </trkpt>
      <trkpt lat="45.25841" lon="4.08665">
        <ele>647.59</ele>
        <time>2011-12-10T15:05:50Z</time>
      </trkpt>
      <trkpt lat="45.2584" lon="4.08658">
        <ele>647.59</ele>
        <time>2011-12-10T15:05:53Z</time>
      </trkpt>
      <trkpt lat="45.2584" lon="4.08653">
        <ele>647.1</ele>
        <time>2011-12-10T15:05:56Z</time>
      </trkpt>
      <trkpt lat="45.25837" lon="4.08648">
        <ele>646.62</ele>
        <time>2011-12-10T15:05:59Z</time>
      </trkpt>
      <trkpt lat="45.25835" lon="4.08636">
        <ele>646.62</ele>
        <time>2011-12-10T15:06:04Z</time>
      </trkpt>
      <trkpt lat="45.2583" lon="4.08617">
        <ele>648.55</ele>
        <time>2011-12-10T15:06:16Z</time>
      </trkpt>
      <trkpt lat="45.2583" lon="4.08616">
        <ele>648.55</ele>
        <time>2011-12-10T15:06:17Z</time>
      </trkpt>
      <trkpt lat="45.25821" lon="4.08591">
        <ele>652.39</ele>
        <time>2011-12-10T15:06:30Z</time>
      </trkpt>
      <trkpt lat="45.25809" lon="4.08568">
        <ele>654.31</ele>
        <time>2011-12-10T15:06:43Z</time>
      </trkpt>
      <trkpt lat="45.25809" lon="4.08567">
        <ele>653.83</ele>
        <time>2011-12-10T15:06:44Z</time>
      </trkpt>
      <trkpt lat="45.25808" lon="4.08563">
        <ele>654.31</ele>
        <time>2011-12-10T15:06:46Z</time>
      </trkpt>
      <trkpt lat="45.25797" lon="4.08544">
        <ele>657.68</ele>
        <time>2011-12-10T15:06:58Z</time>
      </trkpt>
      <trkpt lat="45.2579" lon="4.0853">
        <ele>660.56</ele>
        <time>2011-12-10T15:07:06Z</time>
      </trkpt>
      <trkpt lat="45.25772" lon="4.08518">
        <ele>665.85</ele>
        <time>2011-12-10T15:07:18Z</time>
      </trkpt>
      <trkpt lat="45.25753" lon="4.08513">
        <ele>669.7</ele>
        <time>2011-12-10T15:07:29Z</time>
      </trkpt>
      <trkpt lat="45.25742" lon="4.08511">
        <ele>671.62</ele>
        <time>2011-12-10T15:07:40Z</time>
      </trkpt>
      <trkpt lat="45.25737" lon="4.0851">
        <ele>672.58</ele>
        <time>2011-12-10T15:07:46Z</time>
      </trkpt>
      <trkpt lat="45.25728" lon="4.08505">
        <ele>675.46</ele>
        <time>2011-12-10T15:07:58Z</time>
      </trkpt>
      <trkpt lat="45.25718" lon="4.08503">
        <ele>676.91</ele>
        <time>2011-12-10T15:08:12Z</time>
      </trkpt>
      <trkpt lat="45.25708" lon="4.085">
        <ele>678.83</ele>
        <time>2011-12-10T15:08:26Z</time>
      </trkpt>
      <trkpt lat="45.257" lon="4.08498">
        <ele>678.35</ele>
        <time>2011-12-10T15:08:40Z</time>
      </trkpt>
      <trkpt lat="45.25691" lon="4.08495">
        <ele>678.83</ele>
        <time>2011-12-10T15:08:51Z</time>
      </trkpt>
      <trkpt lat="45.25679" lon="4.08494">
        <ele>681.23</ele>
        <time>2011-12-10T15:09:03Z</time>
      </trkpt>
      <trkpt lat="45.25669" lon="4.08492">
        <ele>683.63</ele>
        <time>2011-12-10T15:09:15Z</time>
      </trkpt>
      <trkpt lat="45.25661" lon="4.08489">
        <ele>685.56</ele>
        <time>2011-12-10T15:09:26Z</time>
      </trkpt>
      <trkpt lat="45.25658" lon="4.08487">
        <ele>687.48</ele>
        <time>2011-12-10T15:09:38Z</time>
      </trkpt>
      <trkpt lat="45.25654" lon="4.08481">
        <ele>688.44</ele>
        <time>2011-12-10T15:10:22Z</time>
      </trkpt>
      <trkpt lat="45.25651" lon="4.08475">
        <ele>688.44</ele>
        <time>2011-12-10T15:10:26Z</time>
      </trkpt>
      <trkpt lat="45.2564" lon="4.08453">
        <ele>687</ele>
        <time>2011-12-10T15:10:37Z</time>
      </trkpt>
      <trkpt lat="45.25628" lon="4.08434">
        <ele>687</ele>
        <time>2011-12-10T15:10:48Z</time>
      </trkpt>
      <trkpt lat="45.25625" lon="4.08427">
        <ele>687</ele>
        <time>2011-12-10T15:10:52Z</time>
      </trkpt>
      <trkpt lat="45.25623" lon="4.08401">
        <ele>686.52</ele>
        <time>2011-12-10T15:11:03Z</time>
      </trkpt>
      <trkpt lat="45.25622" lon="4.08389">
        <ele>685.56</ele>
        <time>2011-12-10T15:11:08Z</time>
      </trkpt>
      <trkpt lat="45.25619" lon="4.08353">
        <ele>680.27</ele>
        <time>2011-12-10T15:11:21Z</time>
      </trkpt>
      <trkpt lat="45.25615" lon="4.08314">
        <ele>684.6</ele>
        <time>2011-12-10T15:11:33Z</time>
      </trkpt>
      <trkpt lat="45.25611" lon="4.08273">
        <ele>685.56</ele>
        <time>2011-12-10T15:11:47Z</time>
      </trkpt>
      <trkpt lat="45.25609" lon="4.08246">
        <ele>687.96</ele>
        <time>2011-12-10T15:11:57Z</time>
      </trkpt>
      <trkpt lat="45.25606" lon="4.08217">
        <ele>691.81</ele>
        <time>2011-12-10T15:12:07Z</time>
      </trkpt>
      <trkpt lat="45.25601" lon="4.08179">
        <ele>700.46</ele>
        <time>2011-12-10T15:12:19Z</time>
      </trkpt>
      <trkpt lat="45.25594" lon="4.08174">
        <ele>703.34</ele>
        <time>2011-12-10T15:12:24Z</time>
      </trkpt>
      <trkpt lat="45.25581" lon="4.08178">
        <ele>701.9</ele>
        <time>2011-12-10T15:12:32Z</time>
      </trkpt>
      <trkpt lat="45.25574" lon="4.0819">
        <ele>698.53</ele>
        <time>2011-12-10T15:12:41Z</time>
      </trkpt>
      <trkpt lat="45.25568" lon="4.08192">
        <ele>699.02</ele>
        <time>2011-12-10T15:12:48Z</time>
      </trkpt>
      <trkpt lat="45.25564" lon="4.08197">
        <ele>699.98</ele>
        <time>2011-12-10T15:12:52Z</time>
      </trkpt>
      <trkpt lat="45.2556" lon="4.08202">
        <ele>702.38</ele>
        <time>2011-12-10T15:12:56Z</time>
      </trkpt>
      <trkpt lat="45.25556" lon="4.08211">
        <ele>706.71</ele>
        <time>2011-12-10T15:13:01Z</time>
      </trkpt>
      <trkpt lat="45.25551" lon="4.08214">
        <ele>708.63</ele>
        <time>2011-12-10T15:13:05Z</time>
      </trkpt>
      <trkpt lat="45.25543" lon="4.08222">
        <ele>713.44</ele>
        <time>2011-12-10T15:13:13Z</time>
      </trkpt>
      <trkpt lat="45.25526" lon="4.08226">
        <ele>717.28</ele>
        <time>2011-12-10T15:13:25Z</time>
      </trkpt>
      <trkpt lat="45.25521" lon="4.08226">
        <ele>717.76</ele>
        <time>2011-12-10T15:13:28Z</time>
      </trkpt>
      <trkpt lat="45.255" lon="4.08224">
        <ele>720.16</ele>
        <time>2011-12-10T15:13:41Z</time>
      </trkpt>
      <trkpt lat="45.25496" lon="4.08226">
        <ele>720.65</ele>
        <time>2011-12-10T15:13:43Z</time>
      </trkpt>
      <trkpt lat="45.25486" lon="4.08231">
        <ele>722.09</ele>
        <time>2011-12-10T15:13:49Z</time>
      </trkpt>
      <trkpt lat="45.25476" lon="4.08227">
        <ele>724.01</ele>
        <time>2011-12-10T15:13:55Z</time>
      </trkpt>
      <trkpt lat="45.25452" lon="4.08197">
        <ele>720.16</ele>
        <time>2011-12-10T15:14:08Z</time>
      </trkpt>
      <trkpt lat="45.25439" lon="4.08176">
        <ele>716.32</ele>
        <time>2011-12-10T15:14:17Z</time>
      </trkpt>
      <trkpt lat="45.25425" lon="4.0815">
        <ele>715.84</ele>
        <time>2011-12-10T15:14:27Z</time>
      </trkpt>
      <trkpt lat="45.25425" lon="4.08149">
        <ele>715.36</ele>
        <time>2011-12-10T15:14:28Z</time>
      </trkpt>
      <trkpt lat="45.2542" lon="4.08144">
        <ele>714.4</ele>
        <time>2011-12-10T15:14:31Z</time>
      </trkpt>
      <trkpt lat="45.25407" lon="4.08123">
        <ele>714.88</ele>
        <time>2011-12-10T15:14:41Z</time>
      </trkpt>
      <trkpt lat="45.25397" lon="4.08114">
        <ele>718.24</ele>
        <time>2011-12-10T15:14:48Z</time>
      </trkpt>
      <trkpt lat="45.25389" lon="4.0811">
        <ele>721.13</ele>
        <time>2011-12-10T15:14:54Z</time>
      </trkpt>
      <trkpt lat="45.25382" lon="4.0811">
        <ele>721.61</ele>
        <time>2011-12-10T15:15:01Z</time>
      </trkpt>
      <trkpt lat="45.25364" lon="4.08102">
        <ele>723.53</ele>
        <time>2011-12-10T15:15:12Z</time>
      </trkpt>
      <trkpt lat="45.25346" lon="4.08094">
        <ele>726.89</ele>
        <time>2011-12-10T15:15:24Z</time>
      </trkpt>
      <trkpt lat="45.25343" lon="4.08091">
        <ele>729.3</ele>
        <time>2011-12-10T15:15:27Z</time>
      </trkpt>
      <trkpt lat="45.25338" lon="4.08085">
        <ele>732.18</ele>
        <time>2011-12-10T15:15:32Z</time>
      </trkpt>
      <trkpt lat="45.2533" lon="4.08071">
        <ele>735.55</ele>
        <time>2011-12-10T15:15:42Z</time>
      </trkpt>
      <trkpt lat="45.25327" lon="4.08065">
        <ele>736.51</ele>
        <time>2011-12-10T15:15:46Z</time>
      </trkpt>
      <trkpt lat="45.25321" lon="4.08057">
        <ele>738.43</ele>
        <time>2011-12-10T15:15:52Z</time>
      </trkpt>
      <trkpt lat="45.25319" lon="4.08051">
        <ele>739.87</ele>
        <time>2011-12-10T15:15:56Z</time>
      </trkpt>
      <trkpt lat="45.25319" lon="4.08045">
        <ele>741.79</ele>
        <time>2011-12-10T15:16:00Z</time>
      </trkpt>
      <trkpt lat="45.25314" lon="4.08037">
        <ele>742.28</ele>
        <time>2011-12-10T15:16:06Z</time>
      </trkpt>
      <trkpt lat="45.253" lon="4.08027">
        <ele>746.12</ele>
        <time>2011-12-10T15:16:18Z</time>
      </trkpt>
      <trkpt lat="45.25299" lon="4.08025">
        <ele>747.08</ele>
        <time>2011-12-10T15:16:20Z</time>
      </trkpt>
      <trkpt lat="45.25288" lon="4.08011">
        <ele>748.52</ele>
        <time>2011-12-10T15:16:33Z</time>
      </trkpt>
      <trkpt lat="45.25281" lon="4.07999">
        <ele>749.97</ele>
        <time>2011-12-10T15:16:42Z</time>
      </trkpt>
      <trkpt lat="45.25273" lon="4.0799">
        <ele>750.45</ele>
        <time>2011-12-10T15:16:53Z</time>
      </trkpt>
      <trkpt lat="45.25267" lon="4.07979">
        <ele>758.14</ele>
        <time>2011-12-10T15:17:04Z</time>
      </trkpt>
      <trkpt lat="45.2526" lon="4.07975">
        <ele>762.46</ele>
        <time>2011-12-10T15:17:17Z</time>
      </trkpt>
      <trkpt lat="45.25254" lon="4.07966">
        <ele>762.94</ele>
        <time>2011-12-10T15:17:37Z</time>
      </trkpt>
      <trkpt lat="45.25241" lon="4.07958">
        <ele>762.46</ele>
        <time>2011-12-10T15:17:46Z</time>
      </trkpt>
      <trkpt lat="45.25229" lon="4.07953">
        <ele>763.42</ele>
        <time>2011-12-10T15:17:57Z</time>
      </trkpt>
      <trkpt lat="45.25218" lon="4.07953">
        <ele>763.9</ele>
        <time>2011-12-10T15:18:04Z</time>
      </trkpt>
      <trkpt lat="45.25211" lon="4.07953">
        <ele>761.98</ele>
        <time>2011-12-10T15:18:09Z</time>
      </trkpt>
      <trkpt lat="45.25193" lon="4.07951">
        <ele>764.39</ele>
        <time>2011-12-10T15:18:21Z</time>
      </trkpt>
      <trkpt lat="45.25179" lon="4.07943">
        <ele>764.87</ele>
        <time>2011-12-10T15:18:33Z</time>
      </trkpt>
      <trkpt lat="45.25167" lon="4.07936">
        <ele>766.31</ele>
        <time>2011-12-10T15:18:44Z</time>
      </trkpt>
      <trkpt lat="45.25153" lon="4.07927">
        <ele>769.67</ele>
        <time>2011-12-10T15:18:55Z</time>
      </trkpt>
      <trkpt lat="45.25136" lon="4.07923">
        <ele>772.56</ele>
        <time>2011-12-10T15:19:07Z</time>
      </trkpt>
      <trkpt lat="45.25119" lon="4.07919">
        <ele>777.36</ele>
        <time>2011-12-10T15:19:19Z</time>
      </trkpt>
      <trkpt lat="45.25105" lon="4.07919">
        <ele>786.02</ele>
        <time>2011-12-10T15:19:29Z</time>
      </trkpt>
      <trkpt lat="45.25092" lon="4.07916">
        <ele>783.61</ele>
        <time>2011-12-10T15:19:42Z</time>
      </trkpt>
      <trkpt lat="45.25091" lon="4.07914">
        <ele>783.13</ele>
        <time>2011-12-10T15:19:44Z</time>
      </trkpt>
      <trkpt lat="45.25088" lon="4.0791">
        <ele>782.65</ele>
        <time>2011-12-10T15:19:47Z</time>
      </trkpt>
      <trkpt lat="45.2508" lon="4.07905">
        <ele>783.61</ele>
        <time>2011-12-10T15:19:54Z</time>
      </trkpt>
      <trkpt lat="45.25078" lon="4.07904">
        <ele>784.09</ele>
        <time>2011-12-10T15:19:56Z</time>
      </trkpt>
      <trkpt lat="45.25064" lon="4.07885">
        <ele>788.9</ele>
        <time>2011-12-10T15:20:09Z</time>
      </trkpt>
      <trkpt lat="45.25063" lon="4.07882">
        <ele>788.9</ele>
        <time>2011-12-10T15:20:11Z</time>
      </trkpt>
      <trkpt lat="45.25055" lon="4.07865">
        <ele>790.34</ele>
        <time>2011-12-10T15:20:23Z</time>
      </trkpt>
      <trkpt lat="45.25045" lon="4.07845">
        <ele>790.82</ele>
        <time>2011-12-10T15:20:36Z</time>
      </trkpt>
      <trkpt lat="45.25038" lon="4.0783">
        <ele>794.19</ele>
        <time>2011-12-10T15:20:45Z</time>
      </trkpt>
      <trkpt lat="45.25033" lon="4.0782">
        <ele>794.67</ele>
        <time>2011-12-10T15:20:52Z</time>
      </trkpt>
      <trkpt lat="45.25029" lon="4.0781">
        <ele>795.63</ele>
        <time>2011-12-10T15:20:59Z</time>
      </trkpt>
      <trkpt lat="45.25022" lon="4.07796">
        <ele>797.55</ele>
        <time>2011-12-10T15:21:07Z</time>
      </trkpt>
      <trkpt lat="45.25017" lon="4.07784">
        <ele>798.03</ele>
        <time>2011-12-10T15:21:13Z</time>
      </trkpt>
      <trkpt lat="45.25012" lon="4.07772">
        <ele>798.99</ele>
        <time>2011-12-10T15:21:19Z</time>
      </trkpt>
      <trkpt lat="45.25008" lon="4.07766">
        <ele>799.47</ele>
        <time>2011-12-10T15:21:23Z</time>
      </trkpt>
      <trkpt lat="45.24998" lon="4.07741">
        <ele>798.99</ele>
        <time>2011-12-10T15:21:38Z</time>
      </trkpt>
      <trkpt lat="45.24997" lon="4.07734">
        <ele>798.51</ele>
        <time>2011-12-10T15:21:43Z</time>
      </trkpt>
      <trkpt lat="45.24988" lon="4.07717">
        <ele>801.4</ele>
        <time>2011-12-10T15:21:54Z</time>
      </trkpt>
      <trkpt lat="45.24986" lon="4.0771">
        <ele>802.84</ele>
        <time>2011-12-10T15:21:58Z</time>
      </trkpt>
      <trkpt lat="45.24987" lon="4.07685">
        <ele>802.36</ele>
        <time>2011-12-10T15:22:11Z</time>
      </trkpt>
      <trkpt lat="45.24987" lon="4.07664">
        <ele>803.32</ele>
        <time>2011-12-10T15:22:23Z</time>
      </trkpt>
      <trkpt lat="45.24986" lon="4.07658">
        <ele>805.24</ele>
        <time>2011-12-10T15:22:27Z</time>
      </trkpt>
      <trkpt lat="45.24985" lon="4.07652">
        <ele>807.16</ele>
        <time>2011-12-10T15:22:32Z</time>
      </trkpt>
      <trkpt lat="45.24981" lon="4.07644">
        <ele>809.57</ele>
        <time>2011-12-10T15:22:37Z</time>
      </trkpt>
      <trkpt lat="45.24979" lon="4.07614">
        <ele>811.49</ele>
        <time>2011-12-10T15:22:50Z</time>
      </trkpt>
      <trkpt lat="45.24979" lon="4.07612">
        <ele>811.97</ele>
        <time>2011-12-10T15:22:51Z</time>
      </trkpt>
      <trkpt lat="45.24981" lon="4.07605">
        <ele>811.97</ele>
        <time>2011-12-10T15:22:55Z</time>
      </trkpt>
      <trkpt lat="45.24982" lon="4.07586">
        <ele>815.34</ele>
        <time>2011-12-10T15:23:07Z</time>
      </trkpt>
      <trkpt lat="45.24981" lon="4.07584">
        <ele>815.82</ele>
        <time>2011-12-10T15:23:08Z</time>
      </trkpt>
      <trkpt lat="45.24982" lon="4.07565">
        <ele>817.26</ele>
        <time>2011-12-10T15:23:17Z</time>
      </trkpt>
      <trkpt lat="45.24982" lon="4.07561">
        <ele>817.26</ele>
        <time>2011-12-10T15:23:19Z</time>
      </trkpt>
      <trkpt lat="45.24983" lon="4.07536">
        <ele>821.58</ele>
        <time>2011-12-10T15:23:29Z</time>
      </trkpt>
      <trkpt lat="45.24983" lon="4.07521">
        <ele>822.55</ele>
        <time>2011-12-10T15:23:35Z</time>
      </trkpt>
      <trkpt lat="45.24982" lon="4.0751">
        <ele>823.99</ele>
        <time>2011-12-10T15:23:41Z</time>
      </trkpt>
      <trkpt lat="45.2498" lon="4.07485">
        <ele>824.95</ele>
        <time>2011-12-10T15:23:52Z</time>
      </trkpt>
      <trkpt lat="45.24974" lon="4.07458">
        <ele>828.79</ele>
        <time>2011-12-10T15:24:04Z</time>
      </trkpt>
      <trkpt lat="45.24973" lon="4.07455">
        <ele>829.76</ele>
        <time>2011-12-10T15:24:06Z</time>
      </trkpt>
      <trkpt lat="45.24971" lon="4.07445">
        <ele>831.2</ele>
        <time>2011-12-10T15:24:11Z</time>
      </trkpt>
      <trkpt lat="45.24967" lon="4.0743">
        <ele>833.6</ele>
        <time>2011-12-10T15:24:17Z</time>
      </trkpt>
      <trkpt lat="45.24964" lon="4.07418">
        <ele>835.52</ele>
        <time>2011-12-10T15:24:22Z</time>
      </trkpt>
      <trkpt lat="45.24959" lon="4.0739">
        <ele>834.56</ele>
        <time>2011-12-10T15:24:35Z</time>
      </trkpt>
      <trkpt lat="45.24953" lon="4.07359">
        <ele>832.16</ele>
        <time>2011-12-10T15:24:49Z</time>
      </trkpt>
      <trkpt lat="45.24951" lon="4.07345">
        <ele>833.12</ele>
        <time>2011-12-10T15:24:55Z</time>
      </trkpt>
      <trkpt lat="45.2494" lon="4.07298">
        <ele>836</ele>
        <time>2011-12-10T15:25:10Z</time>
      </trkpt>
      <trkpt lat="45.24939" lon="4.07282">
        <ele>835.04</ele>
        <time>2011-12-10T15:25:15Z</time>
      </trkpt>
      <trkpt lat="45.24937" lon="4.07268">
        <ele>835.04</ele>
        <time>2011-12-10T15:25:19Z</time>
      </trkpt>
      <trkpt lat="45.24923" lon="4.07229">
        <ele>836.48</ele>
        <time>2011-12-10T15:25:33Z</time>
      </trkpt>
      <trkpt lat="45.2492" lon="4.07222">
        <ele>837.45</ele>
        <time>2011-12-10T15:25:36Z</time>
      </trkpt>
      <trkpt lat="45.24912" lon="4.07202">
        <ele>837.45</ele>
        <time>2011-12-10T15:25:43Z</time>
      </trkpt>
      <trkpt lat="45.24909" lon="4.07196">
        <ele>838.41</ele>
        <time>2011-12-10T15:25:46Z</time>
      </trkpt>
      <trkpt lat="45.249" lon="4.07193">
        <ele>842.25</ele>
        <time>2011-12-10T15:26:00Z</time>
      </trkpt>
      <trkpt lat="45.24899" lon="4.07194">
        <ele>842.73</ele>
        <time>2011-12-10T15:26:54Z</time>
      </trkpt>
      <trkpt lat="45.24897" lon="4.07193">
        <ele>843.69</ele>
        <time>2011-12-10T15:26:57Z</time>
      </trkpt>
      <trkpt lat="45.2489" lon="4.07173">
        <ele>844.18</ele>
        <time>2011-12-10T15:27:07Z</time>
      </trkpt>
      <trkpt lat="45.2489" lon="4.07169">
        <ele>845.14</ele>
        <time>2011-12-10T15:27:09Z</time>
      </trkpt>
      <trkpt lat="45.24888" lon="4.07157">
        <ele>847.54</ele>
        <time>2011-12-10T15:27:14Z</time>
      </trkpt>
      <trkpt lat="45.24883" lon="4.07127">
        <ele>847.06</ele>
        <time>2011-12-10T15:27:28Z</time>
      </trkpt>
      <trkpt lat="45.24885" lon="4.07101">
        <ele>847.54</ele>
        <time>2011-12-10T15:27:38Z</time>
      </trkpt>
      <trkpt lat="45.24883" lon="4.07088">
        <ele>848.98</ele>
        <time>2011-12-10T15:27:43Z</time>
      </trkpt>
      <trkpt lat="45.24872" lon="4.07051">
        <ele>851.87</ele>
        <time>2011-12-10T15:27:57Z</time>
      </trkpt>
      <trkpt lat="45.24869" lon="4.0704">
        <ele>852.83</ele>
        <time>2011-12-10T15:28:01Z</time>
      </trkpt>
      <trkpt lat="45.24855" lon="4.06996">
        <ele>854.75</ele>
        <time>2011-12-10T15:28:16Z</time>
      </trkpt>
      <trkpt lat="45.24846" lon="4.06944">
        <ele>855.71</ele>
        <time>2011-12-10T15:28:30Z</time>
      </trkpt>
      <trkpt lat="45.24837" lon="4.06916">
        <ele>856.19</ele>
        <time>2011-12-10T15:28:40Z</time>
      </trkpt>
      <trkpt lat="45.24838" lon="4.06912">
        <ele>855.71</ele>
        <time>2011-12-10T15:28:42Z</time>
      </trkpt>
      <trkpt lat="45.24846" lon="4.06881">
        <ele>856.19</ele>
        <time>2011-12-10T15:28:55Z</time>
      </trkpt>
      <trkpt lat="45.24855" lon="4.06858">
        <ele>860.04</ele>
        <time>2011-12-10T15:29:07Z</time>
      </trkpt>
      <trkpt lat="45.24856" lon="4.06857">
        <ele>861</ele>
        <time>2011-12-10T15:29:08Z</time>
      </trkpt>
      <trkpt lat="45.24863" lon="4.0686">
        <ele>863.88</ele>
        <time>2011-12-10T15:29:13Z</time>
      </trkpt>
      <trkpt lat="45.24877" lon="4.06885">
        <ele>868.21</ele>
        <time>2011-12-10T15:29:26Z</time>
      </trkpt>
      <trkpt lat="45.24887" lon="4.0689">
        <ele>869.65</ele>
        <time>2011-12-10T15:29:33Z</time>
      </trkpt>
      <trkpt lat="45.24891" lon="4.0686">
        <ele>872.53</ele>
        <time>2011-12-10T15:29:47Z</time>
      </trkpt>
      <trkpt lat="45.24897" lon="4.06821">
        <ele>877.34</ele>
        <time>2011-12-10T15:30:05Z</time>
      </trkpt>
      <trkpt lat="45.249" lon="4.06793">
        <ele>877.82</ele>
        <time>2011-12-10T15:30:18Z</time>
      </trkpt>
      <trkpt lat="45.24906" lon="4.06767">
        <ele>882.63</ele>
        <time>2011-12-10T15:30:32Z</time>
      </trkpt>
      <trkpt lat="45.24921" lon="4.06755">
        <ele>883.59</ele>
        <time>2011-12-10T15:30:42Z</time>
      </trkpt>
      <trkpt lat="45.24939" lon="4.06758">
        <ele>886.47</ele>
        <time>2011-12-10T15:30:54Z</time>
      </trkpt>
      <trkpt lat="45.24963" lon="4.06773">
        <ele>889.84</ele>
        <time>2011-12-10T15:31:10Z</time>
      </trkpt>
      <trkpt lat="45.24966" lon="4.06775">
        <ele>890.32</ele>
        <time>2011-12-10T15:31:12Z</time>
      </trkpt>
      <trkpt lat="45.24973" lon="4.06781">
        <ele>890.32</ele>
        <time>2011-12-10T15:31:17Z</time>
      </trkpt>
      <trkpt lat="45.24986" lon="4.06792">
        <ele>889.84</ele>
        <time>2011-12-10T15:31:26Z</time>
      </trkpt>
      <trkpt lat="45.2501" lon="4.0681">
        <ele>893.68</ele>
        <time>2011-12-10T15:31:42Z</time>
      </trkpt>
      <trkpt lat="45.25037" lon="4.06829">
        <ele>896.09</ele>
        <time>2011-12-10T15:31:57Z</time>
      </trkpt>
      <trkpt lat="45.2506" lon="4.0683">
        <ele>897.05</ele>
        <time>2011-12-10T15:32:10Z</time>
      </trkpt>
      <trkpt lat="45.25082" lon="4.06812">
        <ele>899.45</ele>
        <time>2011-12-10T15:32:23Z</time>
      </trkpt>
      <trkpt lat="45.25104" lon="4.06784">
        <ele>902.82</ele>
        <time>2011-12-10T15:32:39Z</time>
      </trkpt>
      <trkpt lat="45.25119" lon="4.06748">
        <ele>905.7</ele>
        <time>2011-12-10T15:32:56Z</time>
      </trkpt>
      <trkpt lat="45.25114" lon="4.06709">
        <ele>910.51</ele>
        <time>2011-12-10T15:33:13Z</time>
      </trkpt>
      <trkpt lat="45.25112" lon="4.06684">
        <ele>914.35</ele>
        <time>2011-12-10T15:33:24Z</time>
      </trkpt>
      <trkpt lat="45.25114" lon="4.06673">
        <ele>915.79</ele>
        <time>2011-12-10T15:33:29Z</time>
      </trkpt>
      <trkpt lat="45.25115" lon="4.06665">
        <ele>916.75</ele>
        <time>2011-12-10T15:33:33Z</time>
      </trkpt>
      <trkpt lat="45.25121" lon="4.06648">
        <ele>918.68</ele>
        <time>2011-12-10T15:33:42Z</time>
      </trkpt>
      <trkpt lat="45.25122" lon="4.06643">
        <ele>919.16</ele>
        <time>2011-12-10T15:33:44Z</time>
      </trkpt>
      <trkpt lat="45.2513" lon="4.06619">
        <ele>919.64</ele>
        <time>2011-12-10T15:33:56Z</time>
      </trkpt>
      <trkpt lat="45.2514" lon="4.06585">
        <ele>921.56</ele>
        <time>2011-12-10T15:34:14Z</time>
      </trkpt>
      <trkpt lat="45.25146" lon="4.06561">
        <ele>922.04</ele>
        <time>2011-12-10T15:34:25Z</time>
      </trkpt>
      <trkpt lat="45.25151" lon="4.06536">
        <ele>924.45</ele>
        <time>2011-12-10T15:34:37Z</time>
      </trkpt>
      <trkpt lat="45.2515" lon="4.06508">
        <ele>925.89</ele>
        <time>2011-12-10T15:34:49Z</time>
      </trkpt>
      <trkpt lat="45.25144" lon="4.0648">
        <ele>927.81</ele>
        <time>2011-12-10T15:35:02Z</time>
      </trkpt>
      <trkpt lat="45.25141" lon="4.06466">
        <ele>928.77</ele>
        <time>2011-12-10T15:35:08Z</time>
      </trkpt>
      <trkpt lat="45.25137" lon="4.06449">
        <ele>930.21</ele>
        <time>2011-12-10T15:35:15Z</time>
      </trkpt>
      <trkpt lat="45.25126" lon="4.06416">
        <ele>931.65</ele>
        <time>2011-12-10T15:35:30Z</time>
      </trkpt>
      <trkpt lat="45.25119" lon="4.06388">
        <ele>935.02</ele>
        <time>2011-12-10T15:35:42Z</time>
      </trkpt>
      <trkpt lat="45.25125" lon="4.06386">
        <ele>937.42</ele>
        <time>2011-12-10T15:35:46Z</time>
      </trkpt>
      <trkpt lat="45.25142" lon="4.06423">
        <ele>938.86</ele>
        <time>2011-12-10T15:36:02Z</time>
      </trkpt>
      <trkpt lat="45.2516" lon="4.0646">
        <ele>938.86</ele>
        <time>2011-12-10T15:36:17Z</time>
      </trkpt>
      <trkpt lat="45.25175" lon="4.06494">
        <ele>939.83</ele>
        <time>2011-12-10T15:36:31Z</time>
      </trkpt>
      <trkpt lat="45.25187" lon="4.06528">
        <ele>942.71</ele>
        <time>2011-12-10T15:36:45Z</time>
      </trkpt>
      <trkpt lat="45.25192" lon="4.06565">
        <ele>948</ele>
        <time>2011-12-10T15:36:57Z</time>
      </trkpt>
      <trkpt lat="45.2519" lon="4.06582">
        <ele>949.92</ele>
        <time>2011-12-10T15:37:03Z</time>
      </trkpt>
      <trkpt lat="45.25187" lon="4.06605">
        <ele>955.21</ele>
        <time>2011-12-10T15:37:13Z</time>
      </trkpt>
      <trkpt lat="45.25188" lon="4.06609">
        <ele>956.65</ele>
        <time>2011-12-10T15:37:28Z</time>
      </trkpt>
      <trkpt lat="45.25189" lon="4.06606">
        <ele>956.17</ele>
        <time>2011-12-10T15:38:07Z</time>
      </trkpt>
      <trkpt lat="45.2519" lon="4.0659">
        <ele>954.25</ele>
        <time>2011-12-10T15:38:14Z</time>
      </trkpt>
      <trkpt lat="45.25197" lon="4.06589">
        <ele>949.44</ele>
        <time>2011-12-10T15:38:26Z</time>
      </trkpt>
      <trkpt lat="45.25197" lon="4.06589">
        <ele>949.92</ele>
        <time>2011-12-10T15:39:37Z</time>
      </trkpt>
      <trkpt lat="45.25197" lon="4.06589">
        <ele>950.88</ele>
        <time>2011-12-10T15:41:23Z</time>
      </trkpt>
      <trkpt lat="45.25197" lon="4.06589">
        <ele>951.36</ele>
        <time>2011-12-10T15:42:11Z</time>
      </trkpt>
      <trkpt lat="45.25196" lon="4.06588">
        <ele>951.36</ele>
        <time>2011-12-10T15:42:56Z</time>
      </trkpt>
      <trkpt lat="45.25194" lon="4.06586">
        <ele>950.88</ele>
        <time>2011-12-10T15:43:28Z</time>
      </trkpt>
      <trkpt lat="45.25194" lon="4.06586">
        <ele>951.36</ele>
        <time>2011-12-10T15:44:21Z</time>
      </trkpt>
      <trkpt lat="45.25192" lon="4.0658">
        <ele>949.92</ele>
        <time>2011-12-10T15:45:02Z</time>
      </trkpt>
      <trkpt lat="45.25193" lon="4.0655">
        <ele>947.04</ele>
        <time>2011-12-10T15:45:10Z</time>
      </trkpt>
      <trkpt lat="45.25183" lon="4.06512">
        <ele>943.19</ele>
        <time>2011-12-10T15:45:16Z</time>
      </trkpt>
      <trkpt lat="45.25181" lon="4.06506">
        <ele>942.71</ele>
        <time>2011-12-10T15:45:17Z</time>
      </trkpt>
      <trkpt lat="45.25178" lon="4.065">
        <ele>942.23</ele>
        <time>2011-12-10T15:45:18Z</time>
      </trkpt>
      <trkpt lat="45.25137" lon="4.06407">
        <ele>936.94</ele>
        <time>2011-12-10T15:45:30Z</time>
      </trkpt>
      <trkpt lat="45.25131" lon="4.06393">
        <ele>936.46</ele>
        <time>2011-12-10T15:45:32Z</time>
      </trkpt>
      <trkpt lat="45.25119" lon="4.06396">
        <ele>934.06</ele>
        <time>2011-12-10T15:45:37Z</time>
      </trkpt>
      <trkpt lat="45.25123" lon="4.06409">
        <ele>932.62</ele>
        <time>2011-12-10T15:45:39Z</time>
      </trkpt>
      <trkpt lat="45.25147" lon="4.06507">
        <ele>926.85</ele>
        <time>2011-12-10T15:45:49Z</time>
      </trkpt>
      <trkpt lat="45.25148" lon="4.06519">
        <ele>926.37</ele>
        <time>2011-12-10T15:45:50Z</time>
      </trkpt>
      <trkpt lat="45.25148" lon="4.06532">
        <ele>925.89</ele>
        <time>2011-12-10T15:45:51Z</time>
      </trkpt>
      <trkpt lat="45.25146" lon="4.06545">
        <ele>925.41</ele>
        <time>2011-12-10T15:45:52Z</time>
      </trkpt>
      <trkpt lat="45.25144" lon="4.06557">
        <ele>924.45</ele>
        <time>2011-12-10T15:45:53Z</time>
      </trkpt>
      <trkpt lat="45.25141" lon="4.0657">
        <ele>923.96</ele>
        <time>2011-12-10T15:45:54Z</time>
      </trkpt>
      <trkpt lat="45.25111" lon="4.06671">
        <ele>916.27</ele>
        <time>2011-12-10T15:46:02Z</time>
      </trkpt>
      <trkpt lat="45.25111" lon="4.06683">
        <ele>914.83</ele>
        <time>2011-12-10T15:46:03Z</time>
      </trkpt>
      <trkpt lat="45.25112" lon="4.06696">
        <ele>913.39</ele>
        <time>2011-12-10T15:46:04Z</time>
      </trkpt>
      <trkpt lat="45.25116" lon="4.0674">
        <ele>910.03</ele>
        <time>2011-12-10T15:46:07Z</time>
      </trkpt>
      <trkpt lat="45.25115" lon="4.06755">
        <ele>908.58</ele>
        <time>2011-12-10T15:46:08Z</time>
      </trkpt>
      <trkpt lat="45.25112" lon="4.06769">
        <ele>907.62</ele>
        <time>2011-12-10T15:46:09Z</time>
      </trkpt>
      <trkpt lat="45.25106" lon="4.06781">
        <ele>906.66</ele>
        <time>2011-12-10T15:46:10Z</time>
      </trkpt>
      <trkpt lat="45.25098" lon="4.06792">
        <ele>905.7</ele>
        <time>2011-12-10T15:46:11Z</time>
      </trkpt>
      <trkpt lat="45.2509" lon="4.06803">
        <ele>904.26</ele>
        <time>2011-12-10T15:46:12Z</time>
      </trkpt>
      <trkpt lat="45.2508" lon="4.06812">
        <ele>902.82</ele>
        <time>2011-12-10T15:46:13Z</time>
      </trkpt>
      <trkpt lat="45.2507" lon="4.06821">
        <ele>901.37</ele>
        <time>2011-12-10T15:46:14Z</time>
      </trkpt>
      <trkpt lat="45.25061" lon="4.06827">
        <ele>899.93</ele>
        <time>2011-12-10T15:46:15Z</time>
      </trkpt>
      <trkpt lat="45.25052" lon="4.06831">
        <ele>898.49</ele>
        <time>2011-12-10T15:46:16Z</time>
      </trkpt>
      <trkpt lat="45.25045" lon="4.06831">
        <ele>897.53</ele>
        <time>2011-12-10T15:46:17Z</time>
      </trkpt>
      <trkpt lat="45.25037" lon="4.06829">
        <ele>896.09</ele>
        <time>2011-12-10T15:46:18Z</time>
      </trkpt>
      <trkpt lat="45.2503" lon="4.06825">
        <ele>895.61</ele>
        <time>2011-12-10T15:46:19Z</time>
      </trkpt>
      <trkpt lat="45.25022" lon="4.0682">
        <ele>894.64</ele>
        <time>2011-12-10T15:46:20Z</time>
      </trkpt>
      <trkpt lat="45.25015" lon="4.06814">
        <ele>894.16</ele>
        <time>2011-12-10T15:46:21Z</time>
      </trkpt>
      <trkpt lat="45.24938" lon="4.06757">
        <ele>888.4</ele>
        <time>2011-12-10T15:46:30Z</time>
      </trkpt>
      <trkpt lat="45.2493" lon="4.06755">
        <ele>886.95</ele>
        <time>2011-12-10T15:46:31Z</time>
      </trkpt>
      <trkpt lat="45.24922" lon="4.06756">
        <ele>885.99</ele>
        <time>2011-12-10T15:46:32Z</time>
      </trkpt>
      <trkpt lat="45.24915" lon="4.06759">
        <ele>884.55</ele>
        <time>2011-12-10T15:46:33Z</time>
      </trkpt>
      <trkpt lat="45.2491" lon="4.06764">
        <ele>883.11</ele>
        <time>2011-12-10T15:46:34Z</time>
      </trkpt>
      <trkpt lat="45.24905" lon="4.0677">
        <ele>882.15</ele>
        <time>2011-12-10T15:46:35Z</time>
      </trkpt>
      <trkpt lat="45.24902" lon="4.06779">
        <ele>880.71</ele>
        <time>2011-12-10T15:46:36Z</time>
      </trkpt>
      <trkpt lat="45.249" lon="4.06789">
        <ele>879.74</ele>
        <time>2011-12-10T15:46:37Z</time>
      </trkpt>
      <trkpt lat="45.24898" lon="4.06801">
        <ele>878.3</ele>
        <time>2011-12-10T15:46:38Z</time>
      </trkpt>
      <trkpt lat="45.24887" lon="4.06886">
        <ele>869.17</ele>
        <time>2011-12-10T15:46:45Z</time>
      </trkpt>
      <trkpt lat="45.24884" lon="4.0689">
        <ele>867.73</ele>
        <time>2011-12-10T15:46:46Z</time>
      </trkpt>
      <trkpt lat="45.24881" lon="4.0689">
        <ele>866.77</ele>
        <time>2011-12-10T15:46:47Z</time>
      </trkpt>
      <trkpt lat="45.24877" lon="4.06887">
        <ele>865.8</ele>
        <time>2011-12-10T15:46:48Z</time>
      </trkpt>
      <trkpt lat="45.24874" lon="4.06881">
        <ele>865.32</ele>
        <time>2011-12-10T15:46:49Z</time>
      </trkpt>
      <trkpt lat="45.24871" lon="4.06876">
        <ele>864.36</ele>
        <time>2011-12-10T15:46:50Z</time>
      </trkpt>
      <trkpt lat="45.24868" lon="4.06871">
        <ele>863.4</ele>
        <time>2011-12-10T15:46:51Z</time>
      </trkpt>
      <trkpt lat="45.24857" lon="4.06859">
        <ele>860.52</ele>
        <time>2011-12-10T15:46:55Z</time>
      </trkpt>
      <trkpt lat="45.24854" lon="4.06859">
        <ele>860.04</ele>
        <time>2011-12-10T15:46:56Z</time>
      </trkpt>
      <trkpt lat="45.24852" lon="4.0686">
        <ele>859.56</ele>
        <time>2011-12-10T15:46:57Z</time>
      </trkpt>
      <trkpt lat="45.2485" lon="4.06862">
        <ele>859.08</ele>
        <time>2011-12-10T15:46:58Z</time>
      </trkpt>
      <trkpt lat="45.24848" lon="4.06865">
        <ele>858.11</ele>
        <time>2011-12-10T15:46:59Z</time>
      </trkpt>
      <trkpt lat="45.24847" lon="4.0687">
        <ele>858.11</ele>
        <time>2011-12-10T15:47:00Z</time>
      </trkpt>
      <trkpt lat="45.24845" lon="4.06875">
        <ele>857.15</ele>
        <time>2011-12-10T15:47:01Z</time>
      </trkpt>
      <trkpt lat="45.24844" lon="4.06881">
        <ele>856.67</ele>
        <time>2011-12-10T15:47:02Z</time>
      </trkpt>
      <trkpt lat="45.24843" lon="4.06886">
        <ele>856.67</ele>
        <time>2011-12-10T15:47:03Z</time>
      </trkpt>
      <trkpt lat="45.24842" lon="4.06892">
        <ele>856.19</ele>
        <time>2011-12-10T15:47:04Z</time>
      </trkpt>
      <trkpt lat="45.24833" lon="4.06925">
        <ele>850.9</ele>
        <time>2011-12-10T15:47:14Z</time>
      </trkpt>
      <trkpt lat="45.24834" lon="4.06927">
        <ele>850.42</ele>
        <time>2011-12-10T15:47:15Z</time>
      </trkpt>
      <trkpt lat="45.24835" lon="4.06928">
        <ele>850.42</ele>
        <time>2011-12-10T15:47:16Z</time>
      </trkpt>
      <trkpt lat="45.24836" lon="4.06928">
        <ele>849.94</ele>
        <time>2011-12-10T15:47:17Z</time>
      </trkpt>
      <trkpt lat="45.24837" lon="4.06927">
        <ele>849.94</ele>
        <time>2011-12-10T15:47:18Z</time>
      </trkpt>
      <trkpt lat="45.24834" lon="4.06922">
        <ele>849.46</ele>
        <time>2011-12-10T15:47:28Z</time>
      </trkpt>
      <trkpt lat="45.24833" lon="4.06921">
        <ele>849.46</ele>
        <time>2011-12-10T15:47:40Z</time>
      </trkpt>
      <trkpt lat="45.24832" lon="4.06919">
        <ele>849.46</ele>
        <time>2011-12-10T15:47:41Z</time>
      </trkpt>
      <trkpt lat="45.24835" lon="4.06921">
        <ele>850.42</ele>
        <time>2011-12-10T15:47:46Z</time>
      </trkpt>
      <trkpt lat="45.24848" lon="4.06958">
        <ele>851.38</ele>
        <time>2011-12-10T15:47:57Z</time>
      </trkpt>
      <trkpt lat="45.24847" lon="4.0696">
        <ele>851.38</ele>
        <time>2011-12-10T15:48:10Z</time>
      </trkpt>
      <trkpt lat="45.24849" lon="4.0696">
        <ele>851.38</ele>
        <time>2011-12-10T15:48:12Z</time>
      </trkpt>
      <trkpt lat="45.24843" lon="4.06939">
        <ele>852.83</ele>
        <time>2011-12-10T15:48:26Z</time>
      </trkpt>
      <trkpt lat="45.24842" lon="4.06939">
        <ele>852.83</ele>
        <time>2011-12-10T15:48:42Z</time>
      </trkpt>
      <trkpt lat="45.24843" lon="4.06939">
        <ele>852.35</ele>
        <time>2011-12-10T15:49:16Z</time>
      </trkpt>
      <trkpt lat="45.24842" lon="4.06939">
        <ele>851.87</ele>
        <time>2011-12-10T15:50:13Z</time>
      </trkpt>
      <trkpt lat="45.24842" lon="4.06938">
        <ele>850.9</ele>
        <time>2011-12-10T15:50:53Z</time>
      </trkpt>
      <trkpt lat="45.24839" lon="4.06935">
        <ele>851.38</ele>
        <time>2011-12-10T15:51:04Z</time>
      </trkpt>
      <trkpt lat="45.24834" lon="4.06928">
        <ele>852.35</ele>
        <time>2011-12-10T15:51:11Z</time>
      </trkpt>
      <trkpt lat="45.24817" lon="4.06905">
        <ele>851.38</ele>
        <time>2011-12-10T15:51:19Z</time>
      </trkpt>
      <trkpt lat="45.24814" lon="4.06899">
        <ele>851.38</ele>
        <time>2011-12-10T15:51:20Z</time>
      </trkpt>
      <trkpt lat="45.2481" lon="4.06893">
        <ele>850.9</ele>
        <time>2011-12-10T15:51:21Z</time>
      </trkpt>
      <trkpt lat="45.24776" lon="4.06816">
        <ele>848.02</ele>
        <time>2011-12-10T15:51:31Z</time>
      </trkpt>
      <trkpt lat="45.24771" lon="4.0681">
        <ele>848.5</ele>
        <time>2011-12-10T15:51:32Z</time>
      </trkpt>
      <trkpt lat="45.24763" lon="4.068">
        <ele>848.5</ele>
        <time>2011-12-10T15:51:34Z</time>
      </trkpt>
      <trkpt lat="45.24757" lon="4.06795">
        <ele>848.5</ele>
        <time>2011-12-10T15:51:35Z</time>
      </trkpt>
      <trkpt lat="45.24752" lon="4.06791">
        <ele>848.5</ele>
        <time>2011-12-10T15:51:36Z</time>
      </trkpt>
      <trkpt lat="45.2472" lon="4.06771">
        <ele>849.94</ele>
        <time>2011-12-10T15:51:43Z</time>
      </trkpt>
      <trkpt lat="45.24692" lon="4.06744">
        <ele>849.94</ele>
        <time>2011-12-10T15:51:50Z</time>
      </trkpt>
      <trkpt lat="45.24688" lon="4.0674">
        <ele>849.94</ele>
        <time>2011-12-10T15:51:51Z</time>
      </trkpt>
      <trkpt lat="45.24684" lon="4.06737">
        <ele>849.94</ele>
        <time>2011-12-10T15:51:52Z</time>
      </trkpt>
      <trkpt lat="45.2468" lon="4.06734">
        <ele>849.94</ele>
        <time>2011-12-10T15:51:53Z</time>
      </trkpt>
      <trkpt lat="45.24675" lon="4.06731">
        <ele>849.94</ele>
        <time>2011-12-10T15:51:54Z</time>
      </trkpt>
      <trkpt lat="45.24643" lon="4.06709">
        <ele>849.46</ele>
        <time>2011-12-10T15:52:01Z</time>
      </trkpt>
      <trkpt lat="45.2458" lon="4.06674">
        <ele>845.14</ele>
        <time>2011-12-10T15:52:11Z</time>
      </trkpt>
      <trkpt lat="45.24572" lon="4.06669">
        <ele>844.18</ele>
        <time>2011-12-10T15:52:12Z</time>
      </trkpt>
      <trkpt lat="45.24562" lon="4.06664">
        <ele>843.21</ele>
        <time>2011-12-10T15:52:13Z</time>
      </trkpt>
      <trkpt lat="45.24553" lon="4.0666">
        <ele>842.25</ele>
        <time>2011-12-10T15:52:14Z</time>
      </trkpt>
      <trkpt lat="45.24543" lon="4.06657">
        <ele>841.29</ele>
        <time>2011-12-10T15:52:15Z</time>
      </trkpt>
      <trkpt lat="45.24532" lon="4.06656">
        <ele>840.33</ele>
        <time>2011-12-10T15:52:16Z</time>
      </trkpt>
      <trkpt lat="45.24521" lon="4.06654">
        <ele>838.89</ele>
        <time>2011-12-10T15:52:17Z</time>
      </trkpt>
      <trkpt lat="45.2451" lon="4.06651">
        <ele>837.45</ele>
        <time>2011-12-10T15:52:18Z</time>
      </trkpt>
      <trkpt lat="45.245" lon="4.06647">
        <ele>836.48</ele>
        <time>2011-12-10T15:52:19Z</time>
      </trkpt>
      <trkpt lat="45.24489" lon="4.06642">
        <ele>836</ele>
        <time>2011-12-10T15:52:20Z</time>
      </trkpt>
      <trkpt lat="45.24479" lon="4.06639">
        <ele>835.52</ele>
        <time>2011-12-10T15:52:21Z</time>
      </trkpt>
      <trkpt lat="45.24469" lon="4.06635">
        <ele>835.04</ele>
        <time>2011-12-10T15:52:22Z</time>
      </trkpt>
      <trkpt lat="45.2446" lon="4.0663">
        <ele>834.08</ele>
        <time>2011-12-10T15:52:23Z</time>
      </trkpt>
      <trkpt lat="45.24452" lon="4.06624">
        <ele>833.6</ele>
        <time>2011-12-10T15:52:24Z</time>
      </trkpt>
      <trkpt lat="45.24442" lon="4.0662">
        <ele>833.12</ele>
        <time>2011-12-10T15:52:25Z</time>
      </trkpt>
      <trkpt lat="45.24433" lon="4.06617">
        <ele>832.16</ele>
        <time>2011-12-10T15:52:26Z</time>
      </trkpt>
      <trkpt lat="45.24424" lon="4.06612">
        <ele>831.68</ele>
        <time>2011-12-10T15:52:27Z</time>
      </trkpt>
      <trkpt lat="45.24417" lon="4.06605">
        <ele>831.2</ele>
        <time>2011-12-10T15:52:28Z</time>
      </trkpt>
      <trkpt lat="45.24412" lon="4.06595">
        <ele>830.24</ele>
        <time>2011-12-10T15:52:29Z</time>
      </trkpt>
      <trkpt lat="45.24408" lon="4.06584">
        <ele>829.76</ele>
        <time>2011-12-10T15:52:30Z</time>
      </trkpt>
      <trkpt lat="45.24406" lon="4.06572">
        <ele>829.27</ele>
        <time>2011-12-10T15:52:31Z</time>
      </trkpt>
      <trkpt lat="45.24405" lon="4.06562">
        <ele>828.79</ele>
        <time>2011-12-10T15:52:32Z</time>
      </trkpt>
      <trkpt lat="45.24403" lon="4.06551">
        <ele>828.79</ele>
        <time>2011-12-10T15:52:33Z</time>
      </trkpt>
      <trkpt lat="45.24399" lon="4.06542">
        <ele>828.31</ele>
        <time>2011-12-10T15:52:34Z</time>
      </trkpt>
      <trkpt lat="45.24395" lon="4.06534">
        <ele>827.83</ele>
        <time>2011-12-10T15:52:35Z</time>
      </trkpt>
      <trkpt lat="45.2439" lon="4.06527">
        <ele>827.35</ele>
        <time>2011-12-10T15:52:36Z</time>
      </trkpt>
      <trkpt lat="45.24384" lon="4.06519">
        <ele>827.35</ele>
        <time>2011-12-10T15:52:37Z</time>
      </trkpt>
      <trkpt lat="45.24315" lon="4.06426">
        <ele>823.51</ele>
        <time>2011-12-10T15:52:48Z</time>
      </trkpt>
      <trkpt lat="45.24306" lon="4.06419">
        <ele>823.03</ele>
        <time>2011-12-10T15:52:49Z</time>
      </trkpt>
      <trkpt lat="45.24288" lon="4.06407">
        <ele>822.06</ele>
        <time>2011-12-10T15:52:51Z</time>
      </trkpt>
      <trkpt lat="45.24279" lon="4.06399">
        <ele>821.58</ele>
        <time>2011-12-10T15:52:52Z</time>
      </trkpt>
      <trkpt lat="45.24269" lon="4.06392">
        <ele>821.1</ele>
        <time>2011-12-10T15:52:53Z</time>
      </trkpt>
      <trkpt lat="45.2426" lon="4.06386">
        <ele>820.62</ele>
        <time>2011-12-10T15:52:54Z</time>
      </trkpt>
      <trkpt lat="45.24249" lon="4.06381">
        <ele>820.14</ele>
        <time>2011-12-10T15:52:55Z</time>
      </trkpt>
      <trkpt lat="45.24203" lon="4.06364">
        <ele>815.82</ele>
        <time>2011-12-10T15:52:59Z</time>
      </trkpt>
      <trkpt lat="45.24193" lon="4.06356">
        <ele>814.85</ele>
        <time>2011-12-10T15:53:00Z</time>
      </trkpt>
      <trkpt lat="45.24184" lon="4.06345">
        <ele>813.89</ele>
        <time>2011-12-10T15:53:01Z</time>
      </trkpt>
      <trkpt lat="45.24176" lon="4.06334">
        <ele>812.93</ele>
        <time>2011-12-10T15:53:02Z</time>
      </trkpt>
      <trkpt lat="45.24168" lon="4.06321">
        <ele>811.97</ele>
        <time>2011-12-10T15:53:03Z</time>
      </trkpt>
      <trkpt lat="45.24136" lon="4.06273">
        <ele>807.64</ele>
        <time>2011-12-10T15:53:07Z</time>
      </trkpt>
      <trkpt lat="45.24129" lon="4.06266">
        <ele>806.2</ele>
        <time>2011-12-10T15:53:08Z</time>
      </trkpt>
      <trkpt lat="45.24123" lon="4.06262">
        <ele>804.76</ele>
        <time>2011-12-10T15:53:09Z</time>
      </trkpt>
      <trkpt lat="45.24118" lon="4.06263">
        <ele>803.32</ele>
        <time>2011-12-10T15:53:10Z</time>
      </trkpt>
      <trkpt lat="45.24114" lon="4.06267">
        <ele>802.36</ele>
        <time>2011-12-10T15:53:11Z</time>
      </trkpt>
      <trkpt lat="45.24112" lon="4.06276">
        <ele>801.4</ele>
        <time>2011-12-10T15:53:12Z</time>
      </trkpt>
      <trkpt lat="45.24112" lon="4.06285">
        <ele>800.92</ele>
        <time>2011-12-10T15:53:13Z</time>
      </trkpt>
      <trkpt lat="45.24112" lon="4.06295">
        <ele>799.95</ele>
        <time>2011-12-10T15:53:14Z</time>
      </trkpt>
      <trkpt lat="45.24112" lon="4.06306">
        <ele>799.47</ele>
        <time>2011-12-10T15:53:15Z</time>
      </trkpt>
      <trkpt lat="45.24112" lon="4.06317">
        <ele>798.99</ele>
        <time>2011-12-10T15:53:16Z</time>
      </trkpt>
      <trkpt lat="45.24112" lon="4.06395">
        <ele>794.67</ele>
        <time>2011-12-10T15:53:22Z</time>
      </trkpt>
      <trkpt lat="45.24115" lon="4.0641">
        <ele>793.71</ele>
        <time>2011-12-10T15:53:23Z</time>
      </trkpt>
      <trkpt lat="45.24118" lon="4.06424">
        <ele>792.74</ele>
        <time>2011-12-10T15:53:24Z</time>
      </trkpt>
      <trkpt lat="45.24166" lon="4.06566">
        <ele>782.65</ele>
        <time>2011-12-10T15:53:33Z</time>
      </trkpt>
      <trkpt lat="45.2417" lon="4.06584">
        <ele>781.69</ele>
        <time>2011-12-10T15:53:34Z</time>
      </trkpt>
      <trkpt lat="45.24172" lon="4.06602">
        <ele>780.73</ele>
        <time>2011-12-10T15:53:35Z</time>
      </trkpt>
      <trkpt lat="45.24172" lon="4.0662">
        <ele>779.77</ele>
        <time>2011-12-10T15:53:36Z</time>
      </trkpt>
      <trkpt lat="45.24172" lon="4.06639">
        <ele>778.81</ele>
        <time>2011-12-10T15:53:37Z</time>
      </trkpt>
      <trkpt lat="45.24175" lon="4.06807">
        <ele>767.75</ele>
        <time>2011-12-10T15:53:46Z</time>
      </trkpt>
      <trkpt lat="45.24182" lon="4.06877">
        <ele>762.94</ele>
        <time>2011-12-10T15:53:50Z</time>
      </trkpt>
      <trkpt lat="45.24187" lon="4.06891">
        <ele>761.98</ele>
        <time>2011-12-10T15:53:51Z</time>
      </trkpt>
      <trkpt lat="45.24196" lon="4.06902">
        <ele>760.54</ele>
        <time>2011-12-10T15:53:52Z</time>
      </trkpt>
      <trkpt lat="45.24215" lon="4.06925">
        <ele>757.18</ele>
        <time>2011-12-10T15:53:54Z</time>
      </trkpt>
      <trkpt lat="45.24223" lon="4.0694">
        <ele>755.25</ele>
        <time>2011-12-10T15:53:55Z</time>
      </trkpt>
      <trkpt lat="45.24252" lon="4.07005">
        <ele>749.97</ele>
        <time>2011-12-10T15:53:59Z</time>
      </trkpt>
      <trkpt lat="45.24262" lon="4.0704">
        <ele>747.56</ele>
        <time>2011-12-10T15:54:01Z</time>
      </trkpt>
      <trkpt lat="45.24268" lon="4.07056">
        <ele>746.6</ele>
        <time>2011-12-10T15:54:02Z</time>
      </trkpt>
      <trkpt lat="45.24301" lon="4.07135">
        <ele>742.28</ele>
        <time>2011-12-10T15:54:07Z</time>
      </trkpt>
      <trkpt lat="45.24305" lon="4.07154">
        <ele>741.31</ele>
        <time>2011-12-10T15:54:08Z</time>
      </trkpt>
      <trkpt lat="45.24309" lon="4.07172">
        <ele>740.35</ele>
        <time>2011-12-10T15:54:09Z</time>
      </trkpt>
      <trkpt lat="45.24314" lon="4.0719">
        <ele>738.91</ele>
        <time>2011-12-10T15:54:10Z</time>
      </trkpt>
      <trkpt lat="45.24319" lon="4.07208">
        <ele>737.47</ele>
        <time>2011-12-10T15:54:11Z</time>
      </trkpt>
      <trkpt lat="45.24329" lon="4.07247">
        <ele>734.58</ele>
        <time>2011-12-10T15:54:13Z</time>
      </trkpt>
      <trkpt lat="45.24363" lon="4.07389">
        <ele>726.41</ele>
        <time>2011-12-10T15:54:20Z</time>
      </trkpt>
      <trkpt lat="45.24367" lon="4.07408">
        <ele>725.45</ele>
        <time>2011-12-10T15:54:21Z</time>
      </trkpt>
      <trkpt lat="45.24369" lon="4.07427">
        <ele>724.49</ele>
        <time>2011-12-10T15:54:22Z</time>
      </trkpt>
      <trkpt lat="45.24371" lon="4.07447">
        <ele>723.53</ele>
        <time>2011-12-10T15:54:23Z</time>
      </trkpt>
      <trkpt lat="45.24374" lon="4.07466">
        <ele>722.57</ele>
        <time>2011-12-10T15:54:24Z</time>
      </trkpt>
      <trkpt lat="45.24378" lon="4.07486">
        <ele>721.13</ele>
        <time>2011-12-10T15:54:25Z</time>
      </trkpt>
      <trkpt lat="45.24381" lon="4.07506">
        <ele>720.16</ele>
        <time>2011-12-10T15:54:26Z</time>
      </trkpt>
      <trkpt lat="45.24382" lon="4.07526">
        <ele>719.68</ele>
        <time>2011-12-10T15:54:27Z</time>
      </trkpt>
      <trkpt lat="45.24387" lon="4.07586">
        <ele>715.84</ele>
        <time>2011-12-10T15:54:30Z</time>
      </trkpt>
      <trkpt lat="45.24393" lon="4.07604">
        <ele>714.4</ele>
        <time>2011-12-10T15:54:31Z</time>
      </trkpt>
      <trkpt lat="45.244" lon="4.07621">
        <ele>712.95</ele>
        <time>2011-12-10T15:54:32Z</time>
      </trkpt>
      <trkpt lat="45.24409" lon="4.07636">
        <ele>711.51</ele>
        <time>2011-12-10T15:54:33Z</time>
      </trkpt>
      <trkpt lat="45.24418" lon="4.07651">
        <ele>710.07</ele>
        <time>2011-12-10T15:54:34Z</time>
      </trkpt>
      <trkpt lat="45.24462" lon="4.07734">
        <ele>702.38</ele>
        <time>2011-12-10T15:54:39Z</time>
      </trkpt>
      <trkpt lat="45.24468" lon="4.07754">
        <ele>700.46</ele>
        <time>2011-12-10T15:54:40Z</time>
      </trkpt>
      <trkpt lat="45.24483" lon="4.07816">
        <ele>694.69</ele>
        <time>2011-12-10T15:54:43Z</time>
      </trkpt>
      <trkpt lat="45.24522" lon="4.08003">
        <ele>681.23</ele>
        <time>2011-12-10T15:54:52Z</time>
      </trkpt>
      <trkpt lat="45.24528" lon="4.08019">
        <ele>680.75</ele>
        <time>2011-12-10T15:54:53Z</time>
      </trkpt>
      <trkpt lat="45.24542" lon="4.08047">
        <ele>679.31</ele>
        <time>2011-12-10T15:54:55Z</time>
      </trkpt>
      <trkpt lat="45.24547" lon="4.08064">
        <ele>678.35</ele>
        <time>2011-12-10T15:54:56Z</time>
      </trkpt>
      <trkpt lat="45.24553" lon="4.08081">
        <ele>677.39</ele>
        <time>2011-12-10T15:54:57Z</time>
      </trkpt>
      <trkpt lat="45.24574" lon="4.0813">
        <ele>673.06</ele>
        <time>2011-12-10T15:55:00Z</time>
      </trkpt>
      <trkpt lat="45.2459" lon="4.08161">
        <ele>670.18</ele>
        <time>2011-12-10T15:55:02Z</time>
      </trkpt>
      <trkpt lat="45.24631" lon="4.08263">
        <ele>661.04</ele>
        <time>2011-12-10T15:55:08Z</time>
      </trkpt>
      <trkpt lat="45.24646" lon="4.08296">
        <ele>658.64</ele>
        <time>2011-12-10T15:55:10Z</time>
      </trkpt>
      <trkpt lat="45.24707" lon="4.08479">
        <ele>646.62</ele>
        <time>2011-12-10T15:55:20Z</time>
      </trkpt>
      <trkpt lat="45.24713" lon="4.08496">
        <ele>645.66</ele>
        <time>2011-12-10T15:55:21Z</time>
      </trkpt>
      <trkpt lat="45.24729" lon="4.08525">
        <ele>642.78</ele>
        <time>2011-12-10T15:55:23Z</time>
      </trkpt>
      <trkpt lat="45.2474" lon="4.08535">
        <ele>641.82</ele>
        <time>2011-12-10T15:55:24Z</time>
      </trkpt>
      <trkpt lat="45.24752" lon="4.08543">
        <ele>640.38</ele>
        <time>2011-12-10T15:55:25Z</time>
      </trkpt>
      <trkpt lat="45.24789" lon="4.08565">
        <ele>636.05</ele>
        <time>2011-12-10T15:55:28Z</time>
      </trkpt>
      <trkpt lat="45.24801" lon="4.08575">
        <ele>634.61</ele>
        <time>2011-12-10T15:55:29Z</time>
      </trkpt>
      <trkpt lat="45.24905" lon="4.08658">
        <ele>624.03</ele>
        <time>2011-12-10T15:55:38Z</time>
      </trkpt>
      <trkpt lat="45.24936" lon="4.08682">
        <ele>622.59</ele>
        <time>2011-12-10T15:55:41Z</time>
      </trkpt>
      <trkpt lat="45.25035" lon="4.08706">
        <ele>615.38</ele>
        <time>2011-12-10T15:55:50Z</time>
      </trkpt>
      <trkpt lat="45.25072" lon="4.08718">
        <ele>612.5</ele>
        <time>2011-12-10T15:55:53Z</time>
      </trkpt>
      <trkpt lat="45.25095" lon="4.08733">
        <ele>610.09</ele>
        <time>2011-12-10T15:55:55Z</time>
      </trkpt>
      <trkpt lat="45.25104" lon="4.08743">
        <ele>609.13</ele>
        <time>2011-12-10T15:55:56Z</time>
      </trkpt>
      <trkpt lat="45.25112" lon="4.08756">
        <ele>608.65</ele>
        <time>2011-12-10T15:55:57Z</time>
      </trkpt>
      <trkpt lat="45.25117" lon="4.08769">
        <ele>607.69</ele>
        <time>2011-12-10T15:55:58Z</time>
      </trkpt>
      <trkpt lat="45.2512" lon="4.08785">
        <ele>607.69</ele>
        <time>2011-12-10T15:55:59Z</time>
      </trkpt>
      <trkpt lat="45.2512" lon="4.088">
        <ele>607.21</ele>
        <time>2011-12-10T15:56:00Z</time>
      </trkpt>
      <trkpt lat="45.25119" lon="4.08816">
        <ele>606.73</ele>
        <time>2011-12-10T15:56:01Z</time>
      </trkpt>
      <trkpt lat="45.25118" lon="4.08831">
        <ele>606.25</ele>
        <time>2011-12-10T15:56:02Z</time>
      </trkpt>
      <trkpt lat="45.25117" lon="4.08886">
        <ele>605.77</ele>
        <time>2011-12-10T15:56:06Z</time>
      </trkpt>
      <trkpt lat="45.25119" lon="4.08899">
        <ele>605.29</ele>
        <time>2011-12-10T15:56:07Z</time>
      </trkpt>
      <trkpt lat="45.25122" lon="4.08912">
        <ele>604.81</ele>
        <time>2011-12-10T15:56:08Z</time>
      </trkpt>
      <trkpt lat="45.25125" lon="4.08924">
        <ele>604.33</ele>
        <time>2011-12-10T15:56:09Z</time>
      </trkpt>
      <trkpt lat="45.25129" lon="4.08937">
        <ele>603.85</ele>
        <time>2011-12-10T15:56:10Z</time>
      </trkpt>
      <trkpt lat="45.25137" lon="4.08974">
        <ele>602.4</ele>
        <time>2011-12-10T15:56:13Z</time>
      </trkpt>
      <trkpt lat="45.25138" lon="4.08985">
        <ele>601.92</ele>
        <time>2011-12-10T15:56:14Z</time>
      </trkpt>
      <trkpt lat="45.25136" lon="4.08997">
        <ele>601.44</ele>
        <time>2011-12-10T15:56:15Z</time>
      </trkpt>
      <trkpt lat="45.25132" lon="4.09019">
        <ele>600.48</ele>
        <time>2011-12-10T15:56:17Z</time>
      </trkpt>
      <trkpt lat="45.25131" lon="4.0903">
        <ele>600</ele>
        <time>2011-12-10T15:56:18Z</time>
      </trkpt>
      <trkpt lat="45.25132" lon="4.09041">
        <ele>600</ele>
        <time>2011-12-10T15:56:19Z</time>
      </trkpt>
      <trkpt lat="45.25134" lon="4.09051">
        <ele>600</ele>
        <time>2011-12-10T15:56:20Z</time>
      </trkpt>
      <trkpt lat="45.25136" lon="4.09062">
        <ele>599.52</ele>
        <time>2011-12-10T15:56:21Z</time>
      </trkpt>
      <trkpt lat="45.25138" lon="4.09073">
        <ele>599.04</ele>
        <time>2011-12-10T15:56:22Z</time>
      </trkpt>
      <trkpt lat="45.25139" lon="4.09083">
        <ele>599.04</ele>
        <time>2011-12-10T15:56:23Z</time>
      </trkpt>
      <trkpt lat="45.25139" lon="4.09094">
        <ele>598.56</ele>
        <time>2011-12-10T15:56:24Z</time>
      </trkpt>
      <trkpt lat="45.25139" lon="4.09106">
        <ele>598.08</ele>
        <time>2011-12-10T15:56:25Z</time>
      </trkpt>
      <trkpt lat="45.2514" lon="4.09153">
        <ele>596.15</ele>
        <time>2011-12-10T15:56:29Z</time>
      </trkpt>
      <trkpt lat="45.25141" lon="4.09165">
        <ele>595.67</ele>
        <time>2011-12-10T15:56:30Z</time>
      </trkpt>
      <trkpt lat="45.25144" lon="4.09176">
        <ele>595.19</ele>
        <time>2011-12-10T15:56:31Z</time>
      </trkpt>
      <trkpt lat="45.25148" lon="4.09186">
        <ele>594.71</ele>
        <time>2011-12-10T15:56:32Z</time>
      </trkpt>
      <trkpt lat="45.25152" lon="4.09193">
        <ele>594.23</ele>
        <time>2011-12-10T15:56:33Z</time>
      </trkpt>
      <trkpt lat="45.25158" lon="4.09199">
        <ele>594.23</ele>
        <time>2011-12-10T15:56:34Z</time>
      </trkpt>
      <trkpt lat="45.25164" lon="4.09203">
        <ele>593.75</ele>
        <time>2011-12-10T15:56:35Z</time>
      </trkpt>
      <trkpt lat="45.2517" lon="4.09208">
        <ele>592.79</ele>
        <time>2011-12-10T15:56:36Z</time>
      </trkpt>
      <trkpt lat="45.25177" lon="4.09211">
        <ele>592.31</ele>
        <time>2011-12-10T15:56:37Z</time>
      </trkpt>
      <trkpt lat="45.25184" lon="4.09214">
        <ele>592.31</ele>
        <time>2011-12-10T15:56:38Z</time>
      </trkpt>
      <trkpt lat="45.25278" lon="4.09258">
        <ele>588.46</ele>
        <time>2011-12-10T15:56:50Z</time>
      </trkpt>
      <trkpt lat="45.25374" lon="4.09325">
        <ele>582.7</ele>
        <time>2011-12-10T15:57:01Z</time>
      </trkpt>
      <trkpt lat="45.25461" lon="4.09422">
        <ele>577.41</ele>
        <time>2011-12-10T15:57:13Z</time>
      </trkpt>
      <trkpt lat="45.25504" lon="4.09495">
        <ele>574.04</ele>
        <time>2011-12-10T15:57:21Z</time>
      </trkpt>
      <trkpt lat="45.2551" lon="4.09497">
        <ele>574.04</ele>
        <time>2011-12-10T15:57:22Z</time>
      </trkpt>
      <trkpt lat="45.25515" lon="4.09495">
        <ele>574.04</ele>
        <time>2011-12-10T15:57:23Z</time>
      </trkpt>
      <trkpt lat="45.2552" lon="4.09491">
        <ele>574.04</ele>
        <time>2011-12-10T15:57:24Z</time>
      </trkpt>
      <trkpt lat="45.25523" lon="4.09485">
        <ele>574.04</ele>
        <time>2011-12-10T15:57:25Z</time>
      </trkpt>
      <trkpt lat="45.25526" lon="4.09479">
        <ele>573.56</ele>
        <time>2011-12-10T15:57:26Z</time>
      </trkpt>
      <trkpt lat="45.25529" lon="4.09473">
        <ele>573.56</ele>
        <time>2011-12-10T15:57:27Z</time>
      </trkpt>
      <trkpt lat="45.2554" lon="4.09446">
        <ele>574.53</ele>
        <time>2011-12-10T15:57:31Z</time>
      </trkpt>
      <trkpt lat="45.25559" lon="4.09392">
        <ele>575.01</ele>
        <time>2011-12-10T15:57:38Z</time>
      </trkpt>
      <trkpt lat="45.2556" lon="4.09383">
        <ele>574.53</ele>
        <time>2011-12-10T15:57:39Z</time>
      </trkpt>
      <trkpt lat="45.25561" lon="4.09375">
        <ele>574.53</ele>
        <time>2011-12-10T15:57:40Z</time>
      </trkpt>
      <trkpt lat="45.25562" lon="4.09359">
        <ele>574.53</ele>
        <time>2011-12-10T15:57:42Z</time>
      </trkpt>
      <trkpt lat="45.25562" lon="4.09351">
        <ele>574.53</ele>
        <time>2011-12-10T15:57:43Z</time>
      </trkpt>
      <trkpt lat="45.25562" lon="4.09344">
        <ele>574.53</ele>
        <time>2011-12-10T15:57:44Z</time>
      </trkpt>
      <trkpt lat="45.25563" lon="4.0933">
        <ele>575.01</ele>
        <time>2011-12-10T15:57:46Z</time>
      </trkpt>
      <trkpt lat="45.25564" lon="4.09324">
        <ele>575.49</ele>
        <time>2011-12-10T15:57:47Z</time>
      </trkpt>
      <trkpt lat="45.25566" lon="4.09319">
        <ele>575.49</ele>
        <time>2011-12-10T15:57:48Z</time>
      </trkpt>
      <trkpt lat="45.25569" lon="4.09314">
        <ele>575.49</ele>
        <time>2011-12-10T15:57:49Z</time>
      </trkpt>
      <trkpt lat="45.25571" lon="4.0931">
        <ele>575.97</ele>
        <time>2011-12-10T15:57:50Z</time>
      </trkpt>
      <trkpt lat="45.25574" lon="4.09306">
        <ele>576.45</ele>
        <time>2011-12-10T15:57:51Z</time>
      </trkpt>
      <trkpt lat="45.25577" lon="4.09303">
        <ele>576.93</ele>
        <time>2011-12-10T15:57:52Z</time>
      </trkpt>
      <trkpt lat="45.25581" lon="4.093">
        <ele>576.93</ele>
        <time>2011-12-10T15:57:53Z</time>
      </trkpt>
      <trkpt lat="45.25584" lon="4.09297">
        <ele>577.41</ele>
        <time>2011-12-10T15:57:54Z</time>
      </trkpt>
      <trkpt lat="45.25588" lon="4.09295">
        <ele>577.89</ele>
        <time>2011-12-10T15:57:55Z</time>
      </trkpt>
      <trkpt lat="45.25599" lon="4.09289">
        <ele>579.33</ele>
        <time>2011-12-10T15:57:58Z</time>
      </trkpt>
      <trkpt lat="45.25602" lon="4.09287">
        <ele>579.33</ele>
        <time>2011-12-10T15:57:59Z</time>
      </trkpt>
      <trkpt lat="45.25644" lon="4.09252">
        <ele>582.7</ele>
        <time>2011-12-10T15:58:13Z</time>
      </trkpt>
      <trkpt lat="45.25691" lon="4.09227">
        <ele>585.58</ele>
        <time>2011-12-10T15:58:27Z</time>
      </trkpt>
      <trkpt lat="45.25722" lon="4.09203">
        <ele>587.98</ele>
        <time>2011-12-10T15:58:38Z</time>
      </trkpt>
      <trkpt lat="45.25761" lon="4.09176">
        <ele>592.31</ele>
        <time>2011-12-10T15:58:52Z</time>
      </trkpt>
      <trkpt lat="45.25789" lon="4.09186">
        <ele>590.87</ele>
        <time>2011-12-10T15:59:02Z</time>
      </trkpt>
      <trkpt lat="45.25799" lon="4.092">
        <ele>589.43</ele>
        <time>2011-12-10T15:59:05Z</time>
      </trkpt>
      <trkpt lat="45.25831" lon="4.09249">
        <ele>586.06</ele>
        <time>2011-12-10T15:59:12Z</time>
      </trkpt>
      <trkpt lat="45.25858" lon="4.093">
        <ele>582.7</ele>
        <time>2011-12-10T15:59:18Z</time>
      </trkpt>
      <trkpt lat="45.25861" lon="4.09305">
        <ele>582.22</ele>
        <time>2011-12-10T15:59:19Z</time>
      </trkpt>
      <trkpt lat="45.25866" lon="4.09308">
        <ele>582.22</ele>
        <time>2011-12-10T15:59:20Z</time>
      </trkpt>
      <trkpt lat="45.25872" lon="4.09307">
        <ele>581.73</ele>
        <time>2011-12-10T15:59:21Z</time>
      </trkpt>
      <trkpt lat="45.25877" lon="4.09304">
        <ele>581.25</ele>
        <time>2011-12-10T15:59:22Z</time>
      </trkpt>
      <trkpt lat="45.25882" lon="4.09301">
        <ele>580.77</ele>
        <time>2011-12-10T15:59:23Z</time>
      </trkpt>
      <trkpt lat="45.25887" lon="4.09297">
        <ele>580.29</ele>
        <time>2011-12-10T15:59:24Z</time>
      </trkpt>
      <trkpt lat="45.25903" lon="4.09285">
        <ele>579.81</ele>
        <time>2011-12-10T15:59:27Z</time>
      </trkpt>
      <trkpt lat="45.2591" lon="4.09283">
        <ele>579.81</ele>
        <time>2011-12-10T15:59:28Z</time>
      </trkpt>
      <trkpt lat="45.25916" lon="4.09282">
        <ele>579.81</ele>
        <time>2011-12-10T15:59:29Z</time>
      </trkpt>
      <trkpt lat="45.25923" lon="4.09283">
        <ele>579.81</ele>
        <time>2011-12-10T15:59:30Z</time>
      </trkpt>
      <trkpt lat="45.25929" lon="4.09284">
        <ele>579.33</ele>
        <time>2011-12-10T15:59:31Z</time>
      </trkpt>
      <trkpt lat="45.25936" lon="4.09287">
        <ele>579.33</ele>
        <time>2011-12-10T15:59:32Z</time>
      </trkpt>
      <trkpt lat="45.25942" lon="4.0929">
        <ele>578.85</ele>
        <time>2011-12-10T15:59:33Z</time>
      </trkpt>
      <trkpt lat="45.25949" lon="4.09295">
        <ele>578.37</ele>
        <time>2011-12-10T15:59:34Z</time>
      </trkpt>
      <trkpt lat="45.2599" lon="4.09342">
        <ele>576.45</ele>
        <time>2011-12-10T15:59:41Z</time>
      </trkpt>
      <trkpt lat="45.25996" lon="4.0935">
        <ele>575.97</ele>
        <time>2011-12-10T15:59:42Z</time>
      </trkpt>
      <trkpt lat="45.26001" lon="4.09356">
        <ele>575.49</ele>
        <time>2011-12-10T15:59:43Z</time>
      </trkpt>
      <trkpt lat="45.26006" lon="4.09361">
        <ele>575.01</ele>
        <time>2011-12-10T15:59:44Z</time>
      </trkpt>
      <trkpt lat="45.2601" lon="4.09365">
        <ele>574.53</ele>
        <time>2011-12-10T15:59:45Z</time>
      </trkpt>
      <trkpt lat="45.26014" lon="4.09368">
        <ele>574.04</ele>
        <time>2011-12-10T15:59:46Z</time>
      </trkpt>
      <trkpt lat="45.26018" lon="4.09371">
        <ele>574.04</ele>
        <time>2011-12-10T15:59:47Z</time>
      </trkpt>
      <trkpt lat="45.26023" lon="4.09373">
        <ele>573.56</ele>
        <time>2011-12-10T15:59:48Z</time>
      </trkpt>
      <trkpt lat="45.26028" lon="4.09374">
        <ele>573.56</ele>
        <time>2011-12-10T15:59:49Z</time>
      </trkpt>
      <trkpt lat="45.26033" lon="4.09373">
        <ele>573.56</ele>
        <time>2011-12-10T15:59:50Z</time>
      </trkpt>
      <trkpt lat="45.26038" lon="4.09371">
        <ele>573.56</ele>
        <time>2011-12-10T15:59:51Z</time>
      </trkpt>
      <trkpt lat="45.26043" lon="4.09368">
        <ele>573.56</ele>
        <time>2011-12-10T15:59:52Z</time>
      </trkpt>
      <trkpt lat="45.26048" lon="4.09365">
        <ele>573.56</ele>
        <time>2011-12-10T15:59:53Z</time>
      </trkpt>
      <trkpt lat="45.2608" lon="4.09348">
        <ele>572.12</ele>
        <time>2011-12-10T16:00:00Z</time>
      </trkpt>
      <trkpt lat="45.26083" lon="4.0935">
        <ele>572.12</ele>
        <time>2011-12-10T16:00:01Z</time>
      </trkpt>
      <trkpt lat="45.26085" lon="4.09354">
        <ele>571.64</ele>
        <time>2011-12-10T16:00:02Z</time>
      </trkpt>
      <trkpt lat="45.26086" lon="4.0936">
        <ele>571.64</ele>
        <time>2011-12-10T16:00:03Z</time>
      </trkpt>
      <trkpt lat="45.26085" lon="4.09367">
        <ele>571.16</ele>
        <time>2011-12-10T16:00:04Z</time>
      </trkpt>
      <trkpt lat="45.26075" lon="4.09432">
        <ele>568.76</ele>
        <time>2011-12-10T16:00:11Z</time>
      </trkpt>
      <trkpt lat="45.26071" lon="4.09441">
        <ele>568.76</ele>
        <time>2011-12-10T16:00:12Z</time>
      </trkpt>
      <trkpt lat="45.2601" lon="4.09557">
        <ele>559.14</ele>
        <time>2011-12-10T16:00:23Z</time>
      </trkpt>
      <trkpt lat="45.25981" lon="4.0961">
        <ele>554.34</ele>
        <time>2011-12-10T16:00:27Z</time>
      </trkpt>
      <trkpt lat="45.25977" lon="4.09625">
        <ele>552.9</ele>
        <time>2011-12-10T16:00:28Z</time>
      </trkpt>
      <trkpt lat="45.25975" lon="4.0964">
        <ele>551.93</ele>
        <time>2011-12-10T16:00:29Z</time>
      </trkpt>
      <trkpt lat="45.25974" lon="4.09656">
        <ele>550.97</ele>
        <time>2011-12-10T16:00:30Z</time>
      </trkpt>
      <trkpt lat="45.25976" lon="4.09672">
        <ele>550.49</ele>
        <time>2011-12-10T16:00:31Z</time>
      </trkpt>
      <trkpt lat="45.2598" lon="4.09687">
        <ele>549.53</ele>
        <time>2011-12-10T16:00:32Z</time>
      </trkpt>
      <trkpt lat="45.25984" lon="4.09701">
        <ele>549.05</ele>
        <time>2011-12-10T16:00:33Z</time>
      </trkpt>
      <trkpt lat="45.26019" lon="4.09793">
        <ele>544.72</ele>
        <time>2011-12-10T16:00:42Z</time>
      </trkpt>
      <trkpt lat="45.26021" lon="4.09805">
        <ele>543.76</ele>
        <time>2011-12-10T16:00:45Z</time>
      </trkpt>
      <trkpt lat="45.2602" lon="4.09806">
        <ele>542.8</ele>
        <time>2011-12-10T16:00:47Z</time>
      </trkpt>
      <trkpt lat="45.26019" lon="4.09806">
        <ele>542.32</ele>
        <time>2011-12-10T16:01:04Z</time>
      </trkpt>
      <trkpt lat="45.26021" lon="4.0981">
        <ele>544.72</ele>
        <time>2011-12-10T16:05:08Z</time>
      </trkpt>
      <trkpt lat="45.26022" lon="4.09811">
        <ele>545.2</ele>
        <time>2011-12-10T16:05:09Z</time>
      </trkpt>
      <trkpt lat="45.26024" lon="4.0981">
        <ele>545.2</ele>
        <time>2011-12-10T16:05:10Z</time>
      </trkpt>
      <trkpt lat="45.26027" lon="4.09805">
        <ele>545.69</ele>
        <time>2011-12-10T16:05:13Z</time>
      </trkpt>
      <trkpt lat="45.26028" lon="4.09805">
        <ele>545.2</ele>
        <time>2011-12-10T16:05:14Z</time>
      </trkpt>
      <trkpt lat="45.26029" lon="4.09806">
        <ele>545.2</ele>
        <time>2011-12-10T16:05:15Z</time>
      </trkpt>
      <trkpt lat="45.26031" lon="4.09809">
        <ele>544.72</ele>
        <time>2011-12-10T16:05:16Z</time>
      </trkpt>
      <trkpt lat="45.26033" lon="4.09813">
        <ele>544.72</ele>
        <time>2011-12-10T16:05:17Z</time>
      </trkpt>
      <trkpt lat="45.26035" lon="4.09816">
        <ele>544.24</ele>
        <time>2011-12-10T16:05:18Z</time>
      </trkpt>
      <trkpt lat="45.26038" lon="4.0982">
        <ele>544.24</ele>
        <time>2011-12-10T16:05:19Z</time>
      </trkpt>
      <trkpt lat="45.26041" lon="4.09825">
        <ele>543.76</ele>
        <time>2011-12-10T16:05:20Z</time>
      </trkpt>
      <trkpt lat="45.26044" lon="4.09831">
        <ele>543.28</ele>
        <time>2011-12-10T16:05:21Z</time>
      </trkpt>
      <trkpt lat="45.26048" lon="4.09837">
        <ele>543.28</ele>
        <time>2011-12-10T16:05:22Z</time>
      </trkpt>
      <trkpt lat="45.26068" lon="4.09866">
        <ele>541.84</ele>
        <time>2011-12-10T16:05:27Z</time>
      </trkpt>
      <trkpt lat="45.26074" lon="4.0988">
        <ele>541.84</ele>
        <time>2011-12-10T16:05:29Z</time>
      </trkpt>
      <trkpt lat="45.26079" lon="4.09896">
        <ele>541.84</ele>
        <time>2011-12-10T16:05:31Z</time>
      </trkpt>
      <trkpt lat="45.26082" lon="4.09913">
        <ele>541.84</ele>
        <time>2011-12-10T16:05:33Z</time>
      </trkpt>
      <trkpt lat="45.26082" lon="4.09921">
        <ele>541.36</ele>
        <time>2011-12-10T16:05:34Z</time>
      </trkpt>
      <trkpt lat="45.26081" lon="4.09929">
        <ele>541.36</ele>
        <time>2011-12-10T16:05:35Z</time>
      </trkpt>
      <trkpt lat="45.26081" lon="4.09938">
        <ele>541.36</ele>
        <time>2011-12-10T16:05:36Z</time>
      </trkpt>
      <trkpt lat="45.26079" lon="4.09946">
        <ele>540.88</ele>
        <time>2011-12-10T16:05:37Z</time>
      </trkpt>
      <trkpt lat="45.26077" lon="4.09954">
        <ele>540.88</ele>
        <time>2011-12-10T16:05:38Z</time>
      </trkpt>
      <trkpt lat="45.26053" lon="4.10036">
        <ele>541.84</ele>
        <time>2011-12-10T16:05:50Z</time>
      </trkpt>
      <trkpt lat="45.26045" lon="4.10079">
        <ele>545.69</ele>
        <time>2011-12-10T16:06:00Z</time>
      </trkpt>
      <trkpt lat="45.26047" lon="4.10085">
        <ele>545.69</ele>
        <time>2011-12-10T16:06:01Z</time>
      </trkpt>
      <trkpt lat="45.26049" lon="4.10089">
        <ele>546.17</ele>
        <time>2011-12-10T16:06:02Z</time>
      </trkpt>
      <trkpt lat="45.26051" lon="4.10093">
        <ele>546.65</ele>
        <time>2011-12-10T16:06:03Z</time>
      </trkpt>
      <trkpt lat="45.26053" lon="4.10098">
        <ele>546.65</ele>
        <time>2011-12-10T16:06:04Z</time>
      </trkpt>
      <trkpt lat="45.26055" lon="4.10102">
        <ele>546.65</ele>
        <time>2011-12-10T16:06:05Z</time>
      </trkpt>
      <trkpt lat="45.26057" lon="4.10107">
        <ele>546.65</ele>
        <time>2011-12-10T16:06:06Z</time>
      </trkpt>
      <trkpt lat="45.26059" lon="4.10112">
        <ele>546.65</ele>
        <time>2011-12-10T16:06:07Z</time>
      </trkpt>
      <trkpt lat="45.2606" lon="4.10116">
        <ele>546.65</ele>
        <time>2011-12-10T16:06:08Z</time>
      </trkpt>
      <trkpt lat="45.26062" lon="4.10121">
        <ele>547.13</ele>
        <time>2011-12-10T16:06:09Z</time>
      </trkpt>
      <trkpt lat="45.26063" lon="4.10126">
        <ele>547.61</ele>
        <time>2011-12-10T16:06:10Z</time>
      </trkpt>
      <trkpt lat="45.26064" lon="4.10131">
        <ele>548.09</ele>
        <time>2011-12-10T16:06:11Z</time>
      </trkpt>
      <trkpt lat="45.26065" lon="4.10136">
        <ele>548.09</ele>
        <time>2011-12-10T16:06:12Z</time>
      </trkpt>
      <trkpt lat="45.26066" lon="4.10141">
        <ele>548.57</ele>
        <time>2011-12-10T16:06:13Z</time>
      </trkpt>
      <trkpt lat="45.26095" lon="4.102">
        <ele>549.05</ele>
        <time>2011-12-10T16:06:26Z</time>
      </trkpt>
      <trkpt lat="45.26098" lon="4.10204">
        <ele>549.05</ele>
        <time>2011-12-10T16:06:27Z</time>
      </trkpt>
      <trkpt lat="45.26102" lon="4.10208">
        <ele>548.57</ele>
        <time>2011-12-10T16:06:28Z</time>
      </trkpt>
      <trkpt lat="45.26167" lon="4.10293">
        <ele>546.65</ele>
        <time>2011-12-10T16:06:43Z</time>
      </trkpt>
      <trkpt lat="45.26249" lon="4.10411">
        <ele>543.76</ele>
        <time>2011-12-10T16:06:59Z</time>
      </trkpt>
      <trkpt lat="45.26289" lon="4.10488">
        <ele>547.61</ele>
        <time>2011-12-10T16:07:11Z</time>
      </trkpt>
      <trkpt lat="45.26321" lon="4.10572">
        <ele>551.93</ele>
        <time>2011-12-10T16:07:26Z</time>
      </trkpt>
      <trkpt lat="45.26346" lon="4.10638">
        <ele>554.34</ele>
        <time>2011-12-10T16:07:39Z</time>
      </trkpt>
      <trkpt lat="45.26358" lon="4.1066">
        <ele>555.3</ele>
        <time>2011-12-10T16:07:44Z</time>
      </trkpt>
      <trkpt lat="45.26361" lon="4.10662">
        <ele>555.3</ele>
        <time>2011-12-10T16:07:45Z</time>
      </trkpt>
      <trkpt lat="45.26404" lon="4.10675">
        <ele>556.26</ele>
        <time>2011-12-10T16:07:57Z</time>
      </trkpt>
      <trkpt lat="45.26409" lon="4.10675">
        <ele>556.26</ele>
        <time>2011-12-10T16:07:58Z</time>
      </trkpt>
      <trkpt lat="45.26462" lon="4.10679">
        <ele>557.7</ele>
        <time>2011-12-10T16:08:11Z</time>
      </trkpt>
      <trkpt lat="45.26481" lon="4.10682">
        <ele>557.22</ele>
        <time>2011-12-10T16:08:16Z</time>
      </trkpt>
      <trkpt lat="45.26485" lon="4.10684">
        <ele>557.22</ele>
        <time>2011-12-10T16:08:17Z</time>
      </trkpt>
      <trkpt lat="45.2649" lon="4.10684">
        <ele>557.22</ele>
        <time>2011-12-10T16:08:18Z</time>
      </trkpt>
      <trkpt lat="45.26494" lon="4.10684">
        <ele>557.22</ele>
        <time>2011-12-10T16:08:19Z</time>
      </trkpt>
      <trkpt lat="45.26498" lon="4.10682">
        <ele>557.22</ele>
        <time>2011-12-10T16:08:20Z</time>
      </trkpt>
      <trkpt lat="45.26502" lon="4.10679">
        <ele>557.7</ele>
        <time>2011-12-10T16:08:21Z</time>
      </trkpt>
      <trkpt lat="45.26512" lon="4.10671">
        <ele>558.18</ele>
        <time>2011-12-10T16:08:24Z</time>
      </trkpt>
      <trkpt lat="45.26566" lon="4.10617">
        <ele>561.55</ele>
        <time>2011-12-10T16:08:40Z</time>
      </trkpt>
      <trkpt lat="45.26595" lon="4.10589">
        <ele>562.03</ele>
        <time>2011-12-10T16:08:49Z</time>
      </trkpt>
      <trkpt lat="45.26637" lon="4.10543">
        <ele>563.95</ele>
        <time>2011-12-10T16:09:02Z</time>
      </trkpt>
      <trkpt lat="45.26664" lon="4.10521">
        <ele>565.39</ele>
        <time>2011-12-10T16:09:10Z</time>
      </trkpt>
      <trkpt lat="45.2669" lon="4.10515">
        <ele>565.87</ele>
        <time>2011-12-10T16:09:16Z</time>
      </trkpt>
      <trkpt lat="45.26704" lon="4.10517">
        <ele>565.87</ele>
        <time>2011-12-10T16:09:19Z</time>
      </trkpt>
      <trkpt lat="45.26714" lon="4.1052">
        <ele>565.39</ele>
        <time>2011-12-10T16:09:21Z</time>
      </trkpt>
      <trkpt lat="45.26719" lon="4.10522">
        <ele>565.39</ele>
        <time>2011-12-10T16:09:22Z</time>
      </trkpt>
      <trkpt lat="45.26735" lon="4.10531">
        <ele>564.91</ele>
        <time>2011-12-10T16:09:25Z</time>
      </trkpt>
      <trkpt lat="45.26832" lon="4.1056">
        <ele>561.55</ele>
        <time>2011-12-10T16:09:39Z</time>
      </trkpt>
      <trkpt lat="45.26839" lon="4.10563">
        <ele>561.07</ele>
        <time>2011-12-10T16:09:40Z</time>
      </trkpt>
      <trkpt lat="45.26845" lon="4.10566">
        <ele>561.07</ele>
        <time>2011-12-10T16:09:41Z</time>
      </trkpt>
      <trkpt lat="45.26858" lon="4.10574">
        <ele>561.07</ele>
        <time>2011-12-10T16:09:43Z</time>
      </trkpt>
      <trkpt lat="45.26971" lon="4.10635">
        <ele>555.3</ele>
        <time>2011-12-10T16:09:58Z</time>
      </trkpt>
      <trkpt lat="45.27066" lon="4.10639">
        <ele>554.82</ele>
        <time>2011-12-10T16:10:11Z</time>
      </trkpt>
      <trkpt lat="45.27148" lon="4.10621">
        <ele>548.09</ele>
        <time>2011-12-10T16:10:21Z</time>
      </trkpt>
      <trkpt lat="45.27197" lon="4.10616">
        <ele>541.84</ele>
        <time>2011-12-10T16:10:28Z</time>
      </trkpt>
      <trkpt lat="45.27263" lon="4.10602">
        <ele>535.59</ele>
        <time>2011-12-10T16:10:36Z</time>
      </trkpt>
      <trkpt lat="45.27272" lon="4.10599">
        <ele>534.63</ele>
        <time>2011-12-10T16:10:37Z</time>
      </trkpt>
      <trkpt lat="45.27291" lon="4.10592">
        <ele>533.19</ele>
        <time>2011-12-10T16:10:39Z</time>
      </trkpt>
      <trkpt lat="45.27341" lon="4.10571">
        <ele>528.38</ele>
        <time>2011-12-10T16:10:44Z</time>
      </trkpt>
      <trkpt lat="45.27361" lon="4.10565">
        <ele>526.94</ele>
        <time>2011-12-10T16:10:46Z</time>
      </trkpt>
      <trkpt lat="45.27371" lon="4.1056">
        <ele>525.98</ele>
        <time>2011-12-10T16:10:47Z</time>
      </trkpt>
      <trkpt lat="45.27481" lon="4.10509">
        <ele>518.77</ele>
        <time>2011-12-10T16:10:58Z</time>
      </trkpt>
      <trkpt lat="45.27573" lon="4.10441">
        <ele>513</ele>
        <time>2011-12-10T16:11:07Z</time>
      </trkpt>
      <trkpt lat="45.27582" lon="4.10431">
        <ele>512.04</ele>
        <time>2011-12-10T16:11:08Z</time>
      </trkpt>
      <trkpt lat="45.27591" lon="4.1042">
        <ele>511.08</ele>
        <time>2011-12-10T16:11:09Z</time>
      </trkpt>
      <trkpt lat="45.27599" lon="4.10409">
        <ele>510.12</ele>
        <time>2011-12-10T16:11:10Z</time>
      </trkpt>
      <trkpt lat="45.27607" lon="4.10399">
        <ele>509.16</ele>
        <time>2011-12-10T16:11:11Z</time>
      </trkpt>
      <trkpt lat="45.27615" lon="4.10388">
        <ele>507.71</ele>
        <time>2011-12-10T16:11:12Z</time>
      </trkpt>
      <trkpt lat="45.2767" lon="4.10329">
        <ele>496.18</ele>
        <time>2011-12-10T16:11:18Z</time>
      </trkpt>
      <trkpt lat="45.27681" lon="4.10323">
        <ele>493.77</ele>
        <time>2011-12-10T16:11:19Z</time>
      </trkpt>
      <trkpt lat="45.27726" lon="4.10297">
        <ele>486.08</ele>
        <time>2011-12-10T16:11:23Z</time>
      </trkpt>
      <trkpt lat="45.27733" lon="4.1029">
        <ele>484.64</ele>
        <time>2011-12-10T16:11:24Z</time>
      </trkpt>
      <trkpt lat="45.27748" lon="4.10277">
        <ele>481.76</ele>
        <time>2011-12-10T16:11:26Z</time>
      </trkpt>
      <trkpt lat="45.27756" lon="4.10273">
        <ele>480.8</ele>
        <time>2011-12-10T16:11:27Z</time>
      </trkpt>
      <trkpt lat="45.27766" lon="4.1027">
        <ele>479.84</ele>
        <time>2011-12-10T16:11:28Z</time>
      </trkpt>
      <trkpt lat="45.27776" lon="4.10269">
        <ele>478.39</ele>
        <time>2011-12-10T16:11:29Z</time>
      </trkpt>
      <trkpt lat="45.27785" lon="4.1027">
        <ele>476.95</ele>
        <time>2011-12-10T16:11:30Z</time>
      </trkpt>
      <trkpt lat="45.27796" lon="4.10272">
        <ele>475.99</ele>
        <time>2011-12-10T16:11:31Z</time>
      </trkpt>
      <trkpt lat="45.27807" lon="4.10276">
        <ele>475.03</ele>
        <time>2011-12-10T16:11:32Z</time>
      </trkpt>
      <trkpt lat="45.27836" lon="4.10284">
        <ele>472.14</ele>
        <time>2011-12-10T16:11:35Z</time>
      </trkpt>
      <trkpt lat="45.27845" lon="4.10285">
        <ele>470.7</ele>
        <time>2011-12-10T16:11:36Z</time>
      </trkpt>
      <trkpt lat="45.27862" lon="4.10286">
        <ele>468.78</ele>
        <time>2011-12-10T16:11:38Z</time>
      </trkpt>
      <trkpt lat="45.27869" lon="4.10289">
        <ele>467.82</ele>
        <time>2011-12-10T16:11:39Z</time>
      </trkpt>
      <trkpt lat="45.27876" lon="4.10293">
        <ele>466.86</ele>
        <time>2011-12-10T16:11:40Z</time>
      </trkpt>
      <trkpt lat="45.27881" lon="4.10297">
        <ele>465.42</ele>
        <time>2011-12-10T16:11:41Z</time>
      </trkpt>
      <trkpt lat="45.27885" lon="4.10302">
        <ele>464.45</ele>
        <time>2011-12-10T16:11:42Z</time>
      </trkpt>
      <trkpt lat="45.27889" lon="4.10308">
        <ele>463.97</ele>
        <time>2011-12-10T16:11:43Z</time>
      </trkpt>
      <trkpt lat="45.27893" lon="4.10314">
        <ele>463.01</ele>
        <time>2011-12-10T16:11:44Z</time>
      </trkpt>
      <trkpt lat="45.27898" lon="4.10319">
        <ele>462.05</ele>
        <time>2011-12-10T16:11:45Z</time>
      </trkpt>
      <trkpt lat="45.27904" lon="4.10323">
        <ele>461.09</ele>
        <time>2011-12-10T16:11:46Z</time>
      </trkpt>
      <trkpt lat="45.27969" lon="4.10388">
        <ele>455.8</ele>
        <time>2011-12-10T16:11:58Z</time>
      </trkpt>
      <trkpt lat="45.2798" lon="4.10399">
        <ele>455.8</ele>
        <time>2011-12-10T16:12:00Z</time>
      </trkpt>
      <trkpt lat="45.2801" lon="4.10436">
        <ele>456.28</ele>
        <time>2011-12-10T16:12:06Z</time>
      </trkpt>
      <trkpt lat="45.28015" lon="4.10441">
        <ele>455.8</ele>
        <time>2011-12-10T16:12:07Z</time>
      </trkpt>
      <trkpt lat="45.28021" lon="4.10446">
        <ele>455.8</ele>
        <time>2011-12-10T16:12:08Z</time>
      </trkpt>
      <trkpt lat="45.2806" lon="4.10473">
        <ele>454.36</ele>
        <time>2011-12-10T16:12:14Z</time>
      </trkpt>
      <trkpt lat="45.28075" lon="4.10479">
        <ele>453.88</ele>
        <time>2011-12-10T16:12:16Z</time>
      </trkpt>
      <trkpt lat="45.28082" lon="4.10483">
        <ele>453.4</ele>
        <time>2011-12-10T16:12:17Z</time>
      </trkpt>
      <trkpt lat="45.28088" lon="4.10488">
        <ele>452.92</ele>
        <time>2011-12-10T16:12:18Z</time>
      </trkpt>
      <trkpt lat="45.28106" lon="4.10504">
        <ele>451.96</ele>
        <time>2011-12-10T16:12:21Z</time>
      </trkpt>
      <trkpt lat="45.28111" lon="4.1051">
        <ele>451.48</ele>
        <time>2011-12-10T16:12:22Z</time>
      </trkpt>
      <trkpt lat="45.28119" lon="4.10522">
        <ele>451</ele>
        <time>2011-12-10T16:12:24Z</time>
      </trkpt>
      <trkpt lat="45.28122" lon="4.10527">
        <ele>451</ele>
        <time>2011-12-10T16:12:25Z</time>
      </trkpt>
      <trkpt lat="45.28125" lon="4.10531">
        <ele>450.52</ele>
        <time>2011-12-10T16:12:26Z</time>
      </trkpt>
      <trkpt lat="45.28127" lon="4.10535">
        <ele>450.03</ele>
        <time>2011-12-10T16:12:27Z</time>
      </trkpt>
      <trkpt lat="45.28129" lon="4.10539">
        <ele>449.55</ele>
        <time>2011-12-10T16:12:28Z</time>
      </trkpt>
      <trkpt lat="45.28142" lon="4.10573">
        <ele>446.19</ele>
        <time>2011-12-10T16:12:38Z</time>
      </trkpt>
      <trkpt lat="45.28153" lon="4.10594">
        <ele>442.82</ele>
        <time>2011-12-10T16:12:46Z</time>
      </trkpt>
      <trkpt lat="45.28158" lon="4.10611">
        <ele>442.82</ele>
        <time>2011-12-10T16:12:51Z</time>
      </trkpt>
      <trkpt lat="45.28175" lon="4.10635">
        <ele>443.31</ele>
        <time>2011-12-10T16:13:01Z</time>
      </trkpt>
      <trkpt lat="45.28187" lon="4.10652">
        <ele>443.79</ele>
        <time>2011-12-10T16:13:11Z</time>
      </trkpt>
      <trkpt lat="45.282" lon="4.10673">
        <ele>441.86</ele>
        <time>2011-12-10T16:13:20Z</time>
      </trkpt>
      <trkpt lat="45.28217" lon="4.10704">
        <ele>439.94</ele>
        <time>2011-12-10T16:13:30Z</time>
      </trkpt>
      <trkpt lat="45.28254" lon="4.1074">
        <ele>440.42</ele>
        <time>2011-12-10T16:13:42Z</time>
      </trkpt>
      <trkpt lat="45.28279" lon="4.10763">
        <ele>442.34</ele>
        <time>2011-12-10T16:13:51Z</time>
      </trkpt>
      <trkpt lat="45.28305" lon="4.10797">
        <ele>445.23</ele>
        <time>2011-12-10T16:14:00Z</time>
      </trkpt>
      <trkpt lat="45.28325" lon="4.10838">
        <ele>444.27</ele>
        <time>2011-12-10T16:14:06Z</time>
      </trkpt>
      <trkpt lat="45.28335" lon="4.1086">
        <ele>444.27</ele>
        <time>2011-12-10T16:14:09Z</time>
      </trkpt>
      <trkpt lat="45.2836" lon="4.1092">
        <ele>446.19</ele>
        <time>2011-12-10T16:14:21Z</time>
      </trkpt>
      <trkpt lat="45.28378" lon="4.10973">
        <ele>445.71</ele>
        <time>2011-12-10T16:14:32Z</time>
      </trkpt>
      <trkpt lat="45.28386" lon="4.10997">
        <ele>445.71</ele>
        <time>2011-12-10T16:14:37Z</time>
      </trkpt>
      <trkpt lat="45.28391" lon="4.11007">
        <ele>446.67</ele>
        <time>2011-12-10T16:14:39Z</time>
      </trkpt>
      <trkpt lat="45.28402" lon="4.11026">
        <ele>447.63</ele>
        <time>2011-12-10T16:14:43Z</time>
      </trkpt>
      <trkpt lat="45.28406" lon="4.11037">
        <ele>448.11</ele>
        <time>2011-12-10T16:14:45Z</time>
      </trkpt>
      <trkpt lat="45.28412" lon="4.1106">
        <ele>448.11</ele>
        <time>2011-12-10T16:14:49Z</time>
      </trkpt>
      <trkpt lat="45.28424" lon="4.11086">
        <ele>447.63</ele>
        <time>2011-12-10T16:14:54Z</time>
      </trkpt>
      <trkpt lat="45.28433" lon="4.11101">
        <ele>447.63</ele>
        <time>2011-12-10T16:14:57Z</time>
      </trkpt>
      <trkpt lat="45.2844" lon="4.11117">
        <ele>447.15</ele>
        <time>2011-12-10T16:15:00Z</time>
      </trkpt>
      <trkpt lat="45.28447" lon="4.11133">
        <ele>446.67</ele>
        <time>2011-12-10T16:15:03Z</time>
      </trkpt>
      <trkpt lat="45.2845" lon="4.11156">
        <ele>446.67</ele>
        <time>2011-12-10T16:15:07Z</time>
      </trkpt>
      <trkpt lat="45.28453" lon="4.11194">
        <ele>448.11</ele>
        <time>2011-12-10T16:15:13Z</time>
      </trkpt>
      <trkpt lat="45.28452" lon="4.112">
        <ele>448.59</ele>
        <time>2011-12-10T16:15:14Z</time>
      </trkpt>
      <trkpt lat="45.28459" lon="4.11246">
        <ele>448.11</ele>
        <time>2011-12-10T16:15:24Z</time>
      </trkpt>
      <trkpt lat="45.28459" lon="4.11249">
        <ele>448.59</ele>
        <time>2011-12-10T16:15:25Z</time>
      </trkpt>
      <trkpt lat="45.28459" lon="4.11253">
        <ele>448.59</ele>
        <time>2011-12-10T16:15:26Z</time>
      </trkpt>
      <trkpt lat="45.2846" lon="4.11257">
        <ele>448.59</ele>
        <time>2011-12-10T16:15:27Z</time>
      </trkpt>
      <trkpt lat="45.2846" lon="4.11261">
        <ele>449.07</ele>
        <time>2011-12-10T16:15:28Z</time>
      </trkpt>
      <trkpt lat="45.28461" lon="4.11265">
        <ele>449.07</ele>
        <time>2011-12-10T16:15:29Z</time>
      </trkpt>
      <trkpt lat="45.28461" lon="4.11269">
        <ele>449.55</ele>
        <time>2011-12-10T16:15:30Z</time>
      </trkpt>
      <trkpt lat="45.28461" lon="4.11274">
        <ele>449.55</ele>
        <time>2011-12-10T16:15:31Z</time>
      </trkpt>
      <trkpt lat="45.28462" lon="4.11277">
        <ele>450.03</ele>
        <time>2011-12-10T16:15:32Z</time>
      </trkpt>
      <trkpt lat="45.28463" lon="4.11281">
        <ele>450.03</ele>
        <time>2011-12-10T16:15:33Z</time>
      </trkpt>
      <trkpt lat="45.28464" lon="4.11284">
        <ele>450.03</ele>
        <time>2011-12-10T16:15:34Z</time>
      </trkpt>
      <trkpt lat="45.28464" lon="4.11288">
        <ele>450.03</ele>
        <time>2011-12-10T16:15:35Z</time>
      </trkpt>
      <trkpt lat="45.28464" lon="4.11292">
        <ele>449.55</ele>
        <time>2011-12-10T16:15:36Z</time>
      </trkpt>
      <trkpt lat="45.28465" lon="4.11295">
        <ele>449.55</ele>
        <time>2011-12-10T16:15:37Z</time>
      </trkpt>
      <trkpt lat="45.28466" lon="4.113">
        <ele>450.03</ele>
        <time>2011-12-10T16:15:38Z</time>
      </trkpt>
      <trkpt lat="45.28476" lon="4.11341">
        <ele>453.88</ele>
        <time>2011-12-10T16:15:49Z</time>
      </trkpt>
      <trkpt lat="45.28476" lon="4.11343">
        <ele>453.88</ele>
        <time>2011-12-10T16:15:50Z</time>
      </trkpt>
      <trkpt lat="45.28475" lon="4.11345">
        <ele>454.36</ele>
        <time>2011-12-10T16:15:51Z</time>
      </trkpt>
      <trkpt lat="45.28469" lon="4.11355">
        <ele>457.72</ele>
        <time>2011-12-10T16:16:01Z</time>
      </trkpt>
      <trkpt lat="45.28467" lon="4.11358">
        <ele>457.72</ele>
        <time>2011-12-10T16:16:05Z</time>
      </trkpt>
      <trkpt lat="45.2848" lon="4.11396">
        <ele>455.32</ele>
        <time>2011-12-10T16:16:15Z</time>
      </trkpt>
      <trkpt lat="45.28483" lon="4.11401">
        <ele>455.32</ele>
        <time>2011-12-10T16:16:16Z</time>
      </trkpt>
      <trkpt lat="45.28487" lon="4.11405">
        <ele>454.84</ele>
        <time>2011-12-10T16:16:17Z</time>
      </trkpt>
      <trkpt lat="45.28494" lon="4.11414">
        <ele>454.84</ele>
        <time>2011-12-10T16:16:19Z</time>
      </trkpt>
      <trkpt lat="45.28498" lon="4.11418">
        <ele>454.36</ele>
        <time>2011-12-10T16:16:20Z</time>
      </trkpt>
      <trkpt lat="45.28503" lon="4.11421">
        <ele>454.36</ele>
        <time>2011-12-10T16:16:21Z</time>
      </trkpt>
      <trkpt lat="45.28509" lon="4.11424">
        <ele>453.88</ele>
        <time>2011-12-10T16:16:22Z</time>
      </trkpt>
      <trkpt lat="45.28515" lon="4.11425">
        <ele>453.88</ele>
        <time>2011-12-10T16:16:23Z</time>
      </trkpt>
      <trkpt lat="45.28521" lon="4.11425">
        <ele>453.88</ele>
        <time>2011-12-10T16:16:24Z</time>
      </trkpt>
      <trkpt lat="45.28527" lon="4.11424">
        <ele>453.88</ele>
        <time>2011-12-10T16:16:25Z</time>
      </trkpt>
      <trkpt lat="45.28533" lon="4.11422">
        <ele>453.88</ele>
        <time>2011-12-10T16:16:26Z</time>
      </trkpt>
      <trkpt lat="45.2854" lon="4.11419">
        <ele>453.88</ele>
        <time>2011-12-10T16:16:27Z</time>
      </trkpt>
      <trkpt lat="45.28614" lon="4.11376">
        <ele>454.36</ele>
        <time>2011-12-10T16:16:39Z</time>
      </trkpt>
      <trkpt lat="45.28621" lon="4.11374">
        <ele>453.88</ele>
        <time>2011-12-10T16:16:40Z</time>
      </trkpt>
      <trkpt lat="45.28627" lon="4.11373">
        <ele>453.88</ele>
        <time>2011-12-10T16:16:41Z</time>
      </trkpt>
      <trkpt lat="45.28633" lon="4.11372">
        <ele>453.88</ele>
        <time>2011-12-10T16:16:42Z</time>
      </trkpt>
      <trkpt lat="45.28638" lon="4.11372">
        <ele>454.36</ele>
        <time>2011-12-10T16:16:43Z</time>
      </trkpt>
      <trkpt lat="45.28705" lon="4.11391">
        <ele>459.17</ele>
        <time>2011-12-10T16:16:57Z</time>
      </trkpt>
      <trkpt lat="45.28777" lon="4.1142">
        <ele>463.01</ele>
        <time>2011-12-10T16:17:12Z</time>
      </trkpt>
      <trkpt lat="45.28868" lon="4.11455">
        <ele>466.86</ele>
        <time>2011-12-10T16:17:30Z</time>
      </trkpt>
      <trkpt lat="45.28943" lon="4.11484">
        <ele>468.3</ele>
        <time>2011-12-10T16:17:46Z</time>
      </trkpt>
      <trkpt lat="45.29002" lon="4.11507">
        <ele>471.18</ele>
        <time>2011-12-10T16:18:00Z</time>
      </trkpt>
      <trkpt lat="45.29028" lon="4.11534">
        <ele>471.66</ele>
        <time>2011-12-10T16:18:10Z</time>
      </trkpt>
      <trkpt lat="45.29058" lon="4.11574">
        <ele>471.18</ele>
        <time>2011-12-10T16:18:24Z</time>
      </trkpt>
      <trkpt lat="45.29082" lon="4.11612">
        <ele>470.7</ele>
        <time>2011-12-10T16:18:35Z</time>
      </trkpt>
      <trkpt lat="45.29118" lon="4.11704">
        <ele>468.3</ele>
        <time>2011-12-10T16:18:49Z</time>
      </trkpt>
      <trkpt lat="45.29125" lon="4.1172">
        <ele>467.82</ele>
        <time>2011-12-10T16:18:51Z</time>
      </trkpt>
      <trkpt lat="45.29129" lon="4.11727">
        <ele>467.34</ele>
        <time>2011-12-10T16:18:52Z</time>
      </trkpt>
      <trkpt lat="45.29134" lon="4.11734">
        <ele>467.34</ele>
        <time>2011-12-10T16:18:53Z</time>
      </trkpt>
      <trkpt lat="45.2914" lon="4.11741">
        <ele>466.86</ele>
        <time>2011-12-10T16:18:54Z</time>
      </trkpt>
      <trkpt lat="45.29146" lon="4.11747">
        <ele>466.86</ele>
        <time>2011-12-10T16:18:55Z</time>
      </trkpt>
      <trkpt lat="45.29152" lon="4.11753">
        <ele>466.38</ele>
        <time>2011-12-10T16:18:56Z</time>
      </trkpt>
      <trkpt lat="45.29159" lon="4.11758">
        <ele>465.9</ele>
        <time>2011-12-10T16:18:57Z</time>
      </trkpt>
      <trkpt lat="45.29165" lon="4.11762">
        <ele>465.42</ele>
        <time>2011-12-10T16:18:58Z</time>
      </trkpt>
      <trkpt lat="45.2918" lon="4.11769">
        <ele>464.93</ele>
        <time>2011-12-10T16:19:00Z</time>
      </trkpt>
      <trkpt lat="45.29187" lon="4.11771">
        <ele>464.45</ele>
        <time>2011-12-10T16:19:01Z</time>
      </trkpt>
      <trkpt lat="45.29195" lon="4.11771">
        <ele>463.97</ele>
        <time>2011-12-10T16:19:02Z</time>
      </trkpt>
      <trkpt lat="45.29303" lon="4.11755">
        <ele>458.21</ele>
        <time>2011-12-10T16:19:15Z</time>
      </trkpt>
      <trkpt lat="45.29398" lon="4.11728">
        <ele>452.44</ele>
        <time>2011-12-10T16:19:25Z</time>
      </trkpt>
      <trkpt lat="45.29408" lon="4.11727">
        <ele>451.96</ele>
        <time>2011-12-10T16:19:26Z</time>
      </trkpt>
      <trkpt lat="45.29418" lon="4.11728">
        <ele>451.48</ele>
        <time>2011-12-10T16:19:27Z</time>
      </trkpt>
      <trkpt lat="45.29481" lon="4.11739">
        <ele>448.59</ele>
        <time>2011-12-10T16:19:33Z</time>
      </trkpt>
      <trkpt lat="45.29491" lon="4.11738">
        <ele>448.11</ele>
        <time>2011-12-10T16:19:34Z</time>
      </trkpt>
      <trkpt lat="45.29502" lon="4.11736">
        <ele>447.63</ele>
        <time>2011-12-10T16:19:35Z</time>
      </trkpt>
      <trkpt lat="45.29575" lon="4.1171">
        <ele>445.71</ele>
        <time>2011-12-10T16:19:43Z</time>
      </trkpt>
      <trkpt lat="45.29583" lon="4.11713">
        <ele>445.71</ele>
        <time>2011-12-10T16:19:44Z</time>
      </trkpt>
      <trkpt lat="45.29588" lon="4.1172">
        <ele>445.71</ele>
        <time>2011-12-10T16:19:45Z</time>
      </trkpt>
      <trkpt lat="45.29591" lon="4.11729">
        <ele>446.19</ele>
        <time>2011-12-10T16:19:46Z</time>
      </trkpt>
      <trkpt lat="45.29592" lon="4.11738">
        <ele>446.19</ele>
        <time>2011-12-10T16:19:47Z</time>
      </trkpt>
      <trkpt lat="45.29592" lon="4.11747">
        <ele>446.19</ele>
        <time>2011-12-10T16:19:48Z</time>
      </trkpt>
      <trkpt lat="45.29592" lon="4.11757">
        <ele>446.19</ele>
        <time>2011-12-10T16:19:49Z</time>
      </trkpt>
      <trkpt lat="45.29591" lon="4.11887">
        <ele>445.23</ele>
        <time>2011-12-10T16:20:04Z</time>
      </trkpt>
      <trkpt lat="45.29586" lon="4.11942">
        <ele>446.19</ele>
        <time>2011-12-10T16:20:13Z</time>
      </trkpt>
      <trkpt lat="45.29581" lon="4.11939">
        <ele>444.75</ele>
        <time>2011-12-10T16:20:17Z</time>
      </trkpt>
      <trkpt lat="45.29585" lon="4.11921">
        <ele>441.38</ele>
        <time>2011-12-10T16:20:23Z</time>
      </trkpt>
      <trkpt lat="45.29587" lon="4.11914">
        <ele>440.42</ele>
        <time>2011-12-10T16:20:25Z</time>
      </trkpt>
      <trkpt lat="45.2962" lon="4.11908">
        <ele>440.9</ele>
        <time>2011-12-10T16:20:35Z</time>
      </trkpt>
      <trkpt lat="45.29665" lon="4.11908">
        <ele>444.75</ele>
        <time>2011-12-10T16:20:48Z</time>
      </trkpt>
      <trkpt lat="45.29705" lon="4.11927">
        <ele>447.63</ele>
        <time>2011-12-10T16:21:01Z</time>
      </trkpt>
      <trkpt lat="45.29718" lon="4.11925">
        <ele>447.15</ele>
        <time>2011-12-10T16:21:05Z</time>
      </trkpt>
      <trkpt lat="45.29745" lon="4.11913">
        <ele>445.71</ele>
        <time>2011-12-10T16:21:11Z</time>
      </trkpt>
      <trkpt lat="45.29793" lon="4.11899">
        <ele>445.71</ele>
        <time>2011-12-10T16:21:23Z</time>
      </trkpt>
      <trkpt lat="45.29815" lon="4.11895">
        <ele>444.75</ele>
        <time>2011-12-10T16:21:28Z</time>
      </trkpt>
      <trkpt lat="45.29824" lon="4.11892">
        <ele>444.27</ele>
        <time>2011-12-10T16:21:30Z</time>
      </trkpt>
      <trkpt lat="45.29855" lon="4.11891">
        <ele>442.82</ele>
        <time>2011-12-10T16:21:38Z</time>
      </trkpt>
      <trkpt lat="45.29893" lon="4.11893">
        <ele>441.38</ele>
        <time>2011-12-10T16:21:46Z</time>
      </trkpt>
      <trkpt lat="45.2992" lon="4.11888">
        <ele>441.38</ele>
        <time>2011-12-10T16:21:52Z</time>
      </trkpt>
      <trkpt lat="45.29943" lon="4.11891">
        <ele>440.9</ele>
        <time>2011-12-10T16:21:57Z</time>
      </trkpt>
      <trkpt lat="45.29969" lon="4.11884">
        <ele>441.38</ele>
        <time>2011-12-10T16:22:03Z</time>
      </trkpt>
      <trkpt lat="45.29978" lon="4.11883">
        <ele>441.38</ele>
        <time>2011-12-10T16:22:05Z</time>
      </trkpt>
      <trkpt lat="45.30003" lon="4.11888">
        <ele>442.82</ele>
        <time>2011-12-10T16:22:11Z</time>
      </trkpt>
      <trkpt lat="45.30012" lon="4.11891">
        <ele>442.82</ele>
        <time>2011-12-10T16:22:13Z</time>
      </trkpt>
      <trkpt lat="45.30042" lon="4.11911">
        <ele>443.79</ele>
        <time>2011-12-10T16:22:21Z</time>
      </trkpt>
      <trkpt lat="45.30073" lon="4.11933">
        <ele>444.75</ele>
        <time>2011-12-10T16:22:29Z</time>
      </trkpt>
      <trkpt lat="45.30109" lon="4.11959">
        <ele>445.23</ele>
        <time>2011-12-10T16:22:38Z</time>
      </trkpt>
      <trkpt lat="45.30127" lon="4.11973">
        <ele>445.23</ele>
        <time>2011-12-10T16:22:43Z</time>
      </trkpt>
      <trkpt lat="45.30138" lon="4.11982">
        <ele>445.23</ele>
        <time>2011-12-10T16:22:46Z</time>
      </trkpt>
      <trkpt lat="45.30187" lon="4.12038">
        <ele>445.71</ele>
        <time>2011-12-10T16:23:01Z</time>
      </trkpt>
      <trkpt lat="45.3019" lon="4.12042">
        <ele>446.19</ele>
        <time>2011-12-10T16:23:02Z</time>
      </trkpt>
      <trkpt lat="45.30206" lon="4.12061">
        <ele>446.19</ele>
        <time>2011-12-10T16:23:07Z</time>
      </trkpt>
      <trkpt lat="45.30236" lon="4.12093">
        <ele>445.71</ele>
        <time>2011-12-10T16:23:16Z</time>
      </trkpt>
      <trkpt lat="45.30247" lon="4.12103">
        <ele>446.19</ele>
        <time>2011-12-10T16:23:19Z</time>
      </trkpt>
      <trkpt lat="45.30305" lon="4.12127">
        <ele>446.19</ele>
        <time>2011-12-10T16:23:33Z</time>
      </trkpt>
      <trkpt lat="45.30318" lon="4.12149">
        <ele>447.15</ele>
        <time>2011-12-10T16:23:38Z</time>
      </trkpt>
      <trkpt lat="45.30321" lon="4.12161">
        <ele>447.63</ele>
        <time>2011-12-10T16:23:40Z</time>
      </trkpt>
      <trkpt lat="45.30326" lon="4.12267">
        <ele>447.63</ele>
        <time>2011-12-10T16:23:56Z</time>
      </trkpt>
      <trkpt lat="45.30325" lon="4.12286">
        <ele>447.63</ele>
        <time>2011-12-10T16:24:00Z</time>
      </trkpt>
      <trkpt lat="45.30329" lon="4.12301">
        <ele>448.11</ele>
        <time>2011-12-10T16:24:04Z</time>
      </trkpt>
      <trkpt lat="45.30333" lon="4.12305">
        <ele>447.63</ele>
        <time>2011-12-10T16:24:05Z</time>
      </trkpt>
      <trkpt lat="45.30337" lon="4.12309">
        <ele>447.63</ele>
        <time>2011-12-10T16:24:06Z</time>
      </trkpt>
      <trkpt lat="45.30341" lon="4.12313">
        <ele>447.63</ele>
        <time>2011-12-10T16:24:07Z</time>
      </trkpt>
      <trkpt lat="45.30375" lon="4.12346">
        <ele>445.71</ele>
        <time>2011-12-10T16:24:16Z</time>
      </trkpt>
      <trkpt lat="45.30451" lon="4.1239">
        <ele>444.27</ele>
        <time>2011-12-10T16:24:33Z</time>
      </trkpt>
      <trkpt lat="45.30485" lon="4.12408">
        <ele>444.27</ele>
        <time>2011-12-10T16:24:40Z</time>
      </trkpt>
      <trkpt lat="45.30494" lon="4.12415">
        <ele>444.27</ele>
        <time>2011-12-10T16:24:42Z</time>
      </trkpt>
      <trkpt lat="45.30497" lon="4.12421">
        <ele>444.75</ele>
        <time>2011-12-10T16:24:43Z</time>
      </trkpt>
      <trkpt lat="45.30499" lon="4.12427">
        <ele>444.75</ele>
        <time>2011-12-10T16:24:44Z</time>
      </trkpt>
      <trkpt lat="45.3051" lon="4.12475">
        <ele>443.79</ele>
        <time>2011-12-10T16:24:51Z</time>
      </trkpt>
      <trkpt lat="45.30512" lon="4.1249">
        <ele>443.79</ele>
        <time>2011-12-10T16:24:53Z</time>
      </trkpt>
      <trkpt lat="45.30515" lon="4.12572">
        <ele>444.27</ele>
        <time>2011-12-10T16:25:05Z</time>
      </trkpt>
      <trkpt lat="45.30515" lon="4.12579">
        <ele>444.27</ele>
        <time>2011-12-10T16:25:06Z</time>
      </trkpt>
      <trkpt lat="45.30515" lon="4.12607">
        <ele>445.71</ele>
        <time>2011-12-10T16:25:10Z</time>
      </trkpt>
      <trkpt lat="45.30514" lon="4.12614">
        <ele>445.71</ele>
        <time>2011-12-10T16:25:11Z</time>
      </trkpt>
      <trkpt lat="45.30505" lon="4.12723">
        <ele>445.71</ele>
        <time>2011-12-10T16:25:26Z</time>
      </trkpt>
      <trkpt lat="45.30505" lon="4.1273">
        <ele>445.71</ele>
        <time>2011-12-10T16:25:27Z</time>
      </trkpt>
      <trkpt lat="45.30504" lon="4.12738">
        <ele>445.71</ele>
        <time>2011-12-10T16:25:28Z</time>
      </trkpt>
      <trkpt lat="45.305" lon="4.12759">
        <ele>445.23</ele>
        <time>2011-12-10T16:25:31Z</time>
      </trkpt>
      <trkpt lat="45.30462" lon="4.1284">
        <ele>444.75</ele>
        <time>2011-12-10T16:25:44Z</time>
      </trkpt>
      <trkpt lat="45.30457" lon="4.12853">
        <ele>444.75</ele>
        <time>2011-12-10T16:25:46Z</time>
      </trkpt>
      <trkpt lat="45.30455" lon="4.1286">
        <ele>445.23</ele>
        <time>2011-12-10T16:25:47Z</time>
      </trkpt>
      <trkpt lat="45.30453" lon="4.12867">
        <ele>445.23</ele>
        <time>2011-12-10T16:25:48Z</time>
      </trkpt>
      <trkpt lat="45.30444" lon="4.12984">
        <ele>444.27</ele>
        <time>2011-12-10T16:26:03Z</time>
      </trkpt>
      <trkpt lat="45.30449" lon="4.13052">
        <ele>443.31</ele>
        <time>2011-12-10T16:26:12Z</time>
      </trkpt>
      <trkpt lat="45.30449" lon="4.13061">
        <ele>442.82</ele>
        <time>2011-12-10T16:26:13Z</time>
      </trkpt>
      <trkpt lat="45.30432" lon="4.13149">
        <ele>439.46</ele>
        <time>2011-12-10T16:26:22Z</time>
      </trkpt>
      <trkpt lat="45.30429" lon="4.13166">
        <ele>438.5</ele>
        <time>2011-12-10T16:26:24Z</time>
      </trkpt>
      <trkpt lat="45.30428" lon="4.13176">
        <ele>438.02</ele>
        <time>2011-12-10T16:26:25Z</time>
      </trkpt>
      <trkpt lat="45.30418" lon="4.13313">
        <ele>438.02</ele>
        <time>2011-12-10T16:26:40Z</time>
      </trkpt>
      <trkpt lat="45.30419" lon="4.13322">
        <ele>438.02</ele>
        <time>2011-12-10T16:26:41Z</time>
      </trkpt>
      <trkpt lat="45.3042" lon="4.1333">
        <ele>438.02</ele>
        <time>2011-12-10T16:26:42Z</time>
      </trkpt>
      <trkpt lat="45.30421" lon="4.13338">
        <ele>438.02</ele>
        <time>2011-12-10T16:26:43Z</time>
      </trkpt>
      <trkpt lat="45.30423" lon="4.13346">
        <ele>438.02</ele>
        <time>2011-12-10T16:26:44Z</time>
      </trkpt>
      <trkpt lat="45.30425" lon="4.13353">
        <ele>438.02</ele>
        <time>2011-12-10T16:26:45Z</time>
      </trkpt>
      <trkpt lat="45.30436" lon="4.13389">
        <ele>438.98</ele>
        <time>2011-12-10T16:26:50Z</time>
      </trkpt>
      <trkpt lat="45.30442" lon="4.13424">
        <ele>438.98</ele>
        <time>2011-12-10T16:26:55Z</time>
      </trkpt>
      <trkpt lat="45.30442" lon="4.1343">
        <ele>438.98</ele>
        <time>2011-12-10T16:26:56Z</time>
      </trkpt>
      <trkpt lat="45.3044" lon="4.13443">
        <ele>439.46</ele>
        <time>2011-12-10T16:26:58Z</time>
      </trkpt>
      <trkpt lat="45.30431" lon="4.13468">
        <ele>439.94</ele>
        <time>2011-12-10T16:27:03Z</time>
      </trkpt>
      <trkpt lat="45.30429" lon="4.13472">
        <ele>439.94</ele>
        <time>2011-12-10T16:27:04Z</time>
      </trkpt>
      <trkpt lat="45.30426" lon="4.13477">
        <ele>439.94</ele>
        <time>2011-12-10T16:27:05Z</time>
      </trkpt>
      <trkpt lat="45.304" lon="4.13527">
        <ele>442.34</ele>
        <time>2011-12-10T16:27:17Z</time>
      </trkpt>
      <trkpt lat="45.30371" lon="4.1357">
        <ele>448.11</ele>
        <time>2011-12-10T16:27:30Z</time>
      </trkpt>
      <trkpt lat="45.30344" lon="4.13615">
        <ele>451</ele>
        <time>2011-12-10T16:27:43Z</time>
      </trkpt>
      <trkpt lat="45.30322" lon="4.13655">
        <ele>452.92</ele>
        <time>2011-12-10T16:27:56Z</time>
      </trkpt>
      <trkpt lat="45.30298" lon="4.13698">
        <ele>455.32</ele>
        <time>2011-12-10T16:28:10Z</time>
      </trkpt>
      <trkpt lat="45.30278" lon="4.13741">
        <ele>456.76</ele>
        <time>2011-12-10T16:28:23Z</time>
      </trkpt>
      <trkpt lat="45.30257" lon="4.13798">
        <ele>457.24</ele>
        <time>2011-12-10T16:28:37Z</time>
      </trkpt>
      <trkpt lat="45.30222" lon="4.13869">
        <ele>457.72</ele>
        <time>2011-12-10T16:28:53Z</time>
      </trkpt>
      <trkpt lat="45.30204" lon="4.13918">
        <ele>460.13</ele>
        <time>2011-12-10T16:29:05Z</time>
      </trkpt>
      <trkpt lat="45.30184" lon="4.13968">
        <ele>462.05</ele>
        <time>2011-12-10T16:29:18Z</time>
      </trkpt>
      <trkpt lat="45.30165" lon="4.1401">
        <ele>463.01</ele>
        <time>2011-12-10T16:29:29Z</time>
      </trkpt>
      <trkpt lat="45.30133" lon="4.14067">
        <ele>465.9</ele>
        <time>2011-12-10T16:29:45Z</time>
      </trkpt>
      <trkpt lat="45.30117" lon="4.1409">
        <ele>466.38</ele>
        <time>2011-12-10T16:29:52Z</time>
      </trkpt>
      <trkpt lat="45.30117" lon="4.14095">
        <ele>466.38</ele>
        <time>2011-12-10T16:29:53Z</time>
      </trkpt>
      <trkpt lat="45.30119" lon="4.14097">
        <ele>466.86</ele>
        <time>2011-12-10T16:29:54Z</time>
      </trkpt>
      <trkpt lat="45.30121" lon="4.14099">
        <ele>466.86</ele>
        <time>2011-12-10T16:29:55Z</time>
      </trkpt>
      <trkpt lat="45.30124" lon="4.141">
        <ele>466.86</ele>
        <time>2011-12-10T16:29:56Z</time>
      </trkpt>
      <trkpt lat="45.30126" lon="4.14102">
        <ele>467.34</ele>
        <time>2011-12-10T16:29:57Z</time>
      </trkpt>
      <trkpt lat="45.30129" lon="4.14103">
        <ele>467.34</ele>
        <time>2011-12-10T16:29:58Z</time>
      </trkpt>
      <trkpt lat="45.3014" lon="4.14109">
        <ele>467.82</ele>
        <time>2011-12-10T16:30:09Z</time>
      </trkpt>
      <trkpt lat="45.30146" lon="4.14108">
        <ele>466.86</ele>
        <time>2011-12-10T16:31:15Z</time>
      </trkpt>
      <trkpt lat="45.30185" lon="4.14127">
        <ele>466.86</ele>
        <time>2011-12-10T16:31:27Z</time>
      </trkpt>
      <trkpt lat="45.3025" lon="4.14152">
        <ele>466.38</ele>
        <time>2011-12-10T16:31:43Z</time>
      </trkpt>
      <trkpt lat="45.30296" lon="4.14171">
        <ele>465.42</ele>
        <time>2011-12-10T16:31:57Z</time>
      </trkpt>
      <trkpt lat="45.303" lon="4.14173">
        <ele>465.42</ele>
        <time>2011-12-10T16:31:58Z</time>
      </trkpt>
      <trkpt lat="45.30353" lon="4.142">
        <ele>464.45</ele>
        <time>2011-12-10T16:32:11Z</time>
      </trkpt>
      <trkpt lat="45.30442" lon="4.14246">
        <ele>459.65</ele>
        <time>2011-12-10T16:32:26Z</time>
      </trkpt>
      <trkpt lat="45.30465" lon="4.14257">
        <ele>459.17</ele>
        <time>2011-12-10T16:32:30Z</time>
      </trkpt>
      <trkpt lat="45.30471" lon="4.1426">
        <ele>459.17</ele>
        <time>2011-12-10T16:32:31Z</time>
      </trkpt>
      <trkpt lat="45.30553" lon="4.14301">
        <ele>454.36</ele>
        <time>2011-12-10T16:32:44Z</time>
      </trkpt>
      <trkpt lat="45.30571" lon="4.14312">
        <ele>452.92</ele>
        <time>2011-12-10T16:32:47Z</time>
      </trkpt>
      <trkpt lat="45.30576" lon="4.14318">
        <ele>452.92</ele>
        <time>2011-12-10T16:32:48Z</time>
      </trkpt>
      <trkpt lat="45.30581" lon="4.14325">
        <ele>452.92</ele>
        <time>2011-12-10T16:32:49Z</time>
      </trkpt>
      <trkpt lat="45.30583" lon="4.14335">
        <ele>452.92</ele>
        <time>2011-12-10T16:32:50Z</time>
      </trkpt>
      <trkpt lat="45.30582" lon="4.14344">
        <ele>452.44</ele>
        <time>2011-12-10T16:32:51Z</time>
      </trkpt>
      <trkpt lat="45.30581" lon="4.14354">
        <ele>451.96</ele>
        <time>2011-12-10T16:32:52Z</time>
      </trkpt>
      <trkpt lat="45.30579" lon="4.14363">
        <ele>451.96</ele>
        <time>2011-12-10T16:32:53Z</time>
      </trkpt>
      <trkpt lat="45.30576" lon="4.14373">
        <ele>451.48</ele>
        <time>2011-12-10T16:32:54Z</time>
      </trkpt>
      <trkpt lat="45.30574" lon="4.14383">
        <ele>451.48</ele>
        <time>2011-12-10T16:32:55Z</time>
      </trkpt>
      <trkpt lat="45.30536" lon="4.14499">
        <ele>449.55</ele>
        <time>2011-12-10T16:33:07Z</time>
      </trkpt>
      <trkpt lat="45.3053" lon="4.1453">
        <ele>448.59</ele>
        <time>2011-12-10T16:33:10Z</time>
      </trkpt>
      <trkpt lat="45.3053" lon="4.1454">
        <ele>448.11</ele>
        <time>2011-12-10T16:33:11Z</time>
      </trkpt>
      <trkpt lat="45.30531" lon="4.1455">
        <ele>447.63</ele>
        <time>2011-12-10T16:33:12Z</time>
      </trkpt>
      <trkpt lat="45.30533" lon="4.14567">
        <ele>447.63</ele>
        <time>2011-12-10T16:33:14Z</time>
      </trkpt>
      <trkpt lat="45.30543" lon="4.14606">
        <ele>450.03</ele>
        <time>2011-12-10T16:33:23Z</time>
      </trkpt>
      <trkpt lat="45.30544" lon="4.14608">
        <ele>450.52</ele>
        <time>2011-12-10T16:33:24Z</time>
      </trkpt>
      <trkpt lat="45.30544" lon="4.1461">
        <ele>450.52</ele>
        <time>2011-12-10T16:33:25Z</time>
      </trkpt>
      <trkpt lat="45.30545" lon="4.14612">
        <ele>450.52</ele>
        <time>2011-12-10T16:33:26Z</time>
      </trkpt>
      <trkpt lat="45.30546" lon="4.14614">
        <ele>450.52</ele>
        <time>2011-12-10T16:33:27Z</time>
      </trkpt>
      <trkpt lat="45.30547" lon="4.14617">
        <ele>450.52</ele>
        <time>2011-12-10T16:33:28Z</time>
      </trkpt>
      <trkpt lat="45.30566" lon="4.14653">
        <ele>454.36</ele>
        <time>2011-12-10T16:33:43Z</time>
      </trkpt>
      <trkpt lat="45.30587" lon="4.14681">
        <ele>457.72</ele>
        <time>2011-12-10T16:33:57Z</time>
      </trkpt>
      <trkpt lat="45.30588" lon="4.14682">
        <ele>458.21</ele>
        <time>2011-12-10T16:33:58Z</time>
      </trkpt>
      <trkpt lat="45.30588" lon="4.14684">
        <ele>458.21</ele>
        <time>2011-12-10T16:33:59Z</time>
      </trkpt>
      <trkpt lat="45.30589" lon="4.14685">
        <ele>458.21</ele>
        <time>2011-12-10T16:34:00Z</time>
      </trkpt>
      <trkpt lat="45.3059" lon="4.14686">
        <ele>458.21</ele>
        <time>2011-12-10T16:34:01Z</time>
      </trkpt>
      <trkpt lat="45.30592" lon="4.14687">
        <ele>458.21</ele>
        <time>2011-12-10T16:34:02Z</time>
      </trkpt>
      <trkpt lat="45.30593" lon="4.14688">
        <ele>458.21</ele>
        <time>2011-12-10T16:34:03Z</time>
      </trkpt>
      <trkpt lat="45.30594" lon="4.1469">
        <ele>458.21</ele>
        <time>2011-12-10T16:34:04Z</time>
      </trkpt>
      <trkpt lat="45.30594" lon="4.14692">
        <ele>458.69</ele>
        <time>2011-12-10T16:34:05Z</time>
      </trkpt>
      <trkpt lat="45.30596" lon="4.14694">
        <ele>458.69</ele>
        <time>2011-12-10T16:34:06Z</time>
      </trkpt>
      <trkpt lat="45.30597" lon="4.14695">
        <ele>459.17</ele>
        <time>2011-12-10T16:34:07Z</time>
      </trkpt>
      <trkpt lat="45.30598" lon="4.14697">
        <ele>459.17</ele>
        <time>2011-12-10T16:34:08Z</time>
      </trkpt>
      <trkpt lat="45.30599" lon="4.14698">
        <ele>459.65</ele>
        <time>2011-12-10T16:34:09Z</time>
      </trkpt>
      <trkpt lat="45.30611" lon="4.14724">
        <ele>462.53</ele>
        <time>2011-12-10T16:34:22Z</time>
      </trkpt>
      <trkpt lat="45.3061" lon="4.14754">
        <ele>464.45</ele>
        <time>2011-12-10T16:34:35Z</time>
      </trkpt>
      <trkpt lat="45.30605" lon="4.14774">
        <ele>466.86</ele>
        <time>2011-12-10T16:34:44Z</time>
      </trkpt>
      <trkpt lat="45.30597" lon="4.14793">
        <ele>467.82</ele>
        <time>2011-12-10T16:34:53Z</time>
      </trkpt>
      <trkpt lat="45.30587" lon="4.14824">
        <ele>468.3</ele>
        <time>2011-12-10T16:35:07Z</time>
      </trkpt>
      <trkpt lat="45.30572" lon="4.14861">
        <ele>471.18</ele>
        <time>2011-12-10T16:35:23Z</time>
      </trkpt>
      <trkpt lat="45.30564" lon="4.14892">
        <ele>474.55</ele>
        <time>2011-12-10T16:35:36Z</time>
      </trkpt>
      <trkpt lat="45.30558" lon="4.14934">
        <ele>478.87</ele>
        <time>2011-12-10T16:35:51Z</time>
      </trkpt>
      <trkpt lat="45.30556" lon="4.14966">
        <ele>481.28</ele>
        <time>2011-12-10T16:36:03Z</time>
      </trkpt>
      <trkpt lat="45.30555" lon="4.14977">
        <ele>483.2</ele>
        <time>2011-12-10T16:36:07Z</time>
      </trkpt>
      <trkpt lat="45.30551" lon="4.15">
        <ele>486.56</ele>
        <time>2011-12-10T16:36:17Z</time>
      </trkpt>
      <trkpt lat="45.30544" lon="4.15034">
        <ele>489.45</ele>
        <time>2011-12-10T16:36:32Z</time>
      </trkpt>
      <trkpt lat="45.30536" lon="4.1507">
        <ele>491.37</ele>
        <time>2011-12-10T16:36:47Z</time>
      </trkpt>
      <trkpt lat="45.30532" lon="4.15084">
        <ele>492.81</ele>
        <time>2011-12-10T16:36:57Z</time>
      </trkpt>
      <trkpt lat="45.30528" lon="4.15082">
        <ele>492.81</ele>
        <time>2011-12-10T16:37:14Z</time>
      </trkpt>
      <trkpt lat="45.30506" lon="4.15078">
        <ele>491.85</ele>
        <time>2011-12-10T16:37:25Z</time>
      </trkpt>
      <trkpt lat="45.3047" lon="4.15072">
        <ele>492.33</ele>
        <time>2011-12-10T16:37:40Z</time>
      </trkpt>
      <trkpt lat="45.30432" lon="4.15066">
        <ele>493.29</ele>
        <time>2011-12-10T16:37:54Z</time>
      </trkpt>
      <trkpt lat="45.3038" lon="4.15057">
        <ele>494.26</ele>
        <time>2011-12-10T16:38:13Z</time>
      </trkpt>
      <trkpt lat="45.30339" lon="4.15047">
        <ele>494.74</ele>
        <time>2011-12-10T16:38:28Z</time>
      </trkpt>
      <trkpt lat="45.30307" lon="4.15038">
        <ele>495.22</ele>
        <time>2011-12-10T16:38:41Z</time>
      </trkpt>
      <trkpt lat="45.30304" lon="4.15046">
        <ele>495.7</ele>
        <time>2011-12-10T16:38:45Z</time>
      </trkpt>
      <trkpt lat="45.30308" lon="4.15065">
        <ele>497.62</ele>
        <time>2011-12-10T16:38:54Z</time>
      </trkpt>
      <trkpt lat="45.30307" lon="4.15072">
        <ele>498.1</ele>
        <time>2011-12-10T16:38:58Z</time>
      </trkpt>
      <trkpt lat="45.3029" lon="4.15095">
        <ele>499.54</ele>
        <time>2011-12-10T16:39:13Z</time>
      </trkpt>
      <trkpt lat="45.30277" lon="4.15105">
        <ele>501.46</ele>
        <time>2011-12-10T16:39:21Z</time>
      </trkpt>
      <trkpt lat="45.3025" lon="4.15129">
        <ele>504.83</ele>
        <time>2011-12-10T16:39:37Z</time>
      </trkpt>
      <trkpt lat="45.30226" lon="4.15148">
        <ele>506.75</ele>
        <time>2011-12-10T16:39:51Z</time>
      </trkpt>
      <trkpt lat="45.30202" lon="4.15156">
        <ele>507.71</ele>
        <time>2011-12-10T16:40:03Z</time>
      </trkpt>
      <trkpt lat="45.30174" lon="4.15159">
        <ele>508.67</ele>
        <time>2011-12-10T16:40:16Z</time>
      </trkpt>
      <trkpt lat="45.30146" lon="4.1516">
        <ele>512.04</ele>
        <time>2011-12-10T16:40:30Z</time>
      </trkpt>
      <trkpt lat="45.30116" lon="4.15163">
        <ele>512.52</ele>
        <time>2011-12-10T16:40:45Z</time>
      </trkpt>
      <trkpt lat="45.30096" lon="4.15167">
        <ele>513.48</ele>
        <time>2011-12-10T16:40:56Z</time>
      </trkpt>
      <trkpt lat="45.30075" lon="4.15176">
        <ele>513.48</ele>
        <time>2011-12-10T16:41:10Z</time>
      </trkpt>
      <trkpt lat="45.30074" lon="4.15177">
        <ele>513.48</ele>
        <time>2011-12-10T16:41:11Z</time>
      </trkpt>
      <trkpt lat="45.30061" lon="4.15194">
        <ele>515.4</ele>
        <time>2011-12-10T16:41:22Z</time>
      </trkpt>
      <trkpt lat="45.30058" lon="4.15205">
        <ele>516.85</ele>
        <time>2011-12-10T16:41:27Z</time>
      </trkpt>
      <trkpt lat="45.30058" lon="4.15212">
        <ele>518.77</ele>
        <time>2011-12-10T16:41:31Z</time>
      </trkpt>
      <trkpt lat="45.30057" lon="4.15217">
        <ele>519.25</ele>
        <time>2011-12-10T16:41:33Z</time>
      </trkpt>
      <trkpt lat="45.30057" lon="4.15224">
        <ele>519.73</ele>
        <time>2011-12-10T16:41:36Z</time>
      </trkpt>
      <trkpt lat="45.30054" lon="4.15246">
        <ele>517.33</ele>
        <time>2011-12-10T16:41:47Z</time>
      </trkpt>
      <trkpt lat="45.30054" lon="4.15278">
        <ele>515.4</ele>
        <time>2011-12-10T16:42:01Z</time>
      </trkpt>
      <trkpt lat="45.30054" lon="4.15284">
        <ele>517.33</ele>
        <time>2011-12-10T16:42:04Z</time>
      </trkpt>
      <trkpt lat="45.30052" lon="4.15299">
        <ele>519.25</ele>
        <time>2011-12-10T16:42:10Z</time>
      </trkpt>
      <trkpt lat="45.30051" lon="4.1531">
        <ele>522.13</ele>
        <time>2011-12-10T16:42:15Z</time>
      </trkpt>
      <trkpt lat="45.30048" lon="4.1532">
        <ele>523.58</ele>
        <time>2011-12-10T16:42:19Z</time>
      </trkpt>
      <trkpt lat="45.30044" lon="4.15355">
        <ele>528.86</ele>
        <time>2011-12-10T16:42:33Z</time>
      </trkpt>
      <trkpt lat="45.30041" lon="4.15377">
        <ele>525.98</ele>
        <time>2011-12-10T16:42:43Z</time>
      </trkpt>
      <trkpt lat="45.30038" lon="4.15409">
        <ele>530.79</ele>
        <time>2011-12-10T16:42:56Z</time>
      </trkpt>
      <trkpt lat="45.30038" lon="4.15411">
        <ele>530.79</ele>
        <time>2011-12-10T16:42:57Z</time>
      </trkpt>
      <trkpt lat="45.30038" lon="4.1545">
        <ele>532.23</ele>
        <time>2011-12-10T16:43:12Z</time>
      </trkpt>
      <trkpt lat="45.3004" lon="4.15481">
        <ele>533.19</ele>
        <time>2011-12-10T16:43:24Z</time>
      </trkpt>
      <trkpt lat="45.30042" lon="4.15523">
        <ele>535.11</ele>
        <time>2011-12-10T16:43:40Z</time>
      </trkpt>
      <trkpt lat="45.30043" lon="4.15556">
        <ele>537.03</ele>
        <time>2011-12-10T16:43:53Z</time>
      </trkpt>
      <trkpt lat="45.30045" lon="4.15595">
        <ele>538.96</ele>
        <time>2011-12-10T16:44:08Z</time>
      </trkpt>
      <trkpt lat="45.30047" lon="4.15631">
        <ele>539.92</ele>
        <time>2011-12-10T16:44:22Z</time>
      </trkpt>
      <trkpt lat="45.3005" lon="4.15661">
        <ele>541.36</ele>
        <time>2011-12-10T16:44:34Z</time>
      </trkpt>
      <trkpt lat="45.30052" lon="4.15696">
        <ele>541.84</ele>
        <time>2011-12-10T16:44:48Z</time>
      </trkpt>
      <trkpt lat="45.30053" lon="4.15732">
        <ele>543.76</ele>
        <time>2011-12-10T16:45:02Z</time>
      </trkpt>
      <trkpt lat="45.30055" lon="4.15766">
        <ele>547.13</ele>
        <time>2011-12-10T16:45:16Z</time>
      </trkpt>
      <trkpt lat="45.3006" lon="4.15797">
        <ele>549.05</ele>
        <time>2011-12-10T16:45:29Z</time>
      </trkpt>
      <trkpt lat="45.30074" lon="4.15821">
        <ele>550.97</ele>
        <time>2011-12-10T16:45:42Z</time>
      </trkpt>
      <trkpt lat="45.30091" lon="4.15844">
        <ele>551.45</ele>
        <time>2011-12-10T16:45:56Z</time>
      </trkpt>
      <trkpt lat="45.30092" lon="4.15845">
        <ele>550.97</ele>
        <time>2011-12-10T16:45:57Z</time>
      </trkpt>
      <trkpt lat="45.30094" lon="4.15849">
        <ele>551.45</ele>
        <time>2011-12-10T16:46:00Z</time>
      </trkpt>
      <trkpt lat="45.30095" lon="4.15852">
        <ele>551.45</ele>
        <time>2011-12-10T16:46:17Z</time>
      </trkpt>
      <trkpt lat="45.30095" lon="4.15852">
        <ele>551.45</ele>
        <time>2011-12-10T16:46:21Z</time>
      </trkpt>
      <trkpt lat="45.30092" lon="4.15861">
        <ele>553.38</ele>
        <time>2011-12-10T16:46:27Z</time>
      </trkpt>
      <trkpt lat="45.3009" lon="4.15865">
        <ele>553.86</ele>
        <time>2011-12-10T16:46:29Z</time>
      </trkpt>
      <trkpt lat="45.30073" lon="4.15892">
        <ele>557.7</ele>
        <time>2011-12-10T16:46:44Z</time>
      </trkpt>
      <trkpt lat="45.30069" lon="4.15901">
        <ele>558.18</ele>
        <time>2011-12-10T16:46:49Z</time>
      </trkpt>
      <trkpt lat="45.30051" lon="4.15927">
        <ele>558.66</ele>
        <time>2011-12-10T16:47:02Z</time>
      </trkpt>
      <trkpt lat="45.30036" lon="4.15957">
        <ele>559.62</ele>
        <time>2011-12-10T16:47:15Z</time>
      </trkpt>
      <trkpt lat="45.30014" lon="4.15996">
        <ele>562.51</ele>
        <time>2011-12-10T16:47:32Z</time>
      </trkpt>
      <trkpt lat="45.29999" lon="4.16026">
        <ele>565.39</ele>
        <time>2011-12-10T16:47:46Z</time>
      </trkpt>
      <trkpt lat="45.2998" lon="4.16067">
        <ele>569.24</ele>
        <time>2011-12-10T16:48:03Z</time>
      </trkpt>
      <trkpt lat="45.29966" lon="4.16099">
        <ele>570.2</ele>
        <time>2011-12-10T16:48:16Z</time>
      </trkpt>
      <trkpt lat="45.29955" lon="4.16122">
        <ele>571.16</ele>
        <time>2011-12-10T16:48:26Z</time>
      </trkpt>
      <trkpt lat="45.2995" lon="4.16132">
        <ele>571.64</ele>
        <time>2011-12-10T16:48:30Z</time>
      </trkpt>
      <trkpt lat="45.29929" lon="4.16173">
        <ele>574.53</ele>
        <time>2011-12-10T16:48:46Z</time>
      </trkpt>
      <trkpt lat="45.29912" lon="4.16211">
        <ele>576.93</ele>
        <time>2011-12-10T16:49:01Z</time>
      </trkpt>
      <trkpt lat="45.299" lon="4.16247">
        <ele>577.41</ele>
        <time>2011-12-10T16:49:13Z</time>
      </trkpt>
      <trkpt lat="45.29887" lon="4.16295">
        <ele>576.93</ele>
        <time>2011-12-10T16:49:25Z</time>
      </trkpt>
      <trkpt lat="45.29889" lon="4.16308">
        <ele>578.37</ele>
        <time>2011-12-10T16:49:29Z</time>
      </trkpt>
      <trkpt lat="45.299" lon="4.16361">
        <ele>578.37</ele>
        <time>2011-12-10T16:49:44Z</time>
      </trkpt>
      <trkpt lat="45.29925" lon="4.16413">
        <ele>579.33</ele>
        <time>2011-12-10T16:49:58Z</time>
      </trkpt>
      <trkpt lat="45.29956" lon="4.1647">
        <ele>579.81</ele>
        <time>2011-12-10T16:50:14Z</time>
      </trkpt>
      <trkpt lat="45.29971" lon="4.1649">
        <ele>580.77</ele>
        <time>2011-12-10T16:50:21Z</time>
      </trkpt>
      <trkpt lat="45.29981" lon="4.16481">
        <ele>579.33</ele>
        <time>2011-12-10T16:50:25Z</time>
      </trkpt>
      <trkpt lat="45.29984" lon="4.16476">
        <ele>578.85</ele>
        <time>2011-12-10T16:50:26Z</time>
      </trkpt>
      <trkpt lat="45.29986" lon="4.16471">
        <ele>578.85</ele>
        <time>2011-12-10T16:50:27Z</time>
      </trkpt>
      <trkpt lat="45.30001" lon="4.16442">
        <ele>576.93</ele>
        <time>2011-12-10T16:50:33Z</time>
      </trkpt>
      <trkpt lat="45.30016" lon="4.16454">
        <ele>576.45</ele>
        <time>2011-12-10T16:50:42Z</time>
      </trkpt>
      <trkpt lat="45.3002" lon="4.16459">
        <ele>576.45</ele>
        <time>2011-12-10T16:50:44Z</time>
      </trkpt>
      <trkpt lat="45.30039" lon="4.1648">
        <ele>577.89</ele>
        <time>2011-12-10T16:50:54Z</time>
      </trkpt>
      <trkpt lat="45.30048" lon="4.16479">
        <ele>578.85</ele>
        <time>2011-12-10T16:50:58Z</time>
      </trkpt>
      <trkpt lat="45.30092" lon="4.16479">
        <ele>577.89</ele>
        <time>2011-12-10T16:51:12Z</time>
      </trkpt>
      <trkpt lat="45.30126" lon="4.16496">
        <ele>577.89</ele>
        <time>2011-12-10T16:51:24Z</time>
      </trkpt>
      <trkpt lat="45.30159" lon="4.16528">
        <ele>576.93</ele>
        <time>2011-12-10T16:51:38Z</time>
      </trkpt>
      <trkpt lat="45.3018" lon="4.16586">
        <ele>577.41</ele>
        <time>2011-12-10T16:51:50Z</time>
      </trkpt>
      <trkpt lat="45.30197" lon="4.16622">
        <ele>576.93</ele>
        <time>2011-12-10T16:51:58Z</time>
      </trkpt>
      <trkpt lat="45.30201" lon="4.16633">
        <ele>576.93</ele>
        <time>2011-12-10T16:52:00Z</time>
      </trkpt>
      <trkpt lat="45.30206" lon="4.16654">
        <ele>578.37</ele>
        <time>2011-12-10T16:52:05Z</time>
      </trkpt>
      <trkpt lat="45.30206" lon="4.16657">
        <ele>578.85</ele>
        <time>2011-12-10T16:52:06Z</time>
      </trkpt>
      <trkpt lat="45.30207" lon="4.1666">
        <ele>578.85</ele>
        <time>2011-12-10T16:52:07Z</time>
      </trkpt>
      <trkpt lat="45.30218" lon="4.16708">
        <ele>578.85</ele>
        <time>2011-12-10T16:52:22Z</time>
      </trkpt>
      <trkpt lat="45.30219" lon="4.1673">
        <ele>577.89</ele>
        <time>2011-12-10T16:52:30Z</time>
      </trkpt>
      <trkpt lat="45.3022" lon="4.16732">
        <ele>577.89</ele>
        <time>2011-12-10T16:52:31Z</time>
      </trkpt>
      <trkpt lat="45.30221" lon="4.16734">
        <ele>577.89</ele>
        <time>2011-12-10T16:52:32Z</time>
      </trkpt>
      <trkpt lat="45.30222" lon="4.16736">
        <ele>577.89</ele>
        <time>2011-12-10T16:52:33Z</time>
      </trkpt>
      <trkpt lat="45.30223" lon="4.16737">
        <ele>577.89</ele>
        <time>2011-12-10T16:52:34Z</time>
      </trkpt>
      <trkpt lat="45.30224" lon="4.1674">
        <ele>577.41</ele>
        <time>2011-12-10T16:52:35Z</time>
      </trkpt>
      <trkpt lat="45.30224" lon="4.16743">
        <ele>576.93</ele>
        <time>2011-12-10T16:52:36Z</time>
      </trkpt>
      <trkpt lat="45.30225" lon="4.16745">
        <ele>576.93</ele>
        <time>2011-12-10T16:52:37Z</time>
      </trkpt>
      <trkpt lat="45.30225" lon="4.16747">
        <ele>576.93</ele>
        <time>2011-12-10T16:52:38Z</time>
      </trkpt>
      <trkpt lat="45.30226" lon="4.16749">
        <ele>576.45</ele>
        <time>2011-12-10T16:52:53Z</time>
      </trkpt>
      <trkpt lat="45.30227" lon="4.16749">
        <ele>575.97</ele>
        <time>2011-12-10T16:53:19Z</time>
      </trkpt>
      <trkpt lat="45.30228" lon="4.16749">
        <ele>575.97</ele>
        <time>2011-12-10T16:53:20Z</time>
      </trkpt>
      <trkpt lat="45.30231" lon="4.16749">
        <ele>575.49</ele>
        <time>2011-12-10T16:53:21Z</time>
      </trkpt>
      <trkpt lat="45.30246" lon="4.16748">
        <ele>574.53</ele>
        <time>2011-12-10T16:53:26Z</time>
      </trkpt>
      <trkpt lat="45.30251" lon="4.16749">
        <ele>574.04</ele>
        <time>2011-12-10T16:53:27Z</time>
      </trkpt>
      <trkpt lat="45.30255" lon="4.1675">
        <ele>574.04</ele>
        <time>2011-12-10T16:53:28Z</time>
      </trkpt>
      <trkpt lat="45.3026" lon="4.16751">
        <ele>573.08</ele>
        <time>2011-12-10T16:53:29Z</time>
      </trkpt>
      <trkpt lat="45.30265" lon="4.16751">
        <ele>572.6</ele>
        <time>2011-12-10T16:53:30Z</time>
      </trkpt>
      <trkpt lat="45.30285" lon="4.16752">
        <ele>570.2</ele>
        <time>2011-12-10T16:53:33Z</time>
      </trkpt>
      <trkpt lat="45.30328" lon="4.16749">
        <ele>564.43</ele>
        <time>2011-12-10T16:53:38Z</time>
      </trkpt>
      <trkpt lat="45.30339" lon="4.16746">
        <ele>562.99</ele>
        <time>2011-12-10T16:53:39Z</time>
      </trkpt>
      <trkpt lat="45.3035" lon="4.16741">
        <ele>561.55</ele>
        <time>2011-12-10T16:53:40Z</time>
      </trkpt>
      <trkpt lat="45.30361" lon="4.16733">
        <ele>560.11</ele>
        <time>2011-12-10T16:53:41Z</time>
      </trkpt>
      <trkpt lat="45.30373" lon="4.16725">
        <ele>558.66</ele>
        <time>2011-12-10T16:53:42Z</time>
      </trkpt>
      <trkpt lat="45.30397" lon="4.16709">
        <ele>554.34</ele>
        <time>2011-12-10T16:53:44Z</time>
      </trkpt>
      <trkpt lat="45.3041" lon="4.16703">
        <ele>551.93</ele>
        <time>2011-12-10T16:53:45Z</time>
      </trkpt>
      <trkpt lat="45.30424" lon="4.167">
        <ele>550.01</ele>
        <time>2011-12-10T16:53:46Z</time>
      </trkpt>
      <trkpt lat="45.30453" lon="4.16697">
        <ele>545.69</ele>
        <time>2011-12-10T16:53:48Z</time>
      </trkpt>
      <trkpt lat="45.30466" lon="4.16693">
        <ele>544.24</ele>
        <time>2011-12-10T16:53:49Z</time>
      </trkpt>
      <trkpt lat="45.30478" lon="4.16686">
        <ele>542.32</ele>
        <time>2011-12-10T16:53:50Z</time>
      </trkpt>
      <trkpt lat="45.30489" lon="4.1668">
        <ele>540.88</ele>
        <time>2011-12-10T16:53:51Z</time>
      </trkpt>
      <trkpt lat="45.305" lon="4.16675">
        <ele>540.4</ele>
        <time>2011-12-10T16:53:52Z</time>
      </trkpt>
      <trkpt lat="45.3051" lon="4.16672">
        <ele>540.4</ele>
        <time>2011-12-10T16:53:53Z</time>
      </trkpt>
      <trkpt lat="45.30519" lon="4.1667">
        <ele>540.88</ele>
        <time>2011-12-10T16:53:54Z</time>
      </trkpt>
      <trkpt lat="45.30527" lon="4.1667">
        <ele>541.84</ele>
        <time>2011-12-10T16:53:55Z</time>
      </trkpt>
      <trkpt lat="45.30557" lon="4.16672">
        <ele>546.65</ele>
        <time>2011-12-10T16:54:02Z</time>
      </trkpt>
      <trkpt lat="45.30564" lon="4.16667">
        <ele>548.57</ele>
        <time>2011-12-10T16:54:07Z</time>
      </trkpt>
      <trkpt lat="45.30577" lon="4.16661">
        <ele>553.38</ele>
        <time>2011-12-10T16:54:17Z</time>
      </trkpt>
      <trkpt lat="45.30579" lon="4.16662">
        <ele>553.38</ele>
        <time>2011-12-10T16:54:18Z</time>
      </trkpt>
      <trkpt lat="45.3058" lon="4.16662">
        <ele>553.86</ele>
        <time>2011-12-10T16:54:19Z</time>
      </trkpt>
      <trkpt lat="45.30582" lon="4.16661">
        <ele>553.86</ele>
        <time>2011-12-10T16:54:20Z</time>
      </trkpt>
      <trkpt lat="45.30583" lon="4.1666">
        <ele>554.34</ele>
        <time>2011-12-10T16:54:21Z</time>
      </trkpt>
      <trkpt lat="45.30585" lon="4.16659">
        <ele>554.82</ele>
        <time>2011-12-10T16:54:22Z</time>
      </trkpt>
      <trkpt lat="45.30611" lon="4.16642">
        <ele>557.7</ele>
        <time>2011-12-10T16:54:36Z</time>
      </trkpt>
      <trkpt lat="45.30636" lon="4.16617">
        <ele>560.59</ele>
        <time>2011-12-10T16:54:50Z</time>
      </trkpt>
      <trkpt lat="45.30665" lon="4.16597">
        <ele>563.47</ele>
        <time>2011-12-10T16:55:04Z</time>
      </trkpt>
      <trkpt lat="45.30694" lon="4.16578">
        <ele>565.87</ele>
        <time>2011-12-10T16:55:19Z</time>
      </trkpt>
      <trkpt lat="45.30721" lon="4.16565">
        <ele>566.35</ele>
        <time>2011-12-10T16:55:31Z</time>
      </trkpt>
      <trkpt lat="45.30746" lon="4.16545">
        <ele>564.91</ele>
        <time>2011-12-10T16:55:39Z</time>
      </trkpt>
      <trkpt lat="45.30749" lon="4.16543">
        <ele>564.91</ele>
        <time>2011-12-10T16:55:40Z</time>
      </trkpt>
      <trkpt lat="45.30758" lon="4.16541">
        <ele>564.91</ele>
        <time>2011-12-10T16:55:42Z</time>
      </trkpt>
      <trkpt lat="45.30818" lon="4.16547">
        <ele>562.51</ele>
        <time>2011-12-10T16:55:59Z</time>
      </trkpt>
      <trkpt lat="45.30859" lon="4.16558">
        <ele>564.91</ele>
        <time>2011-12-10T16:56:13Z</time>
      </trkpt>
      <trkpt lat="45.30891" lon="4.16553">
        <ele>564.43</ele>
        <time>2011-12-10T16:56:25Z</time>
      </trkpt>
      <trkpt lat="45.30931" lon="4.16543">
        <ele>562.99</ele>
        <time>2011-12-10T16:56:40Z</time>
      </trkpt>
      <trkpt lat="45.30962" lon="4.16536">
        <ele>562.99</ele>
        <time>2011-12-10T16:56:53Z</time>
      </trkpt>
      <trkpt lat="45.30992" lon="4.16532">
        <ele>562.03</ele>
        <time>2011-12-10T16:57:05Z</time>
      </trkpt>
      <trkpt lat="45.30995" lon="4.16535">
        <ele>562.03</ele>
        <time>2011-12-10T16:57:06Z</time>
      </trkpt>
      <trkpt lat="45.30996" lon="4.16536">
        <ele>562.03</ele>
        <time>2011-12-10T16:57:07Z</time>
      </trkpt>
      <trkpt lat="45.30997" lon="4.16536">
        <ele>561.55</ele>
        <time>2011-12-10T16:57:23Z</time>
      </trkpt>
      <trkpt lat="45.30997" lon="4.16536">
        <ele>561.55</ele>
        <time>2011-12-10T16:58:05Z</time>
      </trkpt>
      <trkpt lat="45.30998" lon="4.16535">
        <ele>561.55</ele>
        <time>2011-12-10T16:58:06Z</time>
      </trkpt>
      <trkpt lat="45.31" lon="4.16528">
        <ele>560.59</ele>
        <time>2011-12-10T16:58:15Z</time>
      </trkpt>
      <trkpt lat="45.31001" lon="4.16528">
        <ele>561.55</ele>
        <time>2011-12-10T16:59:11Z</time>
      </trkpt>
      <trkpt lat="45.30999" lon="4.16528">
        <ele>561.55</ele>
        <time>2011-12-10T16:59:14Z</time>
      </trkpt>
      <trkpt lat="45.30997" lon="4.16529">
        <ele>562.03</ele>
        <time>2011-12-10T16:59:17Z</time>
      </trkpt>
      <trkpt lat="45.30996" lon="4.16532">
        <ele>559.62</ele>
        <time>2011-12-10T16:59:20Z</time>
      </trkpt>
      <trkpt lat="45.30996" lon="4.16545">
        <ele>559.14</ele>
        <time>2011-12-10T16:59:24Z</time>
      </trkpt>
      <trkpt lat="45.30994" lon="4.16572">
        <ele>562.51</ele>
        <time>2011-12-10T16:59:33Z</time>
      </trkpt>
      <trkpt lat="45.30994" lon="4.16579">
        <ele>562.03</ele>
        <time>2011-12-10T16:59:43Z</time>
      </trkpt>
      <trkpt lat="45.30994" lon="4.16594">
        <ele>563.95</ele>
        <time>2011-12-10T17:42:59Z</time>
      </trkpt>
    </trkseg>
  </trk>
</gpx>